Time,TemperatureF,DewpointF,PressureIn,WindDirection,WindDirectionDegrees,WindSpeedMPH,WindSpeedGustMPH,Humidity,HourlyPrecipIn,Conditions,Clouds,dailyrainin,SolarRadiationWatts/m^2,SoftwareType,DateUTC
2013-12-18 00:00:00,43.8,36.7,29.93,North,358,3.0,3.0,76,0.00,,,0.00,0.00,VWS V14.01,2013-12-18 05:00:00,
2013-12-18 00:01:00,43.8,36.7,29.93,North,353,2.0,3.0,76,0.00,,,0.00,0.00,VWS V14.01,2013-12-18 05:01:00,
2013-12-18 00:02:00,43.8,36.7,29.93,West,277,0.0,0.0,76,0.00,,,0.00,0.00,VWS V14.01,2013-12-18 05:02:00,
2013-12-18 00:03:00,43.6,36.5,29.93,West,277,0.0,0.0,76,0.00,,,0.00,0.00,VWS V14.01,2013-12-18 05:03:00,
2013-12-18 00:04:00,43.6,36.5,29.93,West,277,0.0,0.0,76,0.00,,,0.00,0.00,VWS V14.01,2013-12-18 05:04:00,
2013-12-18 00:05:00,43.5,36.5,29.93,West,277,0.0,0.0,76,0.00,,,0.00,0.00,VWS V14.01,2013-12-18 05:05:00,
2013-12-18 00:06:00,43.5,36.8,29.93,West,277,0.0,0.0,77,0.00,,,0.00,0.00,VWS V14.01,2013-12-18 05:06:00,
2013-12-18 00:07:00,43.5,36.8,29.93,West,277,0.0,0.0,77,0.00,,,0.00,0.00,VWS V14.01,2013-12-18 05:07:00,
2013-12-18 00:08:00,43.3,36.6,29.93,West,277,0.0,0.0,77,0.00,,,0.00,0.00,VWS V14.01,2013-12-18 05:08:00,
2013-12-18 00:09:00,43.3,36.6,29.93,West,277,0.0,0.0,77,0.00,,,0.00,0.00,VWS V14.01,2013-12-18 05:09:00,
2013-12-18 00:10:00,43.3,36.6,29.93,West,277,0.0,0.0,77,0.00,,,0.00,0.00,VWS V14.01,2013-12-18 05:10:00,
2013-12-18 00:11:00,43.2,36.5,29.93,West,277,0.0,0.0,77,0.00,,,0.00,0.00,VWS V14.01,2013-12-18 05:11:00,
2013-12-18 00:12:00,43.2,36.5,29.93,West,277,0.0,0.0,77,0.00,,,0.00,0.00,VWS V14.01,2013-12-18 05:12:00,
2013-12-18 00:13:00,43.1,36.4,29.93,West,277,0.0,0.0,77,0.00,,,0.00,0.00,VWS V14.01,2013-12-18 05:13:00,
2013-12-18 00:14:00,43.1,36.4,29.93,West,277,0.0,0.0,77,0.00,,,0.00,0.00,VWS V14.01,2013-12-18 05:14:00,
2013-12-18 00:15:00,42.9,36.2,29.93,West,277,0.0,0.0,77,0.00,,,0.00,0.00,VWS V14.01,2013-12-18 05:15:00,
2013-12-18 00:16:00,42.9,36.2,29.93,West,277,0.0,0.0,77,0.00,,,0.00,0.00,VWS V14.01,2013-12-18 05:16:00,
2013-12-18 00:17:00,42.8,36.1,29.93,West,277,0.0,0.0,77,0.00,,,0.00,0.00,VWS V14.01,2013-12-18 05:17:00,
2013-12-18 00:18:00,42.8,36.1,29.93,West,277,0.0,0.0,77,0.00,,,0.00,0.00,VWS V14.01,2013-12-18 05:18:00,
2013-12-18 00:19:00,42.6,35.9,29.93,West,277,0.0,0.0,77,0.00,,,0.00,0.00,VWS V14.01,2013-12-18 05:19:00,
2013-12-18 00:20:00,42.6,35.9,29.93,West,277,0.0,0.0,77,0.00,,,0.00,0.00,VWS V14.01,2013-12-18 05:20:00,
2013-12-18 00:21:00,42.5,35.8,29.93,West,277,0.0,0.0,77,0.00,,,0.00,0.00,VWS V14.01,2013-12-18 05:21:00,
2013-12-18 00:22:00,42.5,36.1,29.93,West,277,0.0,0.0,78,0.00,,,0.00,0.00,VWS V14.01,2013-12-18 05:22:00,
2013-12-18 00:23:00,42.3,35.9,29.93,West,277,1.0,1.0,78,0.00,,,0.00,0.00,VWS V14.01,2013-12-18 05:23:00,
2013-12-18 00:24:00,42.3,35.9,29.93,West,277,0.0,1.0,78,0.00,,,0.00,0.00,VWS V14.01,2013-12-18 05:24:00,
2013-12-18 00:25:00,42.2,35.8,29.93,West,277,0.0,0.0,78,0.00,,,0.00,0.00,VWS V14.01,2013-12-18 05:25:00,
2013-12-18 00:26:00,42.2,35.8,29.93,West,277,0.0,0.0,78,0.00,,,0.00,0.00,VWS V14.01,2013-12-18 05:26:00,
2013-12-18 00:27:00,42.1,35.8,29.93,West,277,0.0,0.0,78,0.00,,,0.00,0.00,VWS V14.01,2013-12-18 05:27:00,
2013-12-18 00:28:00,42.1,35.8,29.93,West,277,0.0,0.0,78,0.00,,,0.00,0.00,VWS V14.01,2013-12-18 05:28:00,
2013-12-18 00:29:00,41.9,35.5,29.93,West,277,0.0,0.0,78,0.00,,,0.00,0.00,VWS V14.01,2013-12-18 05:29:00,
2013-12-18 00:30:00,41.9,35.9,29.93,West,277,0.0,0.0,79,0.00,,,0.00,0.00,VWS V14.01,2013-12-18 05:30:00,
2013-12-18 00:31:00,41.8,35.8,29.93,West,277,0.0,0.0,79,0.00,,,0.00,0.00,VWS V14.01,2013-12-18 05:31:00,
2013-12-18 00:32:00,41.8,35.8,29.93,West,277,1.0,3.0,79,0.00,,,0.00,0.00,VWS V14.01,2013-12-18 05:32:00,
2013-12-18 00:33:00,41.8,35.8,29.93,West,277,0.0,0.0,79,0.00,,,0.00,0.00,VWS V14.01,2013-12-18 05:33:00,
2013-12-18 00:34:00,41.6,35.6,29.93,West,277,0.0,0.0,79,0.00,,,0.00,0.00,VWS V14.01,2013-12-18 05:34:00,
2013-12-18 00:35:00,41.6,35.9,29.93,West,277,0.0,0.0,80,0.00,,,0.00,0.00,VWS V14.01,2013-12-18 05:35:00,
2013-12-18 00:36:00,41.6,35.9,29.93,West,277,0.0,0.0,80,0.00,,,0.00,0.00,VWS V14.01,2013-12-18 05:36:00,
2013-12-18 00:37:00,41.5,35.8,29.93,West,277,0.0,0.0,80,0.00,,,0.00,0.00,VWS V14.01,2013-12-18 05:37:00,
2013-12-18 00:38:00,41.5,35.8,29.93,West,277,0.0,0.0,80,0.00,,,0.00,0.00,VWS V14.01,2013-12-18 05:38:00,
2013-12-18 00:39:00,41.5,35.8,29.93,West,277,0.0,0.0,80,0.00,,,0.00,0.00,VWS V14.01,2013-12-18 05:39:00,
2013-12-18 00:40:00,41.5,35.8,29.93,West,277,0.0,0.0,80,0.00,,,0.00,0.00,VWS V14.01,2013-12-18 05:40:00,
2013-12-18 00:41:00,41.5,35.8,29.93,West,277,0.0,0.0,80,0.00,,,0.00,0.00,VWS V14.01,2013-12-18 05:41:00,
2013-12-18 00:42:00,41.5,35.8,29.93,West,277,0.0,0.0,80,0.00,,,0.00,0.00,VWS V14.01,2013-12-18 05:42:00,
2013-12-18 00:43:00,41.3,35.9,29.93,West,277,0.0,0.0,81,0.00,,,0.00,0.00,VWS V14.01,2013-12-18 05:43:00,
2013-12-18 00:44:00,41.3,35.9,29.93,West,277,0.0,0.0,81,0.00,,,0.00,0.00,VWS V14.01,2013-12-18 05:44:00,
2013-12-18 00:45:00,41.3,35.9,29.93,West,277,0.0,0.0,81,0.00,,,0.00,0.00,VWS V14.01,2013-12-18 05:45:00,
2013-12-18 00:46:00,41.3,35.9,29.93,WNW,293,3.0,5.0,81,0.00,,,0.00,0.00,VWS V14.01,2013-12-18 05:46:00,
2013-12-18 00:47:00,41.3,35.9,29.93,NW,326,4.0,5.0,81,0.00,,,0.00,0.00,VWS V14.01,2013-12-18 05:47:00,
2013-12-18 00:48:00,41.3,35.9,29.93,NNW,342,0.0,4.0,81,0.00,,,0.00,0.00,VWS V14.01,2013-12-18 05:48:00,
2013-12-18 00:49:00,41.3,35.9,29.93,NNW,342,0.0,0.0,81,0.00,,,0.00,0.00,VWS V14.01,2013-12-18 05:49:00,
2013-12-18 00:50:00,41.3,35.9,29.93,NNW,339,0.0,4.0,81,0.00,,,0.00,0.00,VWS V14.01,2013-12-18 05:50:00,
2013-12-18 00:51:00,41.3,35.9,29.93,NNW,339,0.0,0.0,81,0.00,,,0.00,0.00,VWS V14.01,2013-12-18 05:51:00,
2013-12-18 00:52:00,41.3,35.9,29.93,NNW,339,0.0,0.0,81,0.00,,,0.00,0.00,VWS V14.01,2013-12-18 05:52:00,
2013-12-18 00:53:00,41.3,35.9,29.93,NNW,339,0.0,0.0,81,0.00,,,0.00,0.00,VWS V14.01,2013-12-18 05:53:00,
2013-12-18 00:54:00,41.3,35.9,29.93,NW,325,3.0,6.0,81,0.00,,,0.00,0.00,VWS V14.01,2013-12-18 05:54:00,
2013-12-18 00:55:00,41.3,35.9,29.93,NNW,328,3.0,5.0,81,0.00,,,0.00,0.00,VWS V14.01,2013-12-18 05:55:00,
2013-12-18 00:56:00,41.3,36.2,29.93,NNW,328,0.0,3.0,82,0.00,,,0.00,0.00,VWS V14.01,2013-12-18 05:56:00,
2013-12-18 00:57:00,41.3,35.9,29.93,NNW,328,0.0,0.0,81,0.00,,,0.00,0.00,VWS V14.01,2013-12-18 05:57:00,
2013-12-18 00:58:00,41.3,35.9,29.93,NNW,328,0.0,0.0,81,0.00,,,0.00,0.00,VWS V14.01,2013-12-18 05:58:00,
2013-12-18 00:59:00,41.5,36.1,29.93,North,3,0.0,5.0,81,0.00,,,0.00,0.00,VWS V14.01,2013-12-18 05:59:00,
2013-12-18 01:00:00,41.5,36.1,29.94,North,3,0.0,0.0,81,0.00,,,0.00,0.00,VWS V14.01,2013-12-18 06:00:00,
2013-12-18 01:01:00,41.5,36.1,29.94,North,3,0.0,0.0,81,0.00,,,0.00,0.00,VWS V14.01,2013-12-18 06:01:00,
2013-12-18 01:02:00,41.5,36.1,29.94,North,358,0.0,3.0,81,0.00,,,0.00,0.00,VWS V14.01,2013-12-18 06:02:00,
2013-12-18 01:03:00,41.5,36.1,29.94,North,358,0.0,0.0,81,0.00,,,0.00,0.00,VWS V14.01,2013-12-18 06:03:00,
2013-12-18 01:04:00,41.3,35.9,29.94,North,358,0.0,0.0,81,0.00,,,0.00,0.00,VWS V14.01,2013-12-18 06:04:00,
2013-12-18 01:05:00,41.3,35.9,29.94,North,356,1.0,3.0,81,0.00,,,0.00,0.00,VWS V14.01,2013-12-18 06:05:00,
2013-12-18 01:06:00,41.3,35.9,29.94,North,0,3.0,3.0,81,0.00,,,0.00,0.00,VWS V14.01,2013-12-18 06:06:00,
2013-12-18 01:07:00,41.3,35.9,29.94,North,0,2.0,6.0,81,0.00,,,0.00,0.00,VWS V14.01,2013-12-18 06:07:00,
2013-12-18 01:08:00,41.3,35.9,29.94,North,0,0.0,2.0,81,0.00,,,0.00,0.00,VWS V14.01,2013-12-18 06:08:00,
2013-12-18 01:09:00,41.3,35.9,29.94,North,0,0.0,0.0,81,0.00,,,0.00,0.00,VWS V14.01,2013-12-18 06:09:00,
2013-12-18 01:10:00,41.3,35.9,29.94,North,358,0.0,3.0,81,0.00,,,0.00,0.00,VWS V14.01,2013-12-18 06:10:00,
2013-12-18 01:11:00,41.3,35.9,29.94,North,358,1.0,1.0,81,0.00,,,0.00,0.00,VWS V14.01,2013-12-18 06:11:00,
2013-12-18 01:12:00,41.3,35.6,29.94,NNW,344,2.0,3.0,80,0.00,,,0.00,0.00,VWS V14.01,2013-12-18 06:12:00,
2013-12-18 01:13:00,41.5,35.8,29.94,NW,319,3.0,5.0,80,0.00,,,0.00,0.00,VWS V14.01,2013-12-18 06:13:00,
2013-12-18 01:14:00,41.5,35.8,29.94,North,358,2.0,4.0,80,0.00,,,0.00,0.00,VWS V14.01,2013-12-18 06:14:00,
2013-12-18 01:15:00,41.5,35.8,29.95,North,358,0.0,3.0,80,0.00,,,0.00,0.00,VWS V14.01,2013-12-18 06:15:00,
2013-12-18 01:16:00,41.5,35.8,29.95,NW,324,3.0,6.0,80,0.00,,,0.00,0.00,VWS V14.01,2013-12-18 06:16:00,
2013-12-18 01:17:00,41.5,35.8,29.95,NW,324,0.0,2.0,80,0.00,,,0.00,0.00,VWS V14.01,2013-12-18 06:17:00,
2013-12-18 01:18:00,41.5,35.8,29.95,NW,324,0.0,0.0,80,0.00,,,0.00,0.00,VWS V14.01,2013-12-18 06:18:00,
2013-12-18 01:19:00,41.6,35.9,29.95,NNW,328,0.0,4.0,80,0.00,,,0.00,0.00,VWS V14.01,2013-12-18 06:19:00,
2013-12-18 01:20:00,41.6,35.9,29.95,NNW,328,0.0,0.0,80,0.00,,,0.00,0.00,VWS V14.01,2013-12-18 06:20:00,
2013-12-18 01:21:00,41.6,35.9,29.95,WNW,300,4.0,5.0,80,0.00,,,0.00,0.00,VWS V14.01,2013-12-18 06:21:00,
2013-12-18 01:22:00,41.6,35.9,29.95,WNW,300,0.0,2.0,80,0.00,,,0.00,0.00,VWS V14.01,2013-12-18 06:22:00,
2013-12-18 01:23:00,41.6,35.6,29.95,NNW,335,5.0,5.0,79,0.00,,,0.00,0.00,VWS V14.01,2013-12-18 06:23:00,
2013-12-18 01:24:00,41.6,35.6,29.95,NNW,342,0.0,4.0,79,0.00,,,0.00,0.00,VWS V14.01,2013-12-18 06:24:00,
2013-12-18 01:25:00,41.6,35.6,29.95,NNW,342,0.0,0.0,79,0.00,,,0.00,0.00,VWS V14.01,2013-12-18 06:25:00,
2013-12-18 01:26:00,41.6,35.6,29.95,NNW,337,5.0,5.0,79,0.00,,,0.00,0.00,VWS V14.01,2013-12-18 06:26:00,
2013-12-18 01:27:00,41.5,35.5,29.95,WNW,294,0.0,5.0,79,0.00,,,0.00,0.00,VWS V14.01,2013-12-18 06:27:00,
2013-12-18 01:28:00,41.5,35.5,29.95,WNW,294,0.0,0.0,79,0.00,,,0.00,0.00,VWS V14.01,2013-12-18 06:28:00,
2013-12-18 01:29:00,41.5,35.5,29.95,WNW,294,0.0,0.0,79,0.00,,,0.00,0.00,VWS V14.01,2013-12-18 06:29:00,
2013-12-18 01:30:00,41.5,35.5,29.96,WNW,294,0.0,0.0,79,0.00,,,0.00,0.00,VWS V14.01,2013-12-18 06:30:00,
2013-12-18 01:31:00,41.5,35.5,29.96,North,351,3.0,5.0,79,0.00,,,0.00,0.00,VWS V14.01,2013-12-18 06:31:00,
2013-12-18 01:32:00,41.5,35.5,29.96,North,349,2.0,4.0,79,0.00,,,0.00,0.00,VWS V14.01,2013-12-18 06:32:00,
2013-12-18 01:33:00,41.5,35.5,29.96,NW,326,3.0,3.0,79,0.00,,,0.00,0.00,VWS V14.01,2013-12-18 06:33:00,
2013-12-18 01:34:00,41.3,35.3,29.96,NW,326,0.0,3.0,79,0.00,,,0.00,0.00,VWS V14.01,2013-12-18 06:34:00,
2013-12-18 01:35:00,41.3,35.3,29.96,NW,326,0.0,0.0,79,0.00,,,0.00,0.00,VWS V14.01,2013-12-18 06:35:00,
2013-12-18 01:36:00,41.3,35.3,29.96,NW,326,0.0,0.0,79,0.00,,,0.00,0.00,VWS V14.01,2013-12-18 06:36:00,
2013-12-18 01:37:00,41.3,35.3,29.96,NW,326,0.0,0.0,79,0.00,,,0.00,0.00,VWS V14.01,2013-12-18 06:37:00,
2013-12-18 01:38:00,41.3,35.3,29.96,NW,326,0.0,0.0,79,0.00,,,0.00,0.00,VWS V14.01,2013-12-18 06:38:00,
2013-12-18 01:39:00,41.3,35.3,29.96,NW,326,0.0,0.0,79,0.00,,,0.00,0.00,VWS V14.01,2013-12-18 06:39:00,
2013-12-18 01:40:00,41.2,35.2,29.96,NW,326,0.0,0.0,79,0.00,,,0.00,0.00,VWS V14.01,2013-12-18 06:40:00,
2013-12-18 01:41:00,41.2,35.2,29.96,NW,326,0.0,0.0,79,0.00,,,0.00,0.00,VWS V14.01,2013-12-18 06:41:00,
2013-12-18 01:42:00,41.2,35.2,29.96,NW,326,0.0,0.0,79,0.00,,,0.00,0.00,VWS V14.01,2013-12-18 06:42:00,
2013-12-18 01:43:00,41.1,35.1,29.96,NW,326,0.0,0.0,79,0.00,,,0.00,0.00,VWS V14.01,2013-12-18 06:43:00,
2013-12-18 01:44:00,41.1,35.1,29.96,NW,326,0.0,0.0,79,0.00,,,0.00,0.00,VWS V14.01,2013-12-18 06:44:00,
2013-12-18 01:45:00,40.9,34.9,29.97,NW,326,0.0,0.0,79,0.00,,,0.00,0.00,VWS V14.01,2013-12-18 06:45:00,
2013-12-18 01:46:00,40.9,34.9,29.97,NW,326,0.0,0.0,79,0.00,,,0.00,0.00,VWS V14.01,2013-12-18 06:46:00,
2013-12-18 01:47:00,40.9,34.9,29.97,NW,326,2.0,2.0,79,0.00,,,0.00,0.00,VWS V14.01,2013-12-18 06:47:00,
2013-12-18 01:48:00,40.8,34.8,29.97,NW,326,0.0,3.0,79,0.00,,,0.00,0.00,VWS V14.01,2013-12-18 06:48:00,
2013-12-18 01:49:00,40.8,34.8,29.97,NW,326,3.0,3.0,79,0.00,,,0.00,0.00,VWS V14.01,2013-12-18 06:49:00,
2013-12-18 01:50:00,40.6,34.9,29.97,NW,326,1.0,3.0,80,0.00,,,0.00,0.00,VWS V14.01,2013-12-18 06:50:00,
2013-12-18 01:51:00,40.6,34.9,29.97,NW,326,0.0,1.0,80,0.00,,,0.00,0.00,VWS V14.01,2013-12-18 06:51:00,
2013-12-18 01:52:00,40.6,34.9,29.97,NW,326,0.0,0.0,80,0.00,,,0.00,0.00,VWS V14.01,2013-12-18 06:52:00,
2013-12-18 01:53:00,40.6,34.9,29.97,NW,326,0.0,0.0,80,0.00,,,0.00,0.00,VWS V14.01,2013-12-18 06:53:00,
2013-12-18 01:54:00,40.6,34.9,29.97,NW,326,0.0,0.0,80,0.00,,,0.00,0.00,VWS V14.01,2013-12-18 06:54:00,
2013-12-18 01:55:00,40.5,34.8,29.97,NW,326,0.0,0.0,80,0.00,,,0.00,0.00,VWS V14.01,2013-12-18 06:55:00,
2013-12-18 01:56:00,40.5,34.8,29.97,NW,326,0.0,0.0,80,0.00,,,0.00,0.00,VWS V14.01,2013-12-18 06:56:00,
2013-12-18 01:57:00,40.5,34.8,29.97,NW,326,0.0,0.0,80,0.00,,,0.00,0.00,VWS V14.01,2013-12-18 06:57:00,
2013-12-18 01:58:00,40.5,34.8,29.97,NW,326,0.0,2.0,80,0.00,,,0.00,0.00,VWS V14.01,2013-12-18 06:58:00,
2013-12-18 01:59:00,40.5,34.8,29.97,NW,326,0.0,0.0,80,0.00,,,0.00,0.00,VWS V14.01,2013-12-18 06:59:00,
2013-12-18 02:00:00,40.3,34.6,29.97,NW,326,0.0,0.0,80,0.00,,,0.00,0.00,VWS V14.01,2013-12-18 07:00:00,
2013-12-18 02:01:00,40.3,34.6,29.97,NW,326,0.0,0.0,80,0.00,,,0.00,0.00,VWS V14.01,2013-12-18 07:01:00,
2013-12-18 02:02:00,40.2,34.5,29.97,NW,326,0.0,0.0,80,0.00,,,0.00,0.00,VWS V14.01,2013-12-18 07:02:00,
2013-12-18 02:03:00,40.2,34.5,29.97,NW,326,0.0,0.0,80,0.00,,,0.00,0.00,VWS V14.01,2013-12-18 07:03:00,
2013-12-18 02:04:00,40.2,34.5,29.97,NW,326,0.0,0.0,80,0.00,,,0.00,0.00,VWS V14.01,2013-12-18 07:04:00,
2013-12-18 02:05:00,40.1,34.4,29.97,NW,326,0.0,0.0,80,0.00,,,0.00,0.00,VWS V14.01,2013-12-18 07:05:00,
2013-12-18 02:06:00,40.1,34.8,29.97,NW,326,0.0,0.0,81,0.00,,,0.00,0.00,VWS V14.01,2013-12-18 07:06:00,
2013-12-18 02:07:00,39.9,34.5,29.97,NW,326,0.0,0.0,81,0.00,,,0.00,0.00,VWS V14.01,2013-12-18 07:07:00,
2013-12-18 02:08:00,39.9,34.5,29.97,NW,326,0.0,0.0,81,0.00,,,0.00,0.00,VWS V14.01,2013-12-18 07:08:00,
2013-12-18 02:09:00,39.8,34.5,29.97,NW,326,0.0,0.0,81,0.00,,,0.00,0.00,VWS V14.01,2013-12-18 07:09:00,
2013-12-18 02:10:00,39.8,34.5,29.97,NW,326,0.0,0.0,81,0.00,,,0.00,0.00,VWS V14.01,2013-12-18 07:10:00,
2013-12-18 02:11:00,39.6,34.0,29.97,NW,326,0.0,0.0,80,0.00,,,0.00,0.00,VWS V14.01,2013-12-18 07:11:00,
2013-12-18 02:12:00,39.5,33.8,29.97,NW,326,0.0,0.0,80,0.00,,,0.00,0.00,VWS V14.01,2013-12-18 07:12:00,
2013-12-18 02:13:00,39.5,33.8,29.97,NW,326,0.0,0.0,80,0.00,,,0.00,0.00,VWS V14.01,2013-12-18 07:13:00,
2013-12-18 02:14:00,39.3,34.0,29.97,NW,326,0.0,0.0,81,0.00,,,0.00,0.00,VWS V14.01,2013-12-18 07:14:00,
2013-12-18 02:15:00,39.3,34.0,29.98,NW,326,0.0,0.0,81,0.00,,,0.00,0.00,VWS V14.01,2013-12-18 07:15:00,
2013-12-18 02:16:00,39.2,33.9,29.98,NW,326,0.0,0.0,81,0.00,,,0.00,0.00,VWS V14.01,2013-12-18 07:16:00,
2013-12-18 02:17:00,39.2,33.9,29.98,NW,326,0.0,0.0,81,0.00,,,0.00,0.00,VWS V14.01,2013-12-18 07:17:00,
2013-12-18 02:18:00,39.1,33.8,29.98,NW,326,0.0,0.0,81,0.00,,,0.00,0.00,VWS V14.01,2013-12-18 07:18:00,
2013-12-18 02:19:00,39.1,34.1,29.98,NW,326,0.0,0.0,82,0.00,,,0.00,0.00,VWS V14.01,2013-12-18 07:19:00,
2013-12-18 02:20:00,38.9,33.9,29.98,NW,326,0.0,0.0,82,0.00,,,0.00,0.00,VWS V14.01,2013-12-18 07:20:00,
2013-12-18 02:21:00,38.9,33.9,29.98,NW,326,0.0,0.0,82,0.00,,,0.00,0.00,VWS V14.01,2013-12-18 07:21:00,
2013-12-18 02:22:00,38.8,33.8,29.98,NW,326,0.0,0.0,82,0.00,,,0.00,0.00,VWS V14.01,2013-12-18 07:22:00,
2013-12-18 02:23:00,38.8,33.8,29.98,NW,326,0.0,1.0,82,0.00,,,0.00,0.00,VWS V14.01,2013-12-18 07:23:00,
2013-12-18 02:24:00,38.6,33.6,29.98,NW,326,0.0,0.0,82,0.00,,,0.00,0.00,VWS V14.01,2013-12-18 07:24:00,
2013-12-18 02:25:00,38.6,33.6,29.98,NW,326,0.0,0.0,82,0.00,,,0.00,0.00,VWS V14.01,2013-12-18 07:25:00,
2013-12-18 02:26:00,38.6,33.6,29.98,NW,326,0.0,0.0,82,0.00,,,0.00,0.00,VWS V14.01,2013-12-18 07:26:00,
2013-12-18 02:27:00,38.5,33.5,29.98,NW,326,0.0,0.0,82,0.00,,,0.00,0.00,VWS V14.01,2013-12-18 07:27:00,
2013-12-18 02:28:00,38.3,33.6,29.98,NW,326,2.0,3.0,83,0.00,,,0.00,0.00,VWS V14.01,2013-12-18 07:28:00,
2013-12-18 02:29:00,38.3,33.6,29.98,NW,326,0.0,1.0,83,0.00,,,0.00,0.00,VWS V14.01,2013-12-18 07:29:00,
2013-12-18 02:30:00,38.3,33.6,29.99,NW,326,0.0,0.0,83,0.00,,,0.00,0.00,VWS V14.01,2013-12-18 07:30:00,
2013-12-18 02:31:00,38.2,33.5,29.99,NW,326,2.0,2.0,83,0.00,,,0.00,0.00,VWS V14.01,2013-12-18 07:31:00,
2013-12-18 02:32:00,38.2,33.8,29.99,NW,326,0.0,3.0,84,0.00,,,0.00,0.00,VWS V14.01,2013-12-18 07:32:00,
2013-12-18 02:33:00,38.2,33.8,29.99,NW,326,2.0,2.0,84,0.00,,,0.00,0.00,VWS V14.01,2013-12-18 07:33:00,
2013-12-18 02:34:00,38.2,33.8,29.99,NW,323,2.0,3.0,84,0.00,,,0.00,0.00,VWS V14.01,2013-12-18 07:34:00,
2013-12-18 02:35:00,38.2,33.8,29.99,NNW,333,0.0,6.0,84,0.00,,,0.00,0.00,VWS V14.01,2013-12-18 07:35:00,
2013-12-18 02:36:00,38.2,33.8,29.99,NNW,333,0.0,0.0,84,0.00,,,0.00,0.00,VWS V14.01,2013-12-18 07:36:00,
2013-12-18 02:37:00,38.2,33.8,29.99,NNW,333,0.0,0.0,84,0.00,,,0.00,0.00,VWS V14.01,2013-12-18 07:37:00,
2013-12-18 02:38:00,38.0,33.6,29.99,NNW,333,0.0,0.0,84,0.00,,,0.00,0.00,VWS V14.01,2013-12-18 07:38:00,
2013-12-18 02:39:00,38.0,33.6,29.99,NNW,330,3.0,3.0,84,0.00,,,0.00,0.00,VWS V14.01,2013-12-18 07:39:00,
2013-12-18 02:40:00,38.0,33.6,29.99,NNW,330,3.0,3.0,84,0.00,,,0.00,0.00,VWS V14.01,2013-12-18 07:40:00,
2013-12-18 02:41:00,38.0,33.6,29.99,NNW,330,3.0,3.0,84,0.00,,,0.00,0.00,VWS V14.01,2013-12-18 07:41:00,
2013-12-18 02:42:00,38.0,33.6,29.99,NNW,328,0.0,0.0,84,0.00,,,0.00,0.00,VWS V14.01,2013-12-18 07:42:00,
2013-12-18 02:43:00,38.0,33.6,29.99,NNW,328,0.0,0.0,84,0.00,,,0.00,0.00,VWS V14.01,2013-12-18 07:43:00,
2013-12-18 02:44:00,38.0,33.6,29.99,NNW,328,0.0,0.0,84,0.00,,,0.00,0.00,VWS V14.01,2013-12-18 07:44:00,
2013-12-18 02:45:00,38.0,33.6,30.00,NNW,328,0.0,0.0,84,0.00,,,0.00,0.00,VWS V14.01,2013-12-18 07:45:00,
2013-12-18 02:46:00,38.0,33.6,30.00,NNW,328,0.0,0.0,84,0.00,,,0.00,0.00,VWS V14.01,2013-12-18 07:46:00,
2013-12-18 02:47:00,38.0,33.6,30.00,NNW,328,0.0,0.0,84,0.00,,,0.00,0.00,VWS V14.01,2013-12-18 07:47:00,
2013-12-18 02:48:00,38.0,33.6,30.00,NNW,328,0.0,0.0,84,0.00,,,0.00,0.00,VWS V14.01,2013-12-18 07:48:00,
2013-12-18 02:49:00,38.0,33.6,30.00,NNW,328,0.0,3.0,84,0.00,,,0.00,0.00,VWS V14.01,2013-12-18 07:49:00,
2013-12-18 02:50:00,38.0,33.6,30.00,NW,314,3.0,5.0,84,0.00,,,0.00,0.00,VWS V14.01,2013-12-18 07:50:00,
2013-12-18 02:51:00,38.0,33.6,30.00,NW,312,0.0,4.0,84,0.00,,,0.00,0.00,VWS V14.01,2013-12-18 07:51:00,
2013-12-18 02:52:00,38.0,33.6,30.00,NW,312,0.0,0.0,84,0.00,,,0.00,0.00,VWS V14.01,2013-12-18 07:52:00,
2013-12-18 02:53:00,38.0,33.6,30.00,NW,319,0.0,2.0,84,0.00,,,0.00,0.00,VWS V14.01,2013-12-18 07:53:00,
2013-12-18 02:54:00,38.0,33.6,30.00,NNW,335,4.0,4.0,84,0.00,,,0.00,0.00,VWS V14.01,2013-12-18 07:54:00,
2013-12-18 02:55:00,38.2,33.5,30.00,WNW,303,4.0,4.0,83,0.00,,,0.00,0.00,VWS V14.01,2013-12-18 07:55:00,
2013-12-18 02:56:00,38.2,33.5,30.00,WNW,294,0.0,5.0,83,0.00,,,0.00,0.00,VWS V14.01,2013-12-18 07:56:00,
2013-12-18 02:57:00,38.2,33.5,30.00,WNW,296,3.0,3.0,83,0.00,,,0.00,0.00,VWS V14.01,2013-12-18 07:57:00,
2013-12-18 02:58:00,38.3,33.3,30.00,NW,311,7.0,7.0,82,0.00,,,0.00,0.00,VWS V14.01,2013-12-18 07:58:00,
2013-12-18 02:59:00,38.5,33.5,30.00,NNW,328,1.0,8.0,82,0.00,,,0.00,0.00,VWS V14.01,2013-12-18 07:59:00,
2013-12-18 03:00:00,38.5,33.2,30.00,NNW,328,0.0,0.0,81,0.00,,,0.00,0.00,VWS V14.01,2013-12-18 08:00:00,
2013-12-18 03:01:00,38.5,33.2,30.00,NNW,340,4.0,6.0,81,0.00,,,0.00,0.00,VWS V14.01,2013-12-18 08:01:00,
2013-12-18 03:02:00,38.6,33.0,30.00,NNW,340,0.0,2.0,80,0.00,,,0.00,0.00,VWS V14.01,2013-12-18 08:02:00,
2013-12-18 03:03:00,38.6,33.0,30.00,NW,306,1.0,3.0,80,0.00,,,0.00,0.00,VWS V14.01,2013-12-18 08:03:00,
2013-12-18 03:04:00,38.8,32.9,30.00,NW,326,0.0,5.0,79,0.00,,,0.00,0.00,VWS V14.01,2013-12-18 08:04:00,
2013-12-18 03:05:00,38.8,32.5,30.00,NW,317,3.0,3.0,78,0.00,,,0.00,0.00,VWS V14.01,2013-12-18 08:05:00,
2013-12-18 03:06:00,38.8,32.5,30.00,North,358,5.0,6.0,78,0.00,,,0.00,0.00,VWS V14.01,2013-12-18 08:06:00,
2013-12-18 03:07:00,38.8,32.2,30.00,North,358,0.0,3.0,77,0.00,,,0.00,0.00,VWS V14.01,2013-12-18 08:07:00,
2013-12-18 03:08:00,38.9,32.3,30.00,North,358,0.0,0.0,77,0.00,,,0.00,0.00,VWS V14.01,2013-12-18 08:08:00,
2013-12-18 03:09:00,38.9,32.0,30.00,NW,307,2.0,3.0,76,0.00,,,0.00,0.00,VWS V14.01,2013-12-18 08:09:00,
2013-12-18 03:10:00,38.9,32.0,30.00,NNW,330,0.0,0.0,76,0.00,,,0.00,0.00,VWS V14.01,2013-12-18 08:10:00,
2013-12-18 03:11:00,39.1,32.2,30.00,NNW,330,0.0,0.0,76,0.00,,,0.00,0.00,VWS V14.01,2013-12-18 08:11:00,
2013-12-18 03:12:00,39.1,31.9,30.00,NNW,330,0.0,0.0,75,0.00,,,0.00,0.00,VWS V14.01,2013-12-18 08:12:00,
2013-12-18 03:13:00,39.1,31.9,30.00,West,281,1.0,3.0,75,0.00,,,0.00,0.00,VWS V14.01,2013-12-18 08:13:00,
2013-12-18 03:14:00,39.1,31.9,30.00,West,281,0.0,0.0,75,0.00,,,0.00,0.00,VWS V14.01,2013-12-18 08:14:00,
2013-12-18 03:15:00,39.1,31.5,30.01,West,281,0.0,0.0,74,0.00,,,0.00,0.00,VWS V14.01,2013-12-18 08:15:00,
2013-12-18 03:16:00,39.1,31.5,30.01,West,281,0.0,4.0,74,0.00,,,0.00,0.00,VWS V14.01,2013-12-18 08:16:00,
2013-12-18 03:17:00,39.1,31.5,30.01,WNW,289,5.0,5.0,74,0.00,,,0.00,0.00,VWS V14.01,2013-12-18 08:17:00,
2013-12-18 03:18:00,39.1,31.5,30.01,WNW,299,0.0,5.0,74,0.00,,,0.00,0.00,VWS V14.01,2013-12-18 08:18:00,
2013-12-18 03:19:00,39.1,31.2,30.01,WNW,299,0.0,0.0,73,0.00,,,0.00,0.00,VWS V14.01,2013-12-18 08:19:00,
2013-12-18 03:20:00,39.1,31.2,30.01,WNW,299,0.0,0.0,73,0.00,,,0.00,0.00,VWS V14.01,2013-12-18 08:20:00,
2013-12-18 03:21:00,39.1,31.2,30.01,WNW,299,0.0,0.0,73,0.00,,,0.00,0.00,VWS V14.01,2013-12-18 08:21:00,
2013-12-18 03:22:00,39.1,31.2,30.01,WNW,300,0.0,0.0,73,0.00,,,0.00,0.00,VWS V14.01,2013-12-18 08:22:00,
2013-12-18 03:23:00,39.1,31.2,30.01,WNW,300,3.0,5.0,73,0.00,,,0.00,0.00,VWS V14.01,2013-12-18 08:23:00,
2013-12-18 03:24:00,39.1,31.2,30.01,NW,306,2.0,3.0,73,0.00,,,0.00,0.00,VWS V14.01,2013-12-18 08:24:00,
2013-12-18 03:25:00,39.1,30.9,30.01,NW,306,0.0,0.0,72,0.00,,,0.00,0.00,VWS V14.01,2013-12-18 08:25:00,
2013-12-18 03:26:00,39.1,30.9,30.01,NW,307,0.0,2.0,72,0.00,,,0.00,0.00,VWS V14.01,2013-12-18 08:26:00,
2013-12-18 03:27:00,38.9,30.7,30.01,NW,324,6.0,6.0,72,0.00,,,0.00,0.00,VWS V14.01,2013-12-18 08:27:00,
2013-12-18 03:28:00,38.9,30.7,30.01,NW,323,2.0,6.0,72,0.00,,,0.00,0.00,VWS V14.01,2013-12-18 08:28:00,
2013-12-18 03:29:00,38.9,30.7,30.01,NW,323,0.0,1.0,72,0.00,,,0.00,0.00,VWS V14.01,2013-12-18 08:29:00,
2013-12-18 03:30:00,38.9,30.7,30.01,NW,323,0.0,0.0,72,0.00,,,0.00,0.00,VWS V14.01,2013-12-18 08:30:00,
2013-12-18 03:31:00,38.9,30.7,30.01,NW,323,2.0,3.0,72,0.00,,,0.00,0.00,VWS V14.01,2013-12-18 08:31:00,
2013-12-18 03:32:00,38.9,30.7,30.01,NW,319,4.0,5.0,72,0.00,,,0.00,0.00,VWS V14.01,2013-12-18 08:32:00,
2013-12-18 03:33:00,38.8,30.6,30.01,NW,313,3.0,5.0,72,0.00,,,0.00,0.00,VWS V14.01,2013-12-18 08:33:00,
2013-12-18 03:34:00,38.8,30.6,30.01,NW,313,0.0,3.0,72,0.00,,,0.00,0.00,VWS V14.01,2013-12-18 08:34:00,
2013-12-18 03:35:00,38.8,30.6,30.01,NW,313,0.0,0.0,72,0.00,,,0.00,0.00,VWS V14.01,2013-12-18 08:35:00,
2013-12-18 03:36:00,38.8,30.6,30.01,NW,313,0.0,0.0,72,0.00,,,0.00,0.00,VWS V14.01,2013-12-18 08:36:00,
2013-12-18 03:37:00,38.8,30.6,30.01,NW,313,0.0,0.0,72,0.00,,,0.00,0.00,VWS V14.01,2013-12-18 08:37:00,
2013-12-18 03:38:00,38.6,30.4,30.01,NW,313,0.0,0.0,72,0.00,,,0.00,0.00,VWS V14.01,2013-12-18 08:38:00,
2013-12-18 03:39:00,38.6,30.4,30.01,North,358,6.0,6.0,72,0.00,,,0.00,0.00,VWS V14.01,2013-12-18 08:39:00,
2013-12-18 03:40:00,38.6,30.4,30.01,North,358,0.0,6.0,72,0.00,,,0.00,0.00,VWS V14.01,2013-12-18 08:40:00,
2013-12-18 03:41:00,38.6,30.4,30.01,North,358,0.0,0.0,72,0.00,,,0.00,0.00,VWS V14.01,2013-12-18 08:41:00,
2013-12-18 03:42:00,38.5,30.3,30.01,North,358,0.0,0.0,72,0.00,,,0.00,0.00,VWS V14.01,2013-12-18 08:42:00,
2013-12-18 03:43:00,38.5,30.3,30.01,North,358,0.0,0.0,72,0.00,,,0.00,0.00,VWS V14.01,2013-12-18 08:43:00,
2013-12-18 03:44:00,38.5,30.3,30.01,NNW,330,3.0,4.0,72,0.00,,,0.00,0.00,VWS V14.01,2013-12-18 08:44:00,
2013-12-18 03:45:00,38.3,30.1,30.01,NW,322,0.0,4.0,72,0.00,,,0.00,0.00,VWS V14.01,2013-12-18 08:45:00,
2013-12-18 03:46:00,38.3,29.7,30.01,NW,322,0.0,0.0,71,0.00,,,0.00,0.00,VWS V14.01,2013-12-18 08:46:00,
2013-12-18 03:47:00,38.3,29.7,30.01,NW,324,0.0,2.0,71,0.00,,,0.00,0.00,VWS V14.01,2013-12-18 08:47:00,
2013-12-18 03:48:00,38.3,29.4,30.01,NW,311,2.0,4.0,70,0.00,,,0.00,0.00,VWS V14.01,2013-12-18 08:48:00,
2013-12-18 03:49:00,38.3,29.4,30.01,WNW,285,0.0,3.0,70,0.00,,,0.00,0.00,VWS V14.01,2013-12-18 08:49:00,
2013-12-18 03:50:00,38.2,29.3,30.01,NW,309,0.0,4.0,70,0.00,,,0.00,0.00,VWS V14.01,2013-12-18 08:50:00,
2013-12-18 03:51:00,38.2,29.3,30.01,NW,309,0.0,0.0,70,0.00,,,0.00,0.00,VWS V14.01,2013-12-18 08:51:00,
2013-12-18 03:52:00,38.2,28.9,30.01,WNW,293,0.0,4.0,69,0.00,,,0.00,0.00,VWS V14.01,2013-12-18 08:52:00,
2013-12-18 03:53:00,38.2,28.9,30.01,WNW,294,0.0,0.0,69,0.00,,,0.00,0.00,VWS V14.01,2013-12-18 08:53:00,
2013-12-18 03:54:00,38.2,28.9,30.01,WNW,295,0.0,0.0,69,0.00,,,0.00,0.00,VWS V14.01,2013-12-18 08:54:00,
2013-12-18 03:55:00,38.2,28.9,30.01,NW,313,3.0,3.0,69,0.00,,,0.00,0.00,VWS V14.01,2013-12-18 08:55:00,
2013-12-18 03:56:00,38.2,28.9,30.01,NW,313,0.0,3.0,69,0.00,,,0.00,0.00,VWS V14.01,2013-12-18 08:56:00,
2013-12-18 03:57:00,38.2,28.6,30.01,NW,314,0.0,3.0,68,0.00,,,0.00,0.00,VWS V14.01,2013-12-18 08:57:00,
2013-12-18 03:58:00,38.2,28.6,30.01,NW,314,0.0,1.0,68,0.00,,,0.00,0.00,VWS V14.01,2013-12-18 08:58:00,
2013-12-18 03:59:00,38.2,28.6,30.01,NNW,327,3.0,6.0,68,0.00,,,0.00,0.00,VWS V14.01,2013-12-18 08:59:00,
2013-12-18 04:00:00,38.0,28.4,30.01,NNW,328,0.0,3.0,68,0.00,,,0.00,0.00,VWS V14.01,2013-12-18 09:00:00,
2013-12-18 04:01:00,38.0,28.4,30.01,WNW,292,3.0,6.0,68,0.00,,,0.00,0.00,VWS V14.01,2013-12-18 09:01:00,
2013-12-18 04:02:00,38.0,28.0,30.01,WNW,292,0.0,2.0,67,0.00,,,0.00,0.00,VWS V14.01,2013-12-18 09:02:00,
2013-12-18 04:03:00,38.0,28.0,30.01,WNW,292,0.0,0.0,67,0.00,,,0.00,0.00,VWS V14.01,2013-12-18 09:03:00,
2013-12-18 04:04:00,38.0,28.0,30.01,NW,315,4.0,6.0,67,0.00,,,0.00,0.00,VWS V14.01,2013-12-18 09:04:00,
2013-12-18 04:05:00,38.0,28.0,30.01,NW,321,0.0,5.0,67,0.00,,,0.00,0.00,VWS V14.01,2013-12-18 09:05:00,
2013-12-18 04:06:00,38.0,27.7,30.01,NW,321,0.0,0.0,66,0.00,,,0.00,0.00,VWS V14.01,2013-12-18 09:06:00,
2013-12-18 04:07:00,38.0,27.7,30.01,NW,321,0.0,0.0,66,0.00,,,0.00,0.00,VWS V14.01,2013-12-18 09:07:00,
2013-12-18 04:08:00,38.0,27.7,30.01,NW,316,2.0,5.0,66,0.00,,,0.00,0.00,VWS V14.01,2013-12-18 09:08:00,
2013-12-18 04:09:00,38.0,27.3,30.01,NW,325,0.0,4.0,65,0.00,,,0.00,0.00,VWS V14.01,2013-12-18 09:09:00,
2013-12-18 04:10:00,38.0,27.3,30.01,North,357,3.0,5.0,65,0.00,,,0.00,0.00,VWS V14.01,2013-12-18 09:10:00,
2013-12-18 04:11:00,38.0,26.9,30.01,NW,324,4.0,5.0,64,0.00,,,0.00,0.00,VWS V14.01,2013-12-18 09:11:00,
2013-12-18 04:12:00,38.0,26.9,30.01,NW,325,0.0,4.0,64,0.00,,,0.00,0.00,VWS V14.01,2013-12-18 09:12:00,
2013-12-18 04:13:00,38.0,26.9,30.01,NNW,342,0.0,4.0,64,0.00,,,0.00,0.00,VWS V14.01,2013-12-18 09:13:00,
2013-12-18 04:14:00,38.0,26.9,30.01,NNW,341,0.0,3.0,64,0.00,,,0.00,0.00,VWS V14.01,2013-12-18 09:14:00,
2013-12-18 04:15:00,38.0,26.9,30.03,North,0,2.0,5.0,64,0.00,,,0.00,0.00,VWS V14.01,2013-12-18 09:15:00,
2013-12-18 04:16:00,38.0,26.5,30.03,North,0,0.0,2.0,63,0.00,,,0.00,0.00,VWS V14.01,2013-12-18 09:16:00,
2013-12-18 04:17:00,38.0,26.5,30.03,North,358,0.0,0.0,63,0.00,,,0.00,0.00,VWS V14.01,2013-12-18 09:17:00,
2013-12-18 04:18:00,38.0,26.5,30.03,North,349,1.0,6.0,63,0.00,,,0.00,0.00,VWS V14.01,2013-12-18 09:18:00,
2013-12-18 04:19:00,38.0,26.5,30.03,North,349,0.0,1.0,63,0.00,,,0.00,0.00,VWS V14.01,2013-12-18 09:19:00,
2013-12-18 04:20:00,38.0,26.5,30.03,North,349,0.0,0.0,63,0.00,,,0.00,0.00,VWS V14.01,2013-12-18 09:20:00,
2013-12-18 04:21:00,38.0,26.5,30.03,North,349,1.0,4.0,63,0.00,,,0.00,0.00,VWS V14.01,2013-12-18 09:21:00,
2013-12-18 04:22:00,38.0,26.5,30.03,North,349,0.0,0.0,63,0.00,,,0.00,0.00,VWS V14.01,2013-12-18 09:22:00,
2013-12-18 04:23:00,37.9,26.5,30.03,NNW,345,4.0,4.0,63,0.00,,,0.00,0.00,VWS V14.01,2013-12-18 09:23:00,
2013-12-18 04:24:00,37.9,26.5,30.03,NW,323,0.0,2.0,63,0.00,,,0.00,0.00,VWS V14.01,2013-12-18 09:24:00,
2013-12-18 04:25:00,37.9,26.1,30.03,NW,321,0.0,2.0,62,0.00,,,0.00,0.00,VWS V14.01,2013-12-18 09:25:00,
2013-12-18 04:26:00,37.9,26.1,30.03,NNW,338,0.0,5.0,62,0.00,,,0.00,0.00,VWS V14.01,2013-12-18 09:26:00,
2013-12-18 04:27:00,37.9,26.1,30.03,NNW,335,1.0,1.0,62,0.00,,,0.00,0.00,VWS V14.01,2013-12-18 09:27:00,
2013-12-18 04:28:00,37.9,26.1,30.03,NNW,340,0.0,4.0,62,0.00,,,0.00,0.00,VWS V14.01,2013-12-18 09:28:00,
2013-12-18 04:29:00,37.9,26.1,30.03,North,355,3.0,4.0,62,0.00,,,0.00,0.00,VWS V14.01,2013-12-18 09:29:00,
2013-12-18 04:30:00,37.9,26.1,30.03,NNW,345,0.0,4.0,62,0.00,,,0.00,0.00,VWS V14.01,2013-12-18 09:30:00,
2013-12-18 04:31:00,37.8,26.0,30.03,North,0,6.0,6.0,62,0.00,,,0.00,0.00,VWS V14.01,2013-12-18 09:31:00,
2013-12-18 04:32:00,37.8,26.0,30.03,North,357,0.0,5.0,62,0.00,,,0.00,0.00,VWS V14.01,2013-12-18 09:32:00,
2013-12-18 04:33:00,37.8,26.0,30.03,North,357,1.0,1.0,62,0.00,,,0.00,0.00,VWS V14.01,2013-12-18 09:33:00,
2013-12-18 04:34:00,37.8,26.0,30.03,North,357,0.0,1.0,62,0.00,,,0.00,0.00,VWS V14.01,2013-12-18 09:34:00,
2013-12-18 04:35:00,37.8,26.0,30.03,North,357,0.0,0.0,62,0.00,,,0.00,0.00,VWS V14.01,2013-12-18 09:35:00,
2013-12-18 04:36:00,37.8,26.0,30.03,North,357,0.0,0.0,62,0.00,,,0.00,0.00,VWS V14.01,2013-12-18 09:36:00,
2013-12-18 04:37:00,37.6,25.8,30.03,North,357,0.0,0.0,62,0.00,,,0.00,0.00,VWS V14.01,2013-12-18 09:37:00,
2013-12-18 04:38:00,37.6,25.8,30.03,North,357,0.0,0.0,62,0.00,,,0.00,0.00,VWS V14.01,2013-12-18 09:38:00,
2013-12-18 04:39:00,37.6,25.8,30.03,North,357,0.0,0.0,62,0.00,,,0.00,0.00,VWS V14.01,2013-12-18 09:39:00,
2013-12-18 04:40:00,37.6,26.2,30.03,North,357,0.0,0.0,63,0.00,,,0.00,0.00,VWS V14.01,2013-12-18 09:40:00,
2013-12-18 04:41:00,37.5,26.1,30.03,NW,315,3.0,3.0,63,0.00,,,0.00,0.00,VWS V14.01,2013-12-18 09:41:00,
2013-12-18 04:42:00,37.5,26.1,30.03,NW,305,1.0,3.0,63,0.00,,,0.00,0.00,VWS V14.01,2013-12-18 09:42:00,
2013-12-18 04:43:00,37.5,25.7,30.03,WNW,299,0.0,3.0,62,0.00,,,0.00,0.00,VWS V14.01,2013-12-18 09:43:00,
2013-12-18 04:44:00,37.3,25.1,30.03,WNW,299,0.0,0.0,61,0.00,,,0.00,0.00,VWS V14.01,2013-12-18 09:44:00,
2013-12-18 04:45:00,37.3,25.1,30.03,WNW,299,0.0,0.0,61,0.00,,,0.00,0.00,VWS V14.01,2013-12-18 09:45:00,
2013-12-18 04:46:00,37.3,25.1,30.03,WNW,299,0.0,0.0,61,0.00,,,0.00,0.00,VWS V14.01,2013-12-18 09:46:00,
2013-12-18 04:47:00,37.3,25.1,30.03,WNW,299,0.0,0.0,61,0.00,,,0.00,0.00,VWS V14.01,2013-12-18 09:47:00,
2013-12-18 04:48:00,37.3,25.1,30.03,WNW,299,2.0,3.0,61,0.00,,,0.00,0.00,VWS V14.01,2013-12-18 09:48:00,
2013-12-18 04:49:00,37.3,25.1,30.03,WNW,299,0.0,0.0,61,0.00,,,0.00,0.00,VWS V14.01,2013-12-18 09:49:00,
2013-12-18 04:50:00,37.3,25.1,30.03,WNW,299,0.0,0.0,61,0.00,,,0.00,0.00,VWS V14.01,2013-12-18 09:50:00,
2013-12-18 04:51:00,37.2,25.0,30.03,WNW,299,2.0,2.0,61,0.00,,,0.00,0.00,VWS V14.01,2013-12-18 09:51:00,
2013-12-18 04:52:00,37.2,25.0,30.03,WNW,299,0.0,2.0,61,0.00,,,0.00,0.00,VWS V14.01,2013-12-18 09:52:00,
2013-12-18 04:53:00,37.2,25.0,30.03,WNW,299,1.0,1.0,61,0.00,,,0.00,0.00,VWS V14.01,2013-12-18 09:53:00,
2013-12-18 04:54:00,37.2,25.0,30.03,WNW,299,0.0,3.0,61,0.00,,,0.00,0.00,VWS V14.01,2013-12-18 09:54:00,
2013-12-18 04:55:00,37.2,25.0,30.03,WNW,299,0.0,0.0,61,0.00,,,0.00,0.00,VWS V14.01,2013-12-18 09:55:00,
2013-12-18 04:56:00,37.2,25.0,30.03,WNW,299,0.0,0.0,61,0.00,,,0.00,0.00,VWS V14.01,2013-12-18 09:56:00,
2013-12-18 04:57:00,37.2,24.6,30.03,WNW,299,0.0,0.0,60,0.00,,,0.00,0.00,VWS V14.01,2013-12-18 09:57:00,
2013-12-18 04:58:00,37.0,24.4,30.03,WNW,299,0.0,0.0,60,0.00,,,0.00,0.00,VWS V14.01,2013-12-18 09:58:00,
2013-12-18 04:59:00,37.0,24.4,30.03,WNW,299,2.0,2.0,60,0.00,,,0.00,0.00,VWS V14.01,2013-12-18 09:59:00,
2013-12-18 05:00:00,37.0,24.4,30.03,WNW,300,2.0,2.0,60,0.00,,,0.00,0.00,VWS V14.01,2013-12-18 10:00:00,
2013-12-18 05:01:00,37.0,24.4,30.03,WNW,299,0.0,4.0,60,0.00,,,0.00,0.00,VWS V14.01,2013-12-18 10:01:00,
2013-12-18 05:02:00,37.0,24.4,30.03,WNW,299,0.0,0.0,60,0.00,,,0.00,0.00,VWS V14.01,2013-12-18 10:02:00,
2013-12-18 05:03:00,37.0,24.4,30.03,WNW,299,0.0,0.0,60,0.00,,,0.00,0.00,VWS V14.01,2013-12-18 10:03:00,
2013-12-18 05:04:00,37.0,24.4,30.03,WNW,285,3.0,4.0,60,0.00,,,0.00,0.00,VWS V14.01,2013-12-18 10:04:00,
2013-12-18 05:05:00,36.9,24.3,30.03,WNW,285,0.0,3.0,60,0.00,,,0.00,0.00,VWS V14.01,2013-12-18 10:05:00,
2013-12-18 05:06:00,36.9,24.3,30.03,WNW,285,0.0,0.0,60,0.00,,,0.00,0.00,VWS V14.01,2013-12-18 10:06:00,
2013-12-18 05:07:00,36.9,24.3,30.03,WNW,285,0.0,0.0,60,0.00,,,0.00,0.00,VWS V14.01,2013-12-18 10:07:00,
2013-12-18 05:08:00,36.9,24.3,30.03,WNW,285,4.0,4.0,60,0.00,,,0.00,0.00,VWS V14.01,2013-12-18 10:08:00,
2013-12-18 05:09:00,36.9,24.3,30.03,WNW,285,1.0,4.0,60,0.00,,,0.00,0.00,VWS V14.01,2013-12-18 10:09:00,
2013-12-18 05:10:00,36.9,24.3,30.03,NNW,333,2.0,4.0,60,0.00,,,0.00,0.00,VWS V14.01,2013-12-18 10:10:00,
2013-12-18 05:11:00,36.9,24.3,30.03,NNW,333,0.0,4.0,60,0.00,,,0.00,0.00,VWS V14.01,2013-12-18 10:11:00,
2013-12-18 05:12:00,36.9,24.3,30.03,NNW,329,0.0,0.0,60,0.00,,,0.00,0.00,VWS V14.01,2013-12-18 10:12:00,
2013-12-18 05:13:00,36.8,23.8,30.03,NNW,329,0.0,0.0,59,0.00,,,0.00,0.00,VWS V14.01,2013-12-18 10:13:00,
2013-12-18 05:14:00,36.8,23.8,30.03,NNW,328,0.0,0.0,59,0.00,,,0.00,0.00,VWS V14.01,2013-12-18 10:14:00,
2013-12-18 05:15:00,36.8,23.8,30.04,NNW,328,0.0,0.0,59,0.00,,,0.00,0.00,VWS V14.01,2013-12-18 10:15:00,
2013-12-18 05:16:00,36.8,23.8,30.04,NNW,328,0.0,0.0,59,0.00,,,0.00,0.00,VWS V14.01,2013-12-18 10:16:00,
2013-12-18 05:17:00,36.8,24.2,30.04,NNW,328,0.0,3.0,60,0.00,,,0.00,0.00,VWS V14.01,2013-12-18 10:17:00,
2013-12-18 05:18:00,36.8,24.2,30.04,NNW,328,0.0,0.0,60,0.00,,,0.00,0.00,VWS V14.01,2013-12-18 10:18:00,
2013-12-18 05:19:00,36.6,24.0,30.04,NNW,328,0.0,0.0,60,0.00,,,0.00,0.00,VWS V14.01,2013-12-18 10:19:00,
2013-12-18 05:20:00,36.6,24.0,30.04,NNW,328,0.0,0.0,60,0.00,,,0.00,0.00,VWS V14.01,2013-12-18 10:20:00,
2013-12-18 05:21:00,36.5,24.0,30.04,NNW,328,0.0,0.0,60,0.00,,,0.00,0.00,VWS V14.01,2013-12-18 10:21:00,
2013-12-18 05:22:00,36.5,24.3,30.04,NNW,328,0.0,0.0,61,0.00,,,0.00,0.00,VWS V14.01,2013-12-18 10:22:00,
2013-12-18 05:23:00,36.5,24.3,30.04,NNW,328,0.0,0.0,61,0.00,,,0.00,0.00,VWS V14.01,2013-12-18 10:23:00,
2013-12-18 05:24:00,36.3,24.1,30.04,NNW,328,0.0,0.0,61,0.00,,,0.00,0.00,VWS V14.01,2013-12-18 10:24:00,
2013-12-18 05:25:00,36.3,24.1,30.04,NNW,328,0.0,0.0,61,0.00,,,0.00,0.00,VWS V14.01,2013-12-18 10:25:00,
2013-12-18 05:26:00,36.2,24.1,30.04,NNW,328,0.0,0.0,61,0.00,,,0.00,0.00,VWS V14.01,2013-12-18 10:26:00,
2013-12-18 05:27:00,36.0,24.3,30.04,NNW,328,0.0,0.0,62,0.00,,,0.00,0.00,VWS V14.01,2013-12-18 10:27:00,
2013-12-18 05:28:00,36.0,24.3,30.04,NNW,328,0.0,0.0,62,0.00,,,0.00,0.00,VWS V14.01,2013-12-18 10:28:00,
2013-12-18 05:29:00,35.9,24.2,30.04,NNW,328,0.0,0.0,62,0.00,,,0.00,0.00,VWS V14.01,2013-12-18 10:29:00,
2013-12-18 05:30:00,35.9,24.5,30.05,NNW,328,0.0,0.0,63,0.00,,,0.00,0.00,VWS V14.01,2013-12-18 10:30:00,
2013-12-18 05:31:00,35.8,24.5,30.05,NNW,328,0.0,0.0,63,0.00,,,0.00,0.00,VWS V14.01,2013-12-18 10:31:00,
2013-12-18 05:32:00,35.6,24.3,30.05,NNW,328,0.0,0.0,63,0.00,,,0.00,0.00,VWS V14.01,2013-12-18 10:32:00,
2013-12-18 05:33:00,35.5,24.2,30.05,NNW,328,0.0,0.0,63,0.00,,,0.00,0.00,VWS V14.01,2013-12-18 10:33:00,
2013-12-18 05:34:00,35.5,24.5,30.05,NNW,328,0.0,0.0,64,0.00,,,0.00,0.00,VWS V14.01,2013-12-18 10:34:00,
2013-12-18 05:35:00,35.3,24.4,30.05,NNW,328,0.0,0.0,64,0.00,,,0.00,0.00,VWS V14.01,2013-12-18 10:35:00,
2013-12-18 05:36:00,35.3,24.4,30.05,NNW,328,0.0,0.0,64,0.00,,,0.00,0.00,VWS V14.01,2013-12-18 10:36:00,
2013-12-18 05:37:00,35.2,24.3,30.05,NNW,328,0.0,0.0,64,0.00,,,0.00,0.00,VWS V14.01,2013-12-18 10:37:00,
2013-12-18 05:38:00,35.0,24.1,30.05,NNW,328,0.0,0.0,64,0.00,,,0.00,0.00,VWS V14.01,2013-12-18 10:38:00,
2013-12-18 05:39:00,34.9,24.0,30.05,NNW,328,0.0,0.0,64,0.00,,,0.00,0.00,VWS V14.01,2013-12-18 10:39:00,
2013-12-18 05:40:00,34.9,24.0,30.05,NW,317,2.0,3.0,64,0.00,,,0.00,0.00,VWS V14.01,2013-12-18 10:40:00,
2013-12-18 05:41:00,34.7,23.8,30.05,NW,316,2.0,3.0,64,0.00,,,0.00,0.00,VWS V14.01,2013-12-18 10:41:00,
2013-12-18 05:42:00,34.7,23.8,30.05,NW,316,0.0,0.0,64,0.00,,,0.00,0.00,VWS V14.01,2013-12-18 10:42:00,
2013-12-18 05:43:00,34.6,23.7,30.05,NW,316,0.0,0.0,64,0.00,,,0.00,0.00,VWS V14.01,2013-12-18 10:43:00,
2013-12-18 05:44:00,34.6,23.7,30.05,NW,314,2.0,4.0,64,0.00,,,0.00,0.00,VWS V14.01,2013-12-18 10:44:00,
2013-12-18 05:45:00,34.4,23.5,30.06,NW,308,1.0,3.0,64,0.00,,,0.00,0.00,VWS V14.01,2013-12-18 10:45:00,
2013-12-18 05:46:00,34.4,23.5,30.06,NW,308,0.0,0.0,64,0.00,,,0.00,0.00,VWS V14.01,2013-12-18 10:46:00,
2013-12-18 05:47:00,34.4,23.5,30.06,NW,308,0.0,0.0,64,0.00,,,0.00,0.00,VWS V14.01,2013-12-18 10:47:00,
2013-12-18 05:48:00,34.3,23.4,30.06,NW,308,0.0,0.0,64,0.00,,,0.00,0.00,VWS V14.01,2013-12-18 10:48:00,
2013-12-18 05:49:00,34.3,23.4,30.06,NW,308,0.0,0.0,64,0.00,,,0.00,0.00,VWS V14.01,2013-12-18 10:49:00,
2013-12-18 05:50:00,34.3,23.4,30.06,NW,308,0.0,0.0,64,0.00,,,0.00,0.00,VWS V14.01,2013-12-18 10:50:00,
2013-12-18 05:51:00,34.1,23.2,30.06,NW,308,0.0,0.0,64,0.00,,,0.00,0.00,VWS V14.01,2013-12-18 10:51:00,
2013-12-18 05:52:00,34.1,23.2,30.06,NW,308,0.0,0.0,64,0.00,,,0.00,0.00,VWS V14.01,2013-12-18 10:52:00,
2013-12-18 05:53:00,34.1,23.2,30.06,NW,308,0.0,0.0,64,0.00,,,0.00,0.00,VWS V14.01,2013-12-18 10:53:00,
2013-12-18 05:54:00,34.1,23.2,30.06,NW,308,0.0,0.0,64,0.00,,,0.00,0.00,VWS V14.01,2013-12-18 10:54:00,
2013-12-18 05:55:00,34.0,23.1,30.06,NW,308,0.0,0.0,64,0.00,,,0.00,0.00,VWS V14.01,2013-12-18 10:55:00,
2013-12-18 05:56:00,34.0,23.1,30.06,NW,308,0.0,0.0,64,0.00,,,0.00,0.00,VWS V14.01,2013-12-18 10:56:00,
2013-12-18 05:57:00,34.0,23.5,30.06,NW,308,0.0,0.0,65,0.00,,,0.00,0.00,VWS V14.01,2013-12-18 10:57:00,
2013-12-18 05:58:00,34.0,23.5,30.06,NW,308,0.0,0.0,65,0.00,,,0.00,0.00,VWS V14.01,2013-12-18 10:58:00,
2013-12-18 05:59:00,33.8,23.3,30.06,NW,308,0.0,0.0,65,0.00,,,0.00,0.00,VWS V14.01,2013-12-18 10:59:00,
2013-12-18 06:00:00,33.8,23.7,30.07,NW,308,0.0,0.0,66,0.00,,,0.00,0.00,VWS V14.01,2013-12-18 11:00:00,
2013-12-18 06:01:00,33.8,23.7,30.07,NW,308,0.0,0.0,66,0.00,,,0.00,0.00,VWS V14.01,2013-12-18 11:01:00,
2013-12-18 06:02:00,33.7,23.6,30.07,NW,308,0.0,0.0,66,0.00,,,0.00,0.00,VWS V14.01,2013-12-18 11:02:00,
2013-12-18 06:03:00,33.7,23.6,30.07,NW,308,0.0,0.0,66,0.00,,,0.00,0.00,VWS V14.01,2013-12-18 11:03:00,
2013-12-18 06:04:00,33.7,23.6,30.07,NW,308,0.0,0.0,66,0.00,,,0.00,0.00,VWS V14.01,2013-12-18 11:04:00,
2013-12-18 06:05:00,33.5,23.4,30.07,NW,308,0.0,0.0,66,0.00,,,0.00,0.00,VWS V14.01,2013-12-18 11:05:00,
2013-12-18 06:06:00,33.5,23.4,30.07,NW,308,0.0,0.0,66,0.00,,,0.00,0.00,VWS V14.01,2013-12-18 11:06:00,
2013-12-18 06:07:00,33.5,23.4,30.07,NW,308,0.0,0.0,66,0.00,,,0.00,0.00,VWS V14.01,2013-12-18 11:07:00,
2013-12-18 06:08:00,33.4,23.3,30.07,NW,308,0.0,2.0,66,0.00,,,0.00,0.00,VWS V14.01,2013-12-18 11:08:00,
2013-12-18 06:09:00,33.4,23.3,30.07,NW,308,0.0,0.0,66,0.00,,,0.00,0.00,VWS V14.01,2013-12-18 11:09:00,
2013-12-18 06:10:00,33.4,23.3,30.07,NW,308,0.0,1.0,66,0.00,,,0.00,0.00,VWS V14.01,2013-12-18 11:10:00,
2013-12-18 06:11:00,33.2,23.1,30.07,NW,308,0.0,0.0,66,0.00,,,0.00,0.00,VWS V14.01,2013-12-18 11:11:00,
2013-12-18 06:12:00,33.2,23.1,30.07,NW,308,0.0,0.0,66,0.00,,,0.00,0.00,VWS V14.01,2013-12-18 11:12:00,
2013-12-18 06:13:00,33.2,23.1,30.07,NW,308,0.0,2.0,66,0.00,,,0.00,0.00,VWS V14.01,2013-12-18 11:13:00,
2013-12-18 06:14:00,33.1,23.0,30.07,NW,308,0.0,0.0,66,0.00,,,0.00,0.00,VWS V14.01,2013-12-18 11:14:00,
2013-12-18 06:15:00,33.1,23.0,30.08,NW,308,0.0,0.0,66,0.00,,,0.00,0.00,VWS V14.01,2013-12-18 11:15:00,
2013-12-18 06:16:00,33.1,23.0,30.08,NW,308,0.0,0.0,66,0.00,,,0.00,0.00,VWS V14.01,2013-12-18 11:16:00,
2013-12-18 06:17:00,33.1,23.0,30.08,NW,308,0.0,0.0,66,0.00,,,0.00,0.00,VWS V14.01,2013-12-18 11:17:00,
2013-12-18 06:18:00,32.9,22.8,30.08,NW,308,0.0,0.0,66,0.00,,,0.00,0.00,VWS V14.01,2013-12-18 11:18:00,
2013-12-18 06:19:00,32.9,22.8,30.08,NW,308,0.0,0.0,66,0.00,,,0.00,0.00,VWS V14.01,2013-12-18 11:19:00,
2013-12-18 06:20:00,32.8,23.1,30.08,NW,308,0.0,0.0,67,0.00,,,0.00,0.00,VWS V14.01,2013-12-18 11:20:00,
2013-12-18 06:21:00,32.8,23.1,30.08,NW,308,0.0,0.0,67,0.00,,,0.00,0.00,VWS V14.01,2013-12-18 11:21:00,
2013-12-18 06:22:00,32.8,23.4,30.08,NW,308,0.0,0.0,68,0.00,,,0.00,0.00,VWS V14.01,2013-12-18 11:22:00,
2013-12-18 06:23:00,32.7,23.3,30.08,NW,308,0.0,0.0,68,0.00,,,0.00,0.00,VWS V14.01,2013-12-18 11:23:00,
2013-12-18 06:24:00,32.7,23.3,30.08,NW,308,0.0,1.0,68,0.00,,,0.00,0.00,VWS V14.01,2013-12-18 11:24:00,
2013-12-18 06:25:00,32.5,23.5,30.08,NW,308,0.0,0.0,69,0.00,,,0.00,0.00,VWS V14.01,2013-12-18 11:25:00,
2013-12-18 06:26:00,32.5,23.5,30.08,NW,308,0.0,0.0,69,0.00,,,0.00,0.00,VWS V14.01,2013-12-18 11:26:00,
2013-12-18 06:27:00,32.5,23.5,30.08,NW,308,2.0,2.0,69,0.00,,,0.00,0.00,VWS V14.01,2013-12-18 11:27:00,
2013-12-18 06:28:00,32.5,23.5,30.08,NW,308,2.0,2.0,69,0.00,,,0.00,0.00,VWS V14.01,2013-12-18 11:28:00,
2013-12-18 06:29:00,32.5,23.5,30.08,WNW,288,0.0,2.0,69,0.00,,,0.00,0.00,VWS V14.01,2013-12-18 11:29:00,
2013-12-18 06:30:00,32.2,22.8,30.08,WNW,285,3.0,4.0,68,0.00,,,0.00,0.00,VWS V14.01,2013-12-18 11:30:00,
2013-12-18 06:31:00,32.2,22.8,30.08,WNW,285,0.0,3.0,68,0.00,,,0.00,0.00,VWS V14.01,2013-12-18 11:31:00,
2013-12-18 06:32:00,32.2,22.8,30.08,WNW,285,0.0,0.0,68,0.00,,,0.00,0.00,VWS V14.01,2013-12-18 11:32:00,
2013-12-18 06:33:00,32.2,22.5,30.08,WNW,285,1.0,3.0,67,0.00,,,0.00,0.00,VWS V14.01,2013-12-18 11:33:00,
2013-12-18 06:34:00,32.2,22.5,30.08,WNW,285,0.0,1.0,67,0.00,,,0.00,0.00,VWS V14.01,2013-12-18 11:34:00,
2013-12-18 06:35:00,32.2,22.5,30.08,WNW,285,0.0,0.0,67,0.00,,,0.00,0.00,VWS V14.01,2013-12-18 11:35:00,
2013-12-18 06:36:00,32.4,22.7,30.08,WNW,285,0.0,2.0,67,0.00,,,0.00,0.00,VWS V14.01,2013-12-18 11:36:00,
2013-12-18 06:37:00,32.4,22.7,30.08,WNW,285,0.0,0.0,67,0.00,,,0.00,0.00,VWS V14.01,2013-12-18 11:37:00,
2013-12-18 06:38:00,32.4,22.7,30.08,WNW,285,2.0,3.0,67,0.00,,,0.00,0.00,VWS V14.01,2013-12-18 11:38:00,
2013-12-18 06:39:00,32.4,22.7,30.08,WNW,285,0.0,0.0,67,0.00,,,0.00,0.00,VWS V14.01,2013-12-18 11:39:00,
2013-12-18 06:40:00,32.4,22.3,30.08,WNW,285,0.0,0.0,66,0.00,,,0.00,0.00,VWS V14.01,2013-12-18 11:40:00,
2013-12-18 06:41:00,32.4,22.3,30.08,WNW,285,0.0,0.0,66,0.00,,,0.00,0.00,VWS V14.01,2013-12-18 11:41:00,
2013-12-18 06:42:00,32.4,22.3,30.08,WNW,285,0.0,0.0,66,0.00,,,0.00,0.00,VWS V14.01,2013-12-18 11:42:00,
2013-12-18 06:43:00,32.4,22.3,30.08,WNW,285,0.0,0.0,66,0.00,,,0.00,0.00,VWS V14.01,2013-12-18 11:43:00,
2013-12-18 06:44:00,32.4,22.3,30.08,WNW,285,0.0,0.0,66,0.00,,,0.00,0.00,VWS V14.01,2013-12-18 11:44:00,
2013-12-18 06:45:00,32.5,22.8,30.09,WNW,285,0.0,0.0,67,0.00,,,0.00,0.00,VWS V14.01,2013-12-18 11:45:00,
2013-12-18 06:46:00,32.5,23.5,30.09,WNW,285,0.0,0.0,69,0.00,,,0.00,0.00,VWS V14.01,2013-12-18 11:46:00,
2013-12-18 06:47:00,32.5,23.8,30.09,WNW,285,0.0,0.0,70,0.00,,,0.00,0.00,VWS V14.01,2013-12-18 11:47:00,
2013-12-18 06:48:00,32.5,24.2,30.09,WNW,285,0.0,0.0,71,0.00,,,0.00,0.00,VWS V14.01,2013-12-18 11:48:00,
2013-12-18 06:49:00,32.5,24.5,30.09,WNW,285,0.0,0.0,72,0.00,,,0.00,0.00,VWS V14.01,2013-12-18 11:49:00,
2013-12-18 06:50:00,32.5,24.8,30.09,WNW,285,0.0,0.0,73,0.00,,,0.00,0.00,VWS V14.01,2013-12-18 11:50:00,
2013-12-18 06:51:00,32.5,25.1,30.09,WNW,285,0.0,0.0,74,0.00,,,0.00,0.00,VWS V14.01,2013-12-18 11:51:00,
2013-12-18 06:52:00,32.5,25.1,30.09,WNW,285,0.0,0.0,74,0.00,,,0.00,0.00,VWS V14.01,2013-12-18 11:52:00,
2013-12-18 06:53:00,32.5,25.5,30.09,WNW,285,0.0,0.0,75,0.00,,,0.00,0.00,VWS V14.01,2013-12-18 11:53:00,
2013-12-18 06:54:00,32.4,25.7,30.09,WNW,285,0.0,2.0,76,0.00,,,0.00,0.00,VWS V14.01,2013-12-18 11:54:00,
2013-12-18 06:55:00,32.4,25.7,30.09,WNW,285,2.0,3.0,76,0.00,,,0.00,0.00,VWS V14.01,2013-12-18 11:55:00,
2013-12-18 06:56:00,32.4,25.7,30.09,WNW,285,2.0,4.0,76,0.00,,,0.00,0.00,VWS V14.01,2013-12-18 11:56:00,
2013-12-18 06:57:00,32.2,25.5,30.09,WNW,285,0.0,3.0,76,0.00,,,0.00,0.00,VWS V14.01,2013-12-18 11:57:00,
2013-12-18 06:58:00,32.2,25.2,30.09,WNW,285,3.0,3.0,75,0.00,,,0.00,0.00,VWS V14.01,2013-12-18 11:58:00,
2013-12-18 06:59:00,32.1,24.8,30.09,WNW,285,0.0,4.0,74,0.00,,,0.00,0.00,VWS V14.01,2013-12-18 11:59:00,
2013-12-18 07:00:00,32.1,24.4,30.09,WNW,285,3.0,3.0,73,0.00,,,0.00,0.00,VWS V14.01,2013-12-18 12:00:00,
2013-12-18 07:01:00,32.1,24.1,30.09,WNW,285,3.0,3.0,72,0.00,,,0.00,0.00,VWS V14.01,2013-12-18 12:01:00,
2013-12-18 07:02:00,31.9,23.6,30.09,WNW,285,0.0,2.0,71,0.00,,,0.00,0.00,VWS V14.01,2013-12-18 12:02:00,
2013-12-18 07:03:00,31.9,23.6,30.09,NNW,331,3.0,3.0,71,0.00,,,0.00,0.00,VWS V14.01,2013-12-18 12:03:00,
2013-12-18 07:04:00,31.9,23.2,30.09,North,356,2.0,6.0,70,0.00,,,0.00,0.00,VWS V14.01,2013-12-18 12:04:00,
2013-12-18 07:05:00,31.9,22.9,30.09,North,356,0.0,3.0,69,0.00,,,0.00,0.00,VWS V14.01,2013-12-18 12:05:00,
2013-12-18 07:06:00,31.9,22.5,30.09,North,356,0.0,0.0,68,0.00,,,0.00,0.00,VWS V14.01,2013-12-18 12:06:00,
2013-12-18 07:07:00,31.9,22.5,30.09,North,356,0.0,0.0,68,0.00,,,0.00,0.00,VWS V14.01,2013-12-18 12:07:00,
2013-12-18 07:08:00,31.9,22.5,30.09,North,356,0.0,0.0,68,0.00,,,0.00,0.00,VWS V14.01,2013-12-18 12:08:00,
2013-12-18 07:09:00,31.9,22.5,30.09,North,356,0.0,0.0,68,0.00,,,0.00,5.00,VWS V14.01,2013-12-18 12:09:00,
2013-12-18 07:10:00,31.9,22.9,30.09,North,356,0.0,0.0,69,0.00,,,0.00,5.00,VWS V14.01,2013-12-18 12:10:00,
2013-12-18 07:11:00,31.9,22.9,30.09,North,356,0.0,0.0,69,0.00,,,0.00,5.00,VWS V14.01,2013-12-18 12:11:00,
2013-12-18 07:12:00,31.9,23.2,30.09,North,356,0.0,0.0,70,0.00,,,0.00,5.00,VWS V14.01,2013-12-18 12:12:00,
2013-12-18 07:13:00,31.8,23.1,30.09,North,356,0.0,0.0,70,0.00,,,0.00,5.00,VWS V14.01,2013-12-18 12:13:00,
2013-12-18 07:14:00,31.8,23.1,30.09,North,356,0.0,0.0,70,0.00,,,0.00,5.00,VWS V14.01,2013-12-18 12:14:00,
2013-12-18 07:15:00,31.8,23.5,30.11,North,356,0.0,0.0,71,0.00,,,0.00,7.00,VWS V14.01,2013-12-18 12:15:00,
2013-12-18 07:16:00,31.8,23.5,30.11,North,356,0.0,0.0,71,0.00,,,0.00,7.00,VWS V14.01,2013-12-18 12:16:00,
2013-12-18 07:17:00,31.8,23.5,30.11,North,356,0.0,0.0,71,0.00,,,0.00,7.00,VWS V14.01,2013-12-18 12:17:00,
2013-12-18 07:18:00,31.6,23.3,30.11,North,356,0.0,0.0,71,0.00,,,0.00,7.00,VWS V14.01,2013-12-18 12:18:00,
2013-12-18 07:19:00,31.6,23.6,30.11,North,356,0.0,0.0,72,0.00,,,0.00,7.00,VWS V14.01,2013-12-18 12:19:00,
2013-12-18 07:20:00,31.6,23.6,30.11,North,356,0.0,0.0,72,0.00,,,0.00,9.00,VWS V14.01,2013-12-18 12:20:00,
2013-12-18 07:21:00,31.5,23.5,30.11,North,356,0.0,0.0,72,0.00,,,0.00,9.00,VWS V14.01,2013-12-18 12:21:00,
2013-12-18 07:22:00,31.5,23.5,30.11,North,356,0.0,0.0,72,0.00,,,0.00,9.00,VWS V14.01,2013-12-18 12:22:00,
2013-12-18 07:23:00,31.5,23.5,30.11,North,356,0.0,0.0,72,0.00,,,0.00,9.00,VWS V14.01,2013-12-18 12:23:00,
2013-12-18 07:24:00,31.3,23.3,30.11,North,356,0.0,0.0,72,0.00,,,0.00,9.00,VWS V14.01,2013-12-18 12:24:00,
2013-12-18 07:25:00,31.3,23.7,30.11,North,356,0.0,0.0,73,0.00,,,0.00,9.00,VWS V14.01,2013-12-18 12:25:00,
2013-12-18 07:26:00,31.3,24.0,30.11,North,356,0.0,0.0,74,0.00,,,0.00,11.00,VWS V14.01,2013-12-18 12:26:00,
2013-12-18 07:27:00,31.2,23.9,30.11,North,356,0.0,0.0,74,0.00,,,0.00,11.00,VWS V14.01,2013-12-18 12:27:00,
2013-12-18 07:28:00,31.2,24.2,30.11,North,356,0.0,0.0,75,0.00,,,0.00,11.00,VWS V14.01,2013-12-18 12:28:00,
2013-12-18 07:29:00,31.2,24.2,30.11,North,356,0.0,0.0,75,0.00,,,0.00,11.00,VWS V14.01,2013-12-18 12:29:00,
2013-12-18 07:30:00,31.2,24.2,30.11,North,356,0.0,0.0,75,0.00,,,0.00,11.00,VWS V14.01,2013-12-18 12:30:00,
2013-12-18 07:31:00,31.0,24.3,30.11,North,356,0.0,0.0,76,0.00,,,0.00,11.00,VWS V14.01,2013-12-18 12:31:00,
2013-12-18 07:32:00,31.0,24.3,30.11,North,356,0.0,0.0,76,0.00,,,0.00,12.00,VWS V14.01,2013-12-18 12:32:00,
2013-12-18 07:33:00,31.0,24.3,30.11,North,356,0.0,0.0,76,0.00,,,0.00,12.00,VWS V14.01,2013-12-18 12:33:00,
2013-12-18 07:34:00,30.9,24.2,30.11,North,356,0.0,0.0,76,0.00,,,0.00,12.00,VWS V14.01,2013-12-18 12:34:00,
2013-12-18 07:35:00,30.9,24.2,30.11,North,356,0.0,0.0,76,0.00,,,0.00,12.00,VWS V14.01,2013-12-18 12:35:00,
2013-12-18 07:36:00,30.9,24.5,30.11,North,356,0.0,0.0,77,0.00,,,0.00,12.00,VWS V14.01,2013-12-18 12:36:00,
2013-12-18 07:37:00,30.7,24.4,30.11,North,356,0.0,0.0,77,0.00,,,0.00,12.00,VWS V14.01,2013-12-18 12:37:00,
2013-12-18 07:38:00,30.7,24.4,30.11,North,356,0.0,0.0,77,0.00,,,0.00,14.00,VWS V14.01,2013-12-18 12:38:00,
2013-12-18 07:39:00,30.7,24.4,30.11,North,356,0.0,0.0,77,0.00,,,0.00,14.00,VWS V14.01,2013-12-18 12:39:00,
2013-12-18 07:40:00,30.6,24.3,30.11,North,356,0.0,0.0,77,0.00,,,0.00,14.00,VWS V14.01,2013-12-18 12:40:00,
2013-12-18 07:41:00,30.6,24.6,30.11,North,356,0.0,0.0,78,0.00,,,0.00,16.00,VWS V14.01,2013-12-18 12:41:00,
2013-12-18 07:42:00,30.6,24.6,30.11,North,356,0.0,0.0,78,0.00,,,0.00,16.00,VWS V14.01,2013-12-18 12:42:00,
2013-12-18 07:43:00,30.4,24.4,30.11,North,356,0.0,0.0,78,0.00,,,0.00,18.00,VWS V14.01,2013-12-18 12:43:00,
2013-12-18 07:44:00,30.4,24.4,30.11,North,356,0.0,0.0,78,0.00,,,0.00,18.00,VWS V14.01,2013-12-18 12:44:00,
2013-12-18 07:45:00,30.4,24.4,30.12,North,356,0.0,0.0,78,0.00,,,0.00,18.00,VWS V14.01,2013-12-18 12:45:00,
2013-12-18 07:46:00,30.4,24.4,30.12,North,356,0.0,0.0,78,0.00,,,0.00,18.00,VWS V14.01,2013-12-18 12:46:00,
2013-12-18 07:47:00,30.3,24.3,30.12,North,356,0.0,0.0,78,0.00,,,0.00,18.00,VWS V14.01,2013-12-18 12:47:00,
2013-12-18 07:48:00,30.3,24.3,30.12,North,356,0.0,0.0,78,0.00,,,0.00,18.00,VWS V14.01,2013-12-18 12:48:00,
2013-12-18 07:49:00,30.3,24.3,30.12,North,356,0.0,0.0,78,0.00,,,0.00,19.00,VWS V14.01,2013-12-18 12:49:00,
2013-12-18 07:50:00,30.3,24.6,30.12,North,356,0.0,0.0,79,0.00,,,0.00,19.00,VWS V14.01,2013-12-18 12:50:00,
2013-12-18 07:51:00,30.3,24.6,30.12,North,356,0.0,0.0,79,0.00,,,0.00,19.00,VWS V14.01,2013-12-18 12:51:00,
2013-12-18 07:52:00,30.3,24.6,30.12,North,356,0.0,0.0,79,0.00,,,0.00,19.00,VWS V14.01,2013-12-18 12:52:00,
2013-12-18 07:53:00,30.3,24.6,30.12,North,356,0.0,0.0,79,0.00,,,0.00,19.00,VWS V14.01,2013-12-18 12:53:00,
2013-12-18 07:54:00,30.4,24.7,30.12,North,356,0.0,0.0,79,0.00,,,0.00,25.00,VWS V14.01,2013-12-18 12:54:00,
2013-12-18 07:55:00,30.4,25.0,30.12,North,356,0.0,0.0,80,0.00,,,0.00,47.00,VWS V14.01,2013-12-18 12:55:00,
2013-12-18 07:56:00,30.6,25.2,30.12,North,356,0.0,0.0,80,0.00,,,0.00,72.00,VWS V14.01,2013-12-18 12:56:00,
2013-12-18 07:57:00,30.6,25.2,30.12,North,356,0.0,0.0,80,0.00,,,0.00,109.00,VWS V14.01,2013-12-18 12:57:00,
2013-12-18 07:58:00,30.7,25.6,30.12,North,356,0.0,0.0,81,0.00,,,0.00,120.00,VWS V14.01,2013-12-18 12:58:00,
2013-12-18 07:59:00,30.9,25.8,30.12,North,356,0.0,0.0,81,0.00,,,0.00,121.00,VWS V14.01,2013-12-18 12:59:00,
2013-12-18 08:00:00,30.9,26.1,30.14,North,356,0.0,0.0,82,0.00,,,0.00,123.00,VWS V14.01,2013-12-18 13:00:00,
2013-12-18 08:01:00,31.0,26.2,30.14,North,356,0.0,0.0,82,0.00,,,0.00,127.00,VWS V14.01,2013-12-18 13:01:00,
2013-12-18 08:02:00,31.3,26.8,30.14,North,356,0.0,0.0,83,0.00,,,0.00,128.00,VWS V14.01,2013-12-18 13:02:00,
2013-12-18 08:03:00,31.5,26.9,30.14,North,356,0.0,0.0,83,0.00,,,0.00,132.00,VWS V14.01,2013-12-18 13:03:00,
2013-12-18 08:04:00,31.8,27.5,30.14,North,356,0.0,0.0,84,0.00,,,0.00,134.00,VWS V14.01,2013-12-18 13:04:00,
2013-12-18 08:05:00,31.9,27.6,30.14,North,356,0.0,0.0,84,0.00,,,0.00,135.00,VWS V14.01,2013-12-18 13:05:00,
2013-12-18 08:06:00,32.1,27.8,30.14,North,356,0.0,0.0,84,0.00,,,0.00,137.00,VWS V14.01,2013-12-18 13:06:00,
2013-12-18 08:07:00,32.2,27.9,30.14,North,356,0.0,0.0,84,0.00,,,0.00,141.00,VWS V14.01,2013-12-18 13:07:00,
2013-12-18 08:08:00,32.4,28.1,30.14,North,356,0.0,0.0,84,0.00,,,0.00,141.00,VWS V14.01,2013-12-18 13:08:00,
2013-12-18 08:09:00,32.7,28.4,30.14,North,356,0.0,0.0,84,0.00,,,0.00,141.00,VWS V14.01,2013-12-18 13:09:00,
2013-12-18 08:10:00,32.8,28.5,30.14,North,356,0.0,0.0,84,0.00,,,0.00,142.00,VWS V14.01,2013-12-18 13:10:00,
2013-12-18 08:11:00,32.9,28.6,30.14,North,356,0.0,1.0,84,0.00,,,0.00,144.00,VWS V14.01,2013-12-18 13:11:00,
2013-12-18 08:12:00,33.1,28.5,30.14,North,356,0.0,0.0,83,0.00,,,0.00,146.00,VWS V14.01,2013-12-18 13:12:00,
2013-12-18 08:13:00,33.2,28.3,30.14,NNW,332,3.0,3.0,82,0.00,,,0.00,148.00,VWS V14.01,2013-12-18 13:13:00,
2013-12-18 08:14:00,33.4,28.2,30.14,NNW,347,2.0,3.0,81,0.00,,,0.00,149.00,VWS V14.01,2013-12-18 13:14:00,
2013-12-18 08:15:00,33.5,28.0,30.14,NNW,345,3.0,3.0,80,0.00,,,0.00,153.00,VWS V14.01,2013-12-18 13:15:00,
2013-12-18 08:16:00,33.5,27.4,30.14,NNW,346,0.0,4.0,78,0.00,,,0.00,155.00,VWS V14.01,2013-12-18 13:16:00,
2013-12-18 08:17:00,33.7,27.0,30.14,NNW,346,0.0,1.0,76,0.00,,,0.00,158.00,VWS V14.01,2013-12-18 13:17:00,
2013-12-18 08:18:00,33.8,26.1,30.14,NNW,346,0.0,0.0,73,0.00,,,0.00,160.00,VWS V14.01,2013-12-18 13:18:00,
2013-12-18 08:19:00,34.0,25.9,30.14,NW,309,3.0,3.0,72,0.00,,,0.00,165.00,VWS V14.01,2013-12-18 13:19:00,
2013-12-18 08:20:00,34.3,25.9,30.14,NW,324,0.0,0.0,71,0.00,,,0.00,167.00,VWS V14.01,2013-12-18 13:20:00,
2013-12-18 08:21:00,34.6,25.8,30.14,NW,325,0.0,0.0,70,0.00,,,0.00,169.00,VWS V14.01,2013-12-18 13:21:00,
2013-12-18 08:22:00,34.9,25.4,30.14,NW,326,0.0,0.0,68,0.00,,,0.00,172.00,VWS V14.01,2013-12-18 13:22:00,
2013-12-18 08:23:00,35.2,25.4,30.14,NW,321,0.0,4.0,67,0.00,,,0.00,174.00,VWS V14.01,2013-12-18 13:23:00,
2013-12-18 08:24:00,35.5,25.3,30.14,NW,319,0.0,3.0,66,0.00,,,0.00,179.00,VWS V14.01,2013-12-18 13:24:00,
2013-12-18 08:25:00,35.8,24.8,30.14,NW,319,0.0,0.0,64,0.00,,,0.00,181.00,VWS V14.01,2013-12-18 13:25:00,
2013-12-18 08:26:00,35.9,24.9,30.14,NW,321,0.0,5.0,64,0.00,,,0.00,183.00,VWS V14.01,2013-12-18 13:26:00,
2013-12-18 08:27:00,36.0,24.6,30.14,NW,321,0.0,0.0,63,0.00,,,0.00,186.00,VWS V14.01,2013-12-18 13:27:00,
2013-12-18 08:28:00,36.3,24.5,30.14,NNW,345,0.0,3.0,62,0.00,,,0.00,188.00,VWS V14.01,2013-12-18 13:28:00,
2013-12-18 08:29:00,36.5,24.3,30.14,NW,320,0.0,5.0,61,0.00,,,0.00,193.00,VWS V14.01,2013-12-18 13:29:00,
2013-12-18 08:30:00,36.6,24.4,30.14,NW,320,0.0,0.0,61,0.00,,,0.00,195.00,VWS V14.01,2013-12-18 13:30:00,
2013-12-18 08:31:00,36.8,24.6,30.14,NW,320,0.0,0.0,61,0.00,,,0.00,197.00,VWS V14.01,2013-12-18 13:31:00,
2013-12-18 08:32:00,36.9,24.3,30.14,NNW,341,0.0,6.0,60,0.00,,,0.00,200.00,VWS V14.01,2013-12-18 13:32:00,
2013-12-18 08:33:00,37.0,24.0,30.14,NNW,341,0.0,0.0,59,0.00,,,0.00,202.00,VWS V14.01,2013-12-18 13:33:00,
2013-12-18 08:34:00,37.3,23.9,30.14,North,358,0.0,2.0,58,0.00,,,0.00,204.00,VWS V14.01,2013-12-18 13:34:00,
2013-12-18 08:35:00,37.5,23.7,30.14,NW,314,7.0,8.0,57,0.00,,,0.00,207.00,VWS V14.01,2013-12-18 13:35:00,
2013-12-18 08:36:00,37.6,23.3,30.14,NW,314,4.0,8.0,56,0.00,,,0.00,213.00,VWS V14.01,2013-12-18 13:36:00,
2013-12-18 08:37:00,37.8,23.1,30.14,North,352,2.0,6.0,55,0.00,,,0.00,214.00,VWS V14.01,2013-12-18 13:37:00,
2013-12-18 08:38:00,37.8,23.1,30.14,NNW,342,0.0,1.0,55,0.00,,,0.00,216.00,VWS V14.01,2013-12-18 13:38:00,
2013-12-18 08:39:00,37.9,23.2,30.14,North,358,0.0,5.0,55,0.00,,,0.00,220.00,VWS V14.01,2013-12-18 13:39:00,
2013-12-18 08:40:00,38.0,23.3,30.14,North,358,1.0,4.0,55,0.00,,,0.00,221.00,VWS V14.01,2013-12-18 13:40:00,
2013-12-18 08:41:00,38.0,22.9,30.14,NNW,340,0.0,4.0,54,0.00,,,0.00,223.00,VWS V14.01,2013-12-18 13:41:00,
2013-12-18 08:42:00,38.2,23.0,30.14,NNW,329,0.0,3.0,54,0.00,,,0.00,229.00,VWS V14.01,2013-12-18 13:42:00,
2013-12-18 08:43:00,38.3,23.1,30.14,NNW,332,1.0,5.0,54,0.00,,,0.00,230.00,VWS V14.01,2013-12-18 13:43:00,
2013-12-18 08:44:00,38.5,22.9,30.14,NW,314,1.0,2.0,53,0.00,,,0.00,232.00,VWS V14.01,2013-12-18 13:44:00,
2013-12-18 08:45:00,38.6,23.4,30.15,West,274,0.0,4.0,54,0.00,,,0.00,236.00,VWS V14.01,2013-12-18 13:45:00,
2013-12-18 08:46:00,38.8,22.7,30.15,West,274,0.0,0.0,52,0.00,,,0.00,237.00,VWS V14.01,2013-12-18 13:46:00,
2013-12-18 08:47:00,38.9,22.8,30.15,NW,307,6.0,7.0,52,0.00,,,0.00,239.00,VWS V14.01,2013-12-18 13:47:00,
2013-12-18 08:48:00,39.1,23.0,30.15,NW,305,0.0,5.0,52,0.00,,,0.00,244.00,VWS V14.01,2013-12-18 13:48:00,
2013-12-18 08:49:00,39.2,23.1,30.15,West,275,0.0,5.0,52,0.00,,,0.00,246.00,VWS V14.01,2013-12-18 13:49:00,
2013-12-18 08:50:00,39.2,22.6,30.15,North,351,4.0,4.0,51,0.00,,,0.00,250.00,VWS V14.01,2013-12-18 13:50:00,
2013-12-18 08:51:00,39.3,22.7,30.15,NNW,327,3.0,4.0,51,0.00,,,0.00,251.00,VWS V14.01,2013-12-18 13:51:00,
2013-12-18 08:52:00,39.5,22.9,30.15,NNW,331,0.0,1.0,51,0.00,,,0.00,255.00,VWS V14.01,2013-12-18 13:52:00,
2013-12-18 08:53:00,39.6,23.0,30.15,NNW,331,0.0,0.0,51,0.00,,,0.00,258.00,VWS V14.01,2013-12-18 13:53:00,
2013-12-18 08:54:00,39.8,22.7,30.15,North,358,2.0,3.0,50,0.00,,,0.00,262.00,VWS V14.01,2013-12-18 13:54:00,
2013-12-18 08:55:00,39.9,23.3,30.15,North,352,0.0,2.0,51,0.00,,,0.00,264.00,VWS V14.01,2013-12-18 13:55:00,
2013-12-18 08:56:00,40.1,23.0,30.15,NNE,30,2.0,2.0,50,0.00,,,0.00,265.00,VWS V14.01,2013-12-18 13:56:00,
2013-12-18 08:57:00,40.2,23.1,30.15,North,355,0.0,6.0,50,0.00,,,0.00,269.00,VWS V14.01,2013-12-18 13:57:00,
2013-12-18 08:58:00,40.2,22.6,30.15,NW,316,5.0,5.0,49,0.00,,,0.00,272.00,VWS V14.01,2013-12-18 13:58:00,
2013-12-18 08:59:00,40.3,22.2,30.15,NW,314,6.0,13.0,48,0.00,,,0.00,276.00,VWS V14.01,2013-12-18 13:59:00,
2013-12-18 09:00:00,40.5,22.4,30.15,WNW,298,3.0,7.0,48,0.00,,,0.00,278.00,VWS V14.01,2013-12-18 14:00:00,
2013-12-18 09:01:00,40.5,21.9,30.15,North,3,10.0,10.0,47,0.00,,,0.00,279.00,VWS V14.01,2013-12-18 14:01:00,
2013-12-18 09:02:00,40.5,21.9,30.15,North,349,5.0,9.0,47,0.00,,,0.00,281.00,VWS V14.01,2013-12-18 14:02:00,
2013-12-18 09:03:00,40.6,22.5,30.15,North,350,0.0,4.0,48,0.00,,,0.00,285.00,VWS V14.01,2013-12-18 14:03:00,
2013-12-18 09:04:00,40.8,22.1,30.15,North,0,10.0,10.0,47,0.00,,,0.00,287.00,VWS V14.01,2013-12-18 14:04:00,
2013-12-18 09:05:00,40.8,21.6,30.15,North,351,4.0,8.0,46,0.00,,,0.00,290.00,VWS V14.01,2013-12-18 14:05:00,
2013-12-18 09:06:00,40.9,21.7,30.15,NNW,335,10.0,10.0,46,0.00,,,0.00,294.00,VWS V14.01,2013-12-18 14:06:00,
2013-12-18 09:07:00,40.9,21.2,30.15,North,5,10.0,11.0,45,0.00,,,0.00,295.00,VWS V14.01,2013-12-18 14:07:00,
2013-12-18 09:08:00,41.1,21.4,30.15,NW,306,0.0,11.0,45,0.00,,,0.00,297.00,VWS V14.01,2013-12-18 14:08:00,
2013-12-18 09:09:00,41.2,22.0,30.15,North,0,1.0,4.0,46,0.00,,,0.00,299.00,VWS V14.01,2013-12-18 14:09:00,
2013-12-18 09:10:00,41.2,21.5,30.15,NNE,29,0.0,4.0,45,0.00,,,0.00,301.00,VWS V14.01,2013-12-18 14:10:00,
2013-12-18 09:11:00,41.3,21.6,30.15,NNW,329,0.0,6.0,45,0.00,,,0.00,306.00,VWS V14.01,2013-12-18 14:11:00,
2013-12-18 09:12:00,41.3,21.6,30.15,North,352,0.0,3.0,45,0.00,,,0.00,309.00,VWS V14.01,2013-12-18 14:12:00,
2013-12-18 09:13:00,41.5,21.8,30.15,NNE,13,4.0,10.0,45,0.00,,,0.00,309.00,VWS V14.01,2013-12-18 14:13:00,
2013-12-18 09:14:00,41.6,21.9,30.15,NNW,331,6.0,9.0,45,0.00,,,0.00,313.00,VWS V14.01,2013-12-18 14:14:00,
2013-12-18 09:15:00,41.8,21.0,30.16,North,3,0.0,7.0,43,0.00,,,0.00,315.00,VWS V14.01,2013-12-18 14:15:00,
2013-12-18 09:16:00,41.9,21.6,30.16,NNE,15,2.0,2.0,44,0.00,,,0.00,316.00,VWS V14.01,2013-12-18 14:16:00,
2013-12-18 09:17:00,41.9,21.6,30.16,NNW,331,3.0,5.0,44,0.00,,,0.00,322.00,VWS V14.01,2013-12-18 14:17:00,
2013-12-18 09:18:00,42.1,21.8,30.16,NW,317,0.0,3.0,44,0.00,,,0.00,323.00,VWS V14.01,2013-12-18 14:18:00,
2013-12-18 09:19:00,42.1,21.2,30.16,WNW,297,11.0,11.0,43,0.00,,,0.00,325.00,VWS V14.01,2013-12-18 14:19:00,
2013-12-18 09:20:00,42.1,20.7,30.16,NNE,17,4.0,14.0,42,0.00,,,0.00,327.00,VWS V14.01,2013-12-18 14:20:00,
2013-12-18 09:21:00,42.1,21.2,30.16,North,1,0.0,2.0,43,0.00,,,0.00,330.00,VWS V14.01,2013-12-18 14:21:00,
2013-12-18 09:22:00,42.1,20.7,30.16,NNW,340,3.0,7.0,42,0.00,,,0.00,332.00,VWS V14.01,2013-12-18 14:22:00,
2013-12-18 09:23:00,42.2,20.8,30.16,NW,316,5.0,6.0,42,0.00,,,0.00,336.00,VWS V14.01,2013-12-18 14:23:00,
2013-12-18 09:24:00,42.2,21.3,30.16,West,264,3.0,9.0,43,0.00,,,0.00,339.00,VWS V14.01,2013-12-18 14:24:00,
2013-12-18 09:25:00,42.2,20.8,30.16,NNW,337,3.0,6.0,42,0.00,,,0.00,341.00,VWS V14.01,2013-12-18 14:25:00,
2013-12-18 09:26:00,42.3,20.9,30.16,NW,317,6.0,7.0,42,0.00,,,0.00,343.00,VWS V14.01,2013-12-18 14:26:00,
2013-12-18 09:27:00,42.3,20.9,30.16,NW,326,11.0,11.0,42,0.00,,,0.00,345.00,VWS V14.01,2013-12-18 14:27:00,
2013-12-18 09:28:00,42.3,20.9,30.16,NW,308,5.0,12.0,42,0.00,,,0.00,346.00,VWS V14.01,2013-12-18 14:28:00,
2013-12-18 09:29:00,42.3,20.9,30.16,West,281,3.0,7.0,42,0.00,,,0.00,350.00,VWS V14.01,2013-12-18 14:29:00,
2013-12-18 09:30:00,42.5,21.0,30.16,West,274,4.0,10.0,42,0.00,,,0.00,353.00,VWS V14.01,2013-12-18 14:30:00,
2013-12-18 09:31:00,42.5,20.5,30.16,North,358,0.0,3.0,41,0.00,,,0.00,355.00,VWS V14.01,2013-12-18 14:31:00,
2013-12-18 09:32:00,42.5,21.0,30.16,NNW,343,3.0,11.0,42,0.00,,,0.00,357.00,VWS V14.01,2013-12-18 14:32:00,
2013-12-18 09:33:00,42.6,21.1,30.16,NNW,338,3.0,6.0,42,0.00,,,0.00,359.00,VWS V14.01,2013-12-18 14:33:00,
2013-12-18 09:34:00,42.6,21.1,30.16,North,0,4.0,10.0,42,0.00,,,0.00,360.00,VWS V14.01,2013-12-18 14:34:00,
2013-12-18 09:35:00,42.8,21.3,30.16,NW,308,0.0,9.0,42,0.00,,,0.00,364.00,VWS V14.01,2013-12-18 14:35:00,
2013-12-18 09:36:00,42.8,21.3,30.16,WNW,290,4.0,4.0,42,0.00,,,0.00,366.00,VWS V14.01,2013-12-18 14:36:00,
2013-12-18 09:37:00,42.8,21.9,30.16,WNW,297,0.0,7.0,43,0.00,,,0.00,369.00,VWS V14.01,2013-12-18 14:37:00,
2013-12-18 09:38:00,42.9,20.8,30.16,WNW,297,0.0,1.0,41,0.00,,,0.00,371.00,VWS V14.01,2013-12-18 14:38:00,
2013-12-18 09:39:00,42.9,21.4,30.16,NW,312,0.0,0.0,42,0.00,,,0.00,373.00,VWS V14.01,2013-12-18 14:39:00,
2013-12-18 09:40:00,43.1,21.0,30.16,NW,312,0.0,0.0,41,0.00,,,0.00,374.00,VWS V14.01,2013-12-18 14:40:00,
2013-12-18 09:41:00,43.1,21.0,30.16,West,262,0.0,5.0,41,0.00,,,0.00,380.00,VWS V14.01,2013-12-18 14:41:00,
2013-12-18 09:42:00,43.2,21.1,30.16,NNW,340,4.0,5.0,41,0.00,,,0.00,381.00,VWS V14.01,2013-12-18 14:42:00,
2013-12-18 09:43:00,43.3,21.2,30.16,NNW,347,0.0,8.0,41,0.00,,,0.00,383.00,VWS V14.01,2013-12-18 14:43:00,
2013-12-18 09:44:00,43.5,21.4,30.16,WNW,285,5.0,14.0,41,0.00,,,0.00,385.00,VWS V14.01,2013-12-18 14:44:00,
2013-12-18 09:45:00,43.5,20.2,30.17,NW,325,3.0,11.0,39,0.00,,,0.00,388.00,VWS V14.01,2013-12-18 14:45:00,
2013-12-18 09:46:00,43.5,20.2,30.17,NW,325,0.0,0.0,39,0.00,,,0.00,392.00,VWS V14.01,2013-12-18 14:46:00,
2013-12-18 09:47:00,43.6,20.9,30.17,NW,323,3.0,3.0,40,0.00,,,0.00,394.00,VWS V14.01,2013-12-18 14:47:00,
2013-12-18 09:48:00,43.6,20.9,30.17,North,356,4.0,4.0,40,0.00,,,0.00,396.00,VWS V14.01,2013-12-18 14:48:00,
2013-12-18 09:49:00,43.6,20.9,30.17,WNW,295,5.0,9.0,40,0.00,,,0.00,397.00,VWS V14.01,2013-12-18 14:49:00,
2013-12-18 09:50:00,43.6,20.9,30.17,WNW,300,5.0,6.0,40,0.00,,,0.00,399.00,VWS V14.01,2013-12-18 14:50:00,
2013-12-18 09:51:00,43.8,20.5,30.17,WNW,283,7.0,9.0,39,0.00,,,0.00,401.00,VWS V14.01,2013-12-18 14:51:00,
2013-12-18 09:52:00,43.8,20.5,30.17,WNW,295,9.0,9.0,39,0.00,,,0.00,406.00,VWS V14.01,2013-12-18 14:52:00,
2013-12-18 09:53:00,43.8,21.1,30.17,North,354,0.0,13.0,40,0.00,,,0.00,408.00,VWS V14.01,2013-12-18 14:53:00,
2013-12-18 09:54:00,43.8,21.1,30.17,North,356,5.0,7.0,40,0.00,,,0.00,410.00,VWS V14.01,2013-12-18 14:54:00,
2013-12-18 09:55:00,43.8,21.1,30.17,West,267,6.0,6.0,40,0.00,,,0.00,411.00,VWS V14.01,2013-12-18 14:55:00,
2013-12-18 09:56:00,43.9,21.2,30.17,North,5,4.0,6.0,40,0.00,,,0.00,411.00,VWS V14.01,2013-12-18 14:56:00,
2013-12-18 09:57:00,43.9,21.2,30.17,West,278,2.0,5.0,40,0.00,,,0.00,415.00,VWS V14.01,2013-12-18 14:57:00,
2013-12-18 09:58:00,43.9,20.6,30.17,North,11,5.0,9.0,39,0.00,,,0.00,418.00,VWS V14.01,2013-12-18 14:58:00,
2013-12-18 09:59:00,43.9,20.0,30.17,NNW,330,9.0,9.0,38,0.00,,,0.00,420.00,VWS V14.01,2013-12-18 14:59:00,
2013-12-18 10:00:00,43.9,20.6,30.17,North,10,11.0,14.0,39,0.00,,,0.00,422.00,VWS V14.01,2013-12-18 15:00:00,
2013-12-18 10:01:00,43.8,19.9,30.17,West,281,7.0,10.0,38,0.00,,,0.00,424.00,VWS V14.01,2013-12-18 15:01:00,
2013-12-18 10:02:00,43.8,20.5,30.17,North,358,7.0,11.0,39,0.00,,,0.00,425.00,VWS V14.01,2013-12-18 15:02:00,
2013-12-18 10:03:00,43.8,20.5,30.17,North,5,4.0,9.0,39,0.00,,,0.00,429.00,VWS V14.01,2013-12-18 15:03:00,
2013-12-18 10:04:00,43.8,20.5,30.17,North,0,2.0,9.0,39,0.00,,,0.00,429.00,VWS V14.01,2013-12-18 15:04:00,
2013-12-18 10:05:00,43.8,20.5,30.17,NNE,27,0.0,9.0,39,0.00,,,0.00,432.00,VWS V14.01,2013-12-18 15:05:00,
2013-12-18 10:06:00,43.8,20.5,30.17,North,352,4.0,12.0,39,0.00,,,0.00,434.00,VWS V14.01,2013-12-18 15:06:00,
2013-12-18 10:07:00,43.9,21.2,30.17,North,0,4.0,11.0,40,0.00,,,0.00,436.00,VWS V14.01,2013-12-18 15:07:00,
2013-12-18 10:08:00,43.9,20.6,30.17,NNW,327,8.0,10.0,39,0.00,,,0.00,436.00,VWS V14.01,2013-12-18 15:08:00,
2013-12-18 10:09:00,43.9,20.6,30.17,North,0,4.0,6.0,39,0.00,,,0.00,438.00,VWS V14.01,2013-12-18 15:09:00,
2013-12-18 10:10:00,43.9,20.6,30.17,North,355,4.0,7.0,39,0.00,,,0.00,441.00,VWS V14.01,2013-12-18 15:10:00,
2013-12-18 10:11:00,44.1,21.3,30.17,North,354,6.0,6.0,40,0.00,,,0.00,443.00,VWS V14.01,2013-12-18 15:11:00,
2013-12-18 10:12:00,44.1,20.7,30.17,North,356,12.0,12.0,39,0.00,,,0.00,445.00,VWS V14.01,2013-12-18 15:12:00,
2013-12-18 10:13:00,44.1,20.1,30.17,NNW,332,6.0,10.0,38,0.00,,,0.00,446.00,VWS V14.01,2013-12-18 15:13:00,
2013-12-18 10:14:00,44.1,20.7,30.17,NNW,342,8.0,8.0,39,0.00,,,0.00,446.00,VWS V14.01,2013-12-18 15:14:00,
2013-12-18 10:15:00,44.2,20.8,30.16,WNW,300,7.0,11.0,39,0.00,,,0.00,450.00,VWS V14.01,2013-12-18 15:15:00,
2013-12-18 10:16:00,44.2,19.6,30.16,NW,311,4.0,8.0,37,0.00,,,0.00,452.00,VWS V14.01,2013-12-18 15:16:00,
2013-12-18 10:17:00,44.3,19.7,30.16,WNW,303,4.0,4.0,37,0.00,,,0.00,454.00,VWS V14.01,2013-12-18 15:17:00,
2013-12-18 10:18:00,44.3,19.7,30.16,NW,315,4.0,5.0,37,0.00,,,0.00,455.00,VWS V14.01,2013-12-18 15:18:00,
2013-12-18 10:19:00,44.3,19.7,30.16,West,268,10.0,10.0,37,0.00,,,0.00,459.00,VWS V14.01,2013-12-18 15:19:00,
2013-12-18 10:20:00,44.5,20.5,30.16,WNW,284,0.0,9.0,38,0.00,,,0.00,461.00,VWS V14.01,2013-12-18 15:20:00,
2013-12-18 10:21:00,44.5,19.9,30.16,NW,305,5.0,10.0,37,0.00,,,0.00,462.00,VWS V14.01,2013-12-18 15:21:00,
2013-12-18 10:22:00,44.6,20.0,30.16,NW,305,0.0,7.0,37,0.00,,,0.00,464.00,VWS V14.01,2013-12-18 15:22:00,
2013-12-18 10:23:00,44.8,20.8,30.16,NNW,335,4.0,4.0,38,0.00,,,0.00,466.00,VWS V14.01,2013-12-18 15:23:00,
2013-12-18 10:24:00,44.9,21.5,30.16,West,281,6.0,6.0,39,0.00,,,0.00,466.00,VWS V14.01,2013-12-18 15:24:00,
2013-12-18 10:25:00,44.9,20.9,30.16,WNW,288,8.0,10.0,38,0.00,,,0.00,468.00,VWS V14.01,2013-12-18 15:25:00,
2013-12-18 10:26:00,44.9,19.6,30.16,NW,316,0.0,7.0,36,0.00,,,0.00,469.00,VWS V14.01,2013-12-18 15:26:00,
2013-12-18 10:27:00,45.1,20.4,30.16,NNW,339,0.0,10.0,37,0.00,,,0.00,475.00,VWS V14.01,2013-12-18 15:27:00,
2013-12-18 10:28:00,45.1,19.8,30.16,NW,323,0.0,6.0,36,0.00,,,0.00,475.00,VWS V14.01,2013-12-18 15:28:00,
2013-12-18 10:29:00,45.1,19.1,30.16,North,0,6.0,6.0,35,0.00,,,0.00,476.00,VWS V14.01,2013-12-18 15:29:00,
2013-12-18 10:30:00,45.2,20.5,30.16,NNW,340,0.0,10.0,37,0.00,,,0.00,476.00,VWS V14.01,2013-12-18 15:30:00,
2013-12-18 10:31:00,45.2,19.9,30.16,NNW,340,7.0,7.0,36,0.00,,,0.00,478.00,VWS V14.01,2013-12-18 15:31:00,
2013-12-18 10:32:00,45.2,19.9,30.16,NW,326,4.0,5.0,36,0.00,,,0.00,480.00,VWS V14.01,2013-12-18 15:32:00,
2013-12-18 10:33:00,45.4,20.0,30.16,NW,309,5.0,10.0,36,0.00,,,0.00,483.00,VWS V14.01,2013-12-18 15:33:00,
2013-12-18 10:34:00,45.4,20.0,30.16,NNW,330,9.0,12.0,36,0.00,,,0.00,483.00,VWS V14.01,2013-12-18 15:34:00,
2013-12-18 10:35:00,45.2,18.5,30.16,North,7,1.0,11.0,34,0.00,,,0.00,487.00,VWS V14.01,2013-12-18 15:35:00,
2013-12-18 10:36:00,45.2,19.2,30.16,NW,319,9.0,10.0,35,0.00,,,0.00,489.00,VWS V14.01,2013-12-18 15:36:00,
2013-12-18 10:37:00,45.2,18.5,30.16,North,354,13.0,13.0,34,0.00,,,0.00,489.00,VWS V14.01,2013-12-18 15:37:00,
2013-12-18 10:38:00,45.2,18.5,30.16,NNW,328,4.0,13.0,34,0.00,,,0.00,490.00,VWS V14.01,2013-12-18 15:38:00,
2013-12-18 10:39:00,45.2,17.8,30.16,NNW,335,4.0,7.0,33,0.00,,,0.00,492.00,VWS V14.01,2013-12-18 15:39:00,
2013-12-18 10:40:00,45.2,18.5,30.16,North,358,2.0,6.0,34,0.00,,,0.00,494.00,VWS V14.01,2013-12-18 15:40:00,
2013-12-18 10:41:00,45.2,19.2,30.16,North,9,6.0,6.0,35,0.00,,,0.00,494.00,VWS V14.01,2013-12-18 15:41:00,
2013-12-18 10:42:00,45.2,19.2,30.16,NW,308,0.0,6.0,35,0.00,,,0.00,497.00,VWS V14.01,2013-12-18 15:42:00,
2013-12-18 10:43:00,45.2,19.2,30.16,WNW,292,0.0,3.0,35,0.00,,,0.00,499.00,VWS V14.01,2013-12-18 15:43:00,
2013-12-18 10:44:00,45.4,19.4,30.16,NW,312,11.0,11.0,35,0.00,,,0.00,497.00,VWS V14.01,2013-12-18 15:44:00,
2013-12-18 10:45:00,45.4,19.4,30.17,NNW,347,11.0,11.0,35,0.00,,,0.00,503.00,VWS V14.01,2013-12-18 15:45:00,
2013-12-18 10:46:00,45.4,18.7,30.17,WNW,295,4.0,11.0,34,0.00,,,0.00,504.00,VWS V14.01,2013-12-18 15:46:00,
2013-12-18 10:47:00,45.4,18.7,30.17,SW,231,1.0,7.0,34,0.00,,,0.00,504.00,VWS V14.01,2013-12-18 15:47:00,
2013-12-18 10:48:00,45.4,18.7,30.17,North,352,6.0,9.0,34,0.00,,,0.00,504.00,VWS V14.01,2013-12-18 15:48:00,
2013-12-18 10:49:00,45.4,18.0,30.17,NW,310,2.0,11.0,33,0.00,,,0.00,506.00,VWS V14.01,2013-12-18 15:49:00,
2013-12-18 10:50:00,45.4,18.7,30.17,West,278,4.0,9.0,34,0.00,,,0.00,506.00,VWS V14.01,2013-12-18 15:50:00,
2013-12-18 10:51:00,45.5,19.5,30.17,NW,324,13.0,13.0,35,0.00,,,0.00,510.00,VWS V14.01,2013-12-18 15:51:00,
2013-12-18 10:52:00,45.5,18.1,30.17,NW,321,5.0,13.0,33,0.00,,,0.00,512.00,VWS V14.01,2013-12-18 15:52:00,
2013-12-18 10:53:00,45.5,18.8,30.17,NW,322,9.0,12.0,34,0.00,,,0.00,512.00,VWS V14.01,2013-12-18 15:53:00,
2013-12-18 10:54:00,45.5,18.1,30.17,NNW,337,10.0,11.0,33,0.00,,,0.00,513.00,VWS V14.01,2013-12-18 15:54:00,
2013-12-18 10:55:00,45.5,18.1,30.17,NW,311,4.0,15.0,33,0.00,,,0.00,515.00,VWS V14.01,2013-12-18 15:55:00,
2013-12-18 10:56:00,45.4,18.0,30.17,North,351,14.0,14.0,33,0.00,,,0.00,517.00,VWS V14.01,2013-12-18 15:56:00,
2013-12-18 10:57:00,45.4,18.0,30.17,North,0,8.0,14.0,33,0.00,,,0.00,519.00,VWS V14.01,2013-12-18 15:57:00,
2013-12-18 10:58:00,45.4,18.0,30.17,North,356,7.0,8.0,33,0.00,,,0.00,519.00,VWS V14.01,2013-12-18 15:58:00,
2013-12-18 10:59:00,45.4,18.0,30.17,NW,312,0.0,9.0,33,0.00,,,0.00,519.00,VWS V14.01,2013-12-18 15:59:00,
2013-12-18 11:00:00,45.4,18.0,30.17,North,1,3.0,9.0,33,0.00,,,0.00,519.00,VWS V14.01,2013-12-18 16:00:00,
2013-12-18 11:01:00,45.4,18.7,30.17,NW,308,3.0,5.0,34,0.00,,,0.00,522.00,VWS V14.01,2013-12-18 16:01:00,
2013-12-18 11:02:00,45.4,19.4,30.17,WNW,303,5.0,8.0,35,0.00,,,0.00,522.00,VWS V14.01,2013-12-18 16:02:00,
2013-12-18 11:03:00,45.5,18.8,30.17,NW,314,4.0,7.0,34,0.00,,,0.00,522.00,VWS V14.01,2013-12-18 16:03:00,
2013-12-18 11:04:00,45.5,18.8,30.17,North,1,12.0,12.0,34,0.00,,,0.00,526.00,VWS V14.01,2013-12-18 16:04:00,
2013-12-18 11:05:00,45.5,19.5,30.17,NW,323,7.0,13.0,35,0.00,,,0.00,526.00,VWS V14.01,2013-12-18 16:05:00,
2013-12-18 11:06:00,45.7,19.6,30.17,WNW,295,7.0,11.0,35,0.00,,,0.00,527.00,VWS V14.01,2013-12-18 16:06:00,
2013-12-18 11:07:00,45.7,18.3,30.17,WNW,292,5.0,10.0,33,0.00,,,0.00,529.00,VWS V14.01,2013-12-18 16:07:00,
2013-12-18 11:08:00,45.7,19.0,30.17,WNW,292,1.0,11.0,34,0.00,,,0.00,531.00,VWS V14.01,2013-12-18 16:08:00,
2013-12-18 11:09:00,45.7,19.0,30.17,West,271,6.0,10.0,34,0.00,,,0.00,531.00,VWS V14.01,2013-12-18 16:09:00,
2013-12-18 11:10:00,45.7,19.0,30.17,West,276,6.0,7.0,34,0.00,,,0.00,531.00,VWS V14.01,2013-12-18 16:10:00,
2013-12-18 11:11:00,45.7,19.6,30.17,West,276,0.0,7.0,35,0.00,,,0.00,534.00,VWS V14.01,2013-12-18 16:11:00,
2013-12-18 11:12:00,45.8,19.0,30.17,NNW,346,2.0,4.0,34,0.00,,,0.00,533.00,VWS V14.01,2013-12-18 16:12:00,
2013-12-18 11:13:00,45.8,19.7,30.17,WNW,297,0.0,6.0,35,0.00,,,0.00,534.00,VWS V14.01,2013-12-18 16:13:00,
2013-12-18 11:14:00,46.0,18.5,30.17,WNW,287,4.0,4.0,33,0.00,,,0.00,538.00,VWS V14.01,2013-12-18 16:14:00,
2013-12-18 11:15:00,46.0,19.2,30.17,WNW,301,5.0,10.0,34,0.00,,,0.00,540.00,VWS V14.01,2013-12-18 16:15:00,
2013-12-18 11:16:00,46.1,19.3,30.17,NW,323,10.0,10.0,34,0.00,,,0.00,540.00,VWS V14.01,2013-12-18 16:16:00,
2013-12-18 11:17:00,46.1,19.3,30.17,West,273,3.0,10.0,34,0.00,,,0.00,541.00,VWS V14.01,2013-12-18 16:17:00,
2013-12-18 11:18:00,46.1,19.3,30.17,WNW,303,4.0,9.0,34,0.00,,,0.00,540.00,VWS V14.01,2013-12-18 16:18:00,
2013-12-18 11:19:00,46.1,19.3,30.17,West,259,3.0,4.0,34,0.00,,,0.00,541.00,VWS V14.01,2013-12-18 16:19:00,
2013-12-18 11:20:00,46.1,18.6,30.17,WNW,301,5.0,10.0,33,0.00,,,0.00,543.00,VWS V14.01,2013-12-18 16:20:00,
2013-12-18 11:21:00,46.2,18.7,30.17,WNW,290,4.0,12.0,33,0.00,,,0.00,545.00,VWS V14.01,2013-12-18 16:21:00,
2013-12-18 11:22:00,46.2,18.0,30.17,NNW,330,7.0,7.0,32,0.00,,,0.00,545.00,VWS V14.01,2013-12-18 16:22:00,
2013-12-18 11:23:00,46.2,18.7,30.17,West,271,9.0,9.0,33,0.00,,,0.00,545.00,VWS V14.01,2013-12-18 16:23:00,
2013-12-18 11:24:00,46.2,19.4,30.17,WNW,284,6.0,10.0,34,0.00,,,0.00,547.00,VWS V14.01,2013-12-18 16:24:00,
2013-12-18 11:25:00,46.2,18.7,30.17,WNW,285,2.0,9.0,33,0.00,,,0.00,547.00,VWS V14.01,2013-12-18 16:25:00,
2013-12-18 11:26:00,46.4,19.6,30.17,NNW,348,9.0,10.0,34,0.00,,,0.00,547.00,VWS V14.01,2013-12-18 16:26:00,
2013-12-18 11:27:00,46.4,18.9,30.17,NW,304,9.0,11.0,33,0.00,,,0.00,548.00,VWS V14.01,2013-12-18 16:27:00,
2013-12-18 11:28:00,46.4,18.2,30.17,North,353,6.0,11.0,32,0.00,,,0.00,548.00,VWS V14.01,2013-12-18 16:28:00,
2013-12-18 11:29:00,46.4,18.9,30.17,West,278,9.0,9.0,33,0.00,,,0.00,548.00,VWS V14.01,2013-12-18 16:29:00,
2013-12-18 11:30:00,46.5,19.0,30.16,WNW,290,6.0,7.0,33,0.00,,,0.00,550.00,VWS V14.01,2013-12-18 16:30:00,
2013-12-18 11:31:00,46.5,19.0,30.16,NW,308,5.0,13.0,33,0.00,,,0.00,550.00,VWS V14.01,2013-12-18 16:31:00,
2013-12-18 11:32:00,46.5,19.0,30.16,North,4,4.0,4.0,33,0.00,,,0.00,552.00,VWS V14.01,2013-12-18 16:32:00,
2013-12-18 11:33:00,46.7,19.1,30.16,North,358,4.0,9.0,33,0.00,,,0.00,550.00,VWS V14.01,2013-12-18 16:33:00,
2013-12-18 11:34:00,46.7,19.1,30.16,WNW,291,0.0,4.0,33,0.00,,,0.00,552.00,VWS V14.01,2013-12-18 16:34:00,
2013-12-18 11:35:00,46.7,18.4,30.16,NNE,20,6.0,9.0,32,0.00,,,0.00,554.00,VWS V14.01,2013-12-18 16:35:00,
2013-12-18 11:36:00,46.7,17.7,30.16,NNE,30,6.0,7.0,31,0.00,,,0.00,554.00,VWS V14.01,2013-12-18 16:36:00,
2013-12-18 11:37:00,46.7,18.4,30.16,North,358,4.0,8.0,32,0.00,,,0.00,554.00,VWS V14.01,2013-12-18 16:37:00,
2013-12-18 11:38:00,46.5,17.5,30.16,North,354,11.0,11.0,31,0.00,,,0.00,555.00,VWS V14.01,2013-12-18 16:38:00,
2013-12-18 11:39:00,46.7,19.1,30.16,NNE,13,0.0,10.0,33,0.00,,,0.00,555.00,VWS V14.01,2013-12-18 16:39:00,
2013-12-18 11:40:00,46.7,18.4,30.16,West,268,5.0,10.0,32,0.00,,,0.00,555.00,VWS V14.01,2013-12-18 16:40:00,
2013-12-18 11:41:00,46.7,19.8,30.16,North,350,0.0,6.0,34,0.00,,,0.00,555.00,VWS V14.01,2013-12-18 16:41:00,
2013-12-18 11:42:00,46.7,19.1,30.16,WNW,295,6.0,12.0,33,0.00,,,0.00,555.00,VWS V14.01,2013-12-18 16:42:00,
2013-12-18 11:43:00,46.7,19.1,30.16,North,8,4.0,9.0,33,0.00,,,0.00,557.00,VWS V14.01,2013-12-18 16:43:00,
2013-12-18 11:44:00,46.7,17.7,30.16,NNW,330,11.0,11.0,31,0.00,,,0.00,559.00,VWS V14.01,2013-12-18 16:44:00,
2013-12-18 11:45:00,46.5,18.2,30.16,WNW,292,1.0,11.0,32,0.00,,,0.00,559.00,VWS V14.01,2013-12-18 16:45:00,
2013-12-18 11:46:00,46.5,17.5,30.16,North,358,12.0,12.0,31,0.00,,,0.00,557.00,VWS V14.01,2013-12-18 16:46:00,
2013-12-18 11:47:00,46.5,18.2,30.16,NW,319,7.0,12.0,32,0.00,,,0.00,559.00,VWS V14.01,2013-12-18 16:47:00,
2013-12-18 11:48:00,46.4,18.2,30.16,West,276,0.0,7.0,32,0.00,,,0.00,557.00,VWS V14.01,2013-12-18 16:48:00,
2013-12-18 11:49:00,46.5,19.0,30.16,West,280,0.0,3.0,33,0.00,,,0.00,561.00,VWS V14.01,2013-12-18 16:49:00,
2013-12-18 11:50:00,46.5,19.0,30.16,NW,319,11.0,11.0,33,0.00,,,0.00,561.00,VWS V14.01,2013-12-18 16:50:00,
2013-12-18 11:51:00,46.5,19.0,30.16,NW,319,10.0,13.0,33,0.00,,,0.00,561.00,VWS V14.01,2013-12-18 16:51:00,
2013-12-18 11:52:00,46.7,18.4,30.16,WNW,297,5.0,10.0,32,0.00,,,0.00,561.00,VWS V14.01,2013-12-18 16:52:00,
2013-12-18 11:53:00,46.7,18.4,30.16,NNW,333,5.0,8.0,32,0.00,,,0.00,561.00,VWS V14.01,2013-12-18 16:53:00,
2013-12-18 11:54:00,46.7,19.1,30.16,NW,306,5.0,9.0,33,0.00,,,0.00,563.00,VWS V14.01,2013-12-18 16:54:00,
2013-12-18 11:55:00,46.8,19.9,30.16,NNW,348,6.0,8.0,34,0.00,,,0.00,563.00,VWS V14.01,2013-12-18 16:55:00,
2013-12-18 11:56:00,47.0,19.4,30.16,West,272,2.0,7.0,33,0.00,,,0.00,566.00,VWS V14.01,2013-12-18 16:56:00,
2013-12-18 11:57:00,47.0,18.0,30.16,WNW,285,8.0,8.0,31,0.00,,,0.00,561.00,VWS V14.01,2013-12-18 16:57:00,
2013-12-18 11:58:00,47.1,18.0,30.16,WNW,289,12.0,12.0,31,0.00,,,0.00,564.00,VWS V14.01,2013-12-18 16:58:00,
2013-12-18 11:59:00,47.1,18.0,30.16,WNW,291,2.0,13.0,31,0.00,,,0.00,564.00,VWS V14.01,2013-12-18 16:59:00,
2013-12-18 12:00:00,47.1,18.0,30.15,North,1,8.0,8.0,31,0.00,,,0.00,566.00,VWS V14.01,2013-12-18 17:00:00,
2013-12-18 12:01:00,47.1,18.0,30.15,North,358,7.0,8.0,31,0.00,,,0.00,563.00,VWS V14.01,2013-12-18 17:01:00,
2013-12-18 12:02:00,47.3,18.2,30.15,NNW,330,7.0,7.0,31,0.00,,,0.00,563.00,VWS V14.01,2013-12-18 17:02:00,
2013-12-18 12:03:00,47.3,18.2,30.15,North,358,2.0,6.0,31,0.00,,,0.00,564.00,VWS V14.01,2013-12-18 17:03:00,
2013-12-18 12:04:00,47.3,18.2,30.15,North,354,4.0,12.0,31,0.00,,,0.00,566.00,VWS V14.01,2013-12-18 17:04:00,
2013-12-18 12:05:00,47.3,18.2,30.15,NNE,12,4.0,8.0,31,0.00,,,0.00,566.00,VWS V14.01,2013-12-18 17:05:00,
2013-12-18 12:06:00,47.3,18.2,30.15,North,358,4.0,8.0,31,0.00,,,0.00,566.00,VWS V14.01,2013-12-18 17:06:00,
2013-12-18 12:07:00,47.3,18.2,30.15,WNW,296,0.0,4.0,31,0.00,,,0.00,564.00,VWS V14.01,2013-12-18 17:07:00,
2013-12-18 12:08:00,47.3,19.0,30.15,WNW,292,4.0,5.0,32,0.00,,,0.00,564.00,VWS V14.01,2013-12-18 17:08:00,
2013-12-18 12:09:00,47.3,18.2,30.15,WNW,302,1.0,2.0,31,0.00,,,0.00,564.00,VWS V14.01,2013-12-18 17:09:00,
2013-12-18 12:10:00,47.4,19.8,30.15,North,0,1.0,6.0,33,0.00,,,0.00,563.00,VWS V14.01,2013-12-18 17:10:00,
2013-12-18 12:11:00,47.4,19.0,30.15,North,11,10.0,14.0,32,0.00,,,0.00,563.00,VWS V14.01,2013-12-18 17:11:00,
2013-12-18 12:12:00,47.4,18.3,30.15,WNW,303,1.0,11.0,31,0.00,,,0.00,564.00,VWS V14.01,2013-12-18 17:12:00,
2013-12-18 12:13:00,47.6,18.5,30.15,NNE,33,6.0,6.0,31,0.00,,,0.00,564.00,VWS V14.01,2013-12-18 17:13:00,
2013-12-18 12:14:00,47.6,18.5,30.15,North,11,4.0,7.0,31,0.00,,,0.00,564.00,VWS V14.01,2013-12-18 17:14:00,
2013-12-18 12:15:00,47.6,18.5,30.13,North,2,0.0,5.0,31,0.00,,,0.00,564.00,VWS V14.01,2013-12-18 17:15:00,
2013-12-18 12:16:00,47.6,17.7,30.13,North,2,0.0,1.0,30,0.00,,,0.00,564.00,VWS V14.01,2013-12-18 17:16:00,
2013-12-18 12:17:00,47.6,17.7,30.13,North,2,0.0,2.0,30,0.00,,,0.00,564.00,VWS V14.01,2013-12-18 17:17:00,
2013-12-18 12:18:00,47.7,17.8,30.13,WNW,285,2.0,2.0,30,0.00,,,0.00,566.00,VWS V14.01,2013-12-18 17:18:00,
2013-12-18 12:19:00,47.7,18.6,30.13,NNW,347,1.0,5.0,31,0.00,,,0.00,566.00,VWS V14.01,2013-12-18 17:19:00,
2013-12-18 12:20:00,47.7,18.6,30.13,NNW,347,1.0,1.0,31,0.00,,,0.00,566.00,VWS V14.01,2013-12-18 17:20:00,
2013-12-18 12:21:00,48.0,18.1,30.13,North,358,5.0,5.0,30,0.00,,,0.00,563.00,VWS V14.01,2013-12-18 17:21:00,
2013-12-18 12:22:00,48.2,19.0,30.13,West,278,3.0,10.0,31,0.00,,,0.00,563.00,VWS V14.01,2013-12-18 17:22:00,
2013-12-18 12:23:00,48.2,18.2,30.13,North,356,3.0,6.0,30,0.00,,,0.00,564.00,VWS V14.01,2013-12-18 17:23:00,
2013-12-18 12:24:00,48.3,19.1,30.13,NNW,343,6.0,6.0,31,0.00,,,0.00,568.00,VWS V14.01,2013-12-18 17:24:00,
2013-12-18 12:25:00,48.5,18.5,30.13,NW,308,5.0,9.0,30,0.00,,,0.00,564.00,VWS V14.01,2013-12-18 17:25:00,
2013-12-18 12:26:00,48.5,17.7,30.13,North,358,3.0,4.0,29,0.00,,,0.00,564.00,VWS V14.01,2013-12-18 17:26:00,
2013-12-18 12:27:00,48.5,17.7,30.13,NW,314,0.0,5.0,29,0.00,,,0.00,564.00,VWS V14.01,2013-12-18 17:27:00,
2013-12-18 12:28:00,48.6,19.4,30.13,NW,321,6.0,6.0,31,0.00,,,0.00,564.00,VWS V14.01,2013-12-18 17:28:00,
2013-12-18 12:29:00,48.8,18.8,30.13,NW,326,1.0,8.0,30,0.00,,,0.00,563.00,VWS V14.01,2013-12-18 17:29:00,
2013-12-18 12:30:00,48.8,19.5,30.13,NW,317,3.0,11.0,31,0.00,,,0.00,563.00,VWS V14.01,2013-12-18 17:30:00,
2013-12-18 12:31:00,48.9,18.1,30.13,WNW,300,1.0,12.0,29,0.00,,,0.00,561.00,VWS V14.01,2013-12-18 17:31:00,
2013-12-18 12:32:00,48.9,18.9,30.13,WNW,296,1.0,7.0,30,0.00,,,0.00,563.00,VWS V14.01,2013-12-18 17:32:00,
2013-12-18 12:33:00,48.9,18.1,30.13,WNW,297,5.0,5.0,29,0.00,,,0.00,563.00,VWS V14.01,2013-12-18 17:33:00,
2013-12-18 12:34:00,48.9,18.1,30.13,NNW,346,9.0,11.0,29,0.00,,,0.00,563.00,VWS V14.01,2013-12-18 17:34:00,
2013-12-18 12:35:00,48.9,18.1,30.13,NNW,348,7.0,9.0,29,0.00,,,0.00,563.00,VWS V14.01,2013-12-18 17:35:00,
2013-12-18 12:36:00,48.9,18.9,30.13,NNW,331,4.0,10.0,30,0.00,,,0.00,563.00,VWS V14.01,2013-12-18 17:36:00,
2013-12-18 12:37:00,48.9,18.9,30.13,NNW,332,0.0,4.0,30,0.00,,,0.00,563.00,VWS V14.01,2013-12-18 17:37:00,
2013-12-18 12:38:00,48.9,17.2,30.13,NW,319,0.0,3.0,28,0.00,,,0.00,563.00,VWS V14.01,2013-12-18 17:38:00,
2013-12-18 12:39:00,48.9,17.2,30.13,NW,319,0.0,0.0,28,0.00,,,0.00,559.00,VWS V14.01,2013-12-18 17:39:00,
2013-12-18 12:40:00,48.9,18.1,30.13,WNW,288,4.0,9.0,29,0.00,,,0.00,559.00,VWS V14.01,2013-12-18 17:40:00,
2013-12-18 12:41:00,48.9,19.6,30.13,WNW,288,3.0,4.0,31,0.00,,,0.00,561.00,VWS V14.01,2013-12-18 17:41:00,
2013-12-18 12:42:00,48.9,18.9,30.13,WNW,299,5.0,10.0,30,0.00,,,0.00,559.00,VWS V14.01,2013-12-18 17:42:00,
2013-12-18 12:43:00,48.9,18.9,30.13,WNW,295,9.0,10.0,30,0.00,,,0.00,557.00,VWS V14.01,2013-12-18 17:43:00,
2013-12-18 12:44:00,48.9,18.9,30.13,NW,319,7.0,11.0,30,0.00,,,0.00,557.00,VWS V14.01,2013-12-18 17:44:00,
2013-12-18 12:45:00,48.8,16.3,30.12,WNW,300,3.0,5.0,27,0.00,,,0.00,557.00,VWS V14.01,2013-12-18 17:45:00,
2013-12-18 12:46:00,48.8,16.3,30.12,NNE,14,6.0,7.0,27,0.00,,,0.00,557.00,VWS V14.01,2013-12-18 17:46:00,
2013-12-18 12:47:00,48.8,17.2,30.12,North,358,10.0,11.0,28,0.00,,,0.00,555.00,VWS V14.01,2013-12-18 17:47:00,
2013-12-18 12:48:00,48.8,17.2,30.12,NW,310,5.0,8.0,28,0.00,,,0.00,554.00,VWS V14.01,2013-12-18 17:48:00,
2013-12-18 12:49:00,48.8,17.2,30.12,NNW,339,0.0,6.0,28,0.00,,,0.00,554.00,VWS V14.01,2013-12-18 17:49:00,
2013-12-18 12:50:00,48.6,16.1,30.12,NNW,327,4.0,6.0,27,0.00,,,0.00,554.00,VWS V14.01,2013-12-18 17:50:00,
2013-12-18 12:51:00,48.6,17.0,30.12,NNW,329,1.0,2.0,28,0.00,,,0.00,550.00,VWS V14.01,2013-12-18 17:51:00,
2013-12-18 12:52:00,48.6,17.8,30.12,North,351,3.0,5.0,29,0.00,,,0.00,552.00,VWS V14.01,2013-12-18 17:52:00,
2013-12-18 12:53:00,48.6,17.8,30.12,West,271,4.0,7.0,29,0.00,,,0.00,550.00,VWS V14.01,2013-12-18 17:53:00,
2013-12-18 12:54:00,48.8,18.8,30.12,NW,307,4.0,6.0,30,0.00,,,0.00,548.00,VWS V14.01,2013-12-18 17:54:00,
2013-12-18 12:55:00,48.8,18.0,30.12,West,269,6.0,10.0,29,0.00,,,0.00,548.00,VWS V14.01,2013-12-18 17:55:00,
2013-12-18 12:56:00,48.8,18.0,30.12,West,279,5.0,9.0,29,0.00,,,0.00,548.00,VWS V14.01,2013-12-18 17:56:00,
2013-12-18 12:57:00,48.8,18.0,30.12,West,267,5.0,15.0,29,0.00,,,0.00,548.00,VWS V14.01,2013-12-18 17:57:00,
2013-12-18 12:58:00,48.8,18.0,30.12,WSW,248,9.0,10.0,29,0.00,,,0.00,547.00,VWS V14.01,2013-12-18 17:58:00,
2013-12-18 12:59:00,48.8,18.8,30.12,West,281,3.0,11.0,30,0.00,,,0.00,545.00,VWS V14.01,2013-12-18 17:59:00,
2013-12-18 13:00:00,48.8,18.8,30.11,WNW,282,1.0,5.0,30,0.00,,,0.00,545.00,VWS V14.01,2013-12-18 18:00:00,
2013-12-18 13:01:00,48.8,19.5,30.11,West,277,4.0,10.0,31,0.00,,,0.00,543.00,VWS V14.01,2013-12-18 18:01:00,
2013-12-18 13:02:00,48.8,18.8,30.11,WNW,285,2.0,9.0,30,0.00,,,0.00,543.00,VWS V14.01,2013-12-18 18:02:00,
2013-12-18 13:03:00,48.8,19.5,30.11,North,353,2.0,5.0,31,0.00,,,0.00,541.00,VWS V14.01,2013-12-18 18:03:00,
2013-12-18 13:04:00,48.8,19.5,30.11,North,0,6.0,11.0,31,0.00,,,0.00,541.00,VWS V14.01,2013-12-18 18:04:00,
2013-12-18 13:05:00,48.8,17.2,30.11,North,6,6.0,7.0,28,0.00,,,0.00,540.00,VWS V14.01,2013-12-18 18:05:00,
2013-12-18 13:06:00,48.8,17.2,30.11,North,8,1.0,6.0,28,0.00,,,0.00,540.00,VWS V14.01,2013-12-18 18:06:00,
2013-12-18 13:07:00,48.8,18.0,30.11,North,358,10.0,12.0,29,0.00,,,0.00,540.00,VWS V14.01,2013-12-18 18:07:00,
2013-12-18 13:08:00,48.8,18.0,30.11,NW,323,6.0,11.0,29,0.00,,,0.00,540.00,VWS V14.01,2013-12-18 18:08:00,
2013-12-18 13:09:00,48.8,18.0,30.11,NW,315,0.0,5.0,29,0.00,,,0.00,538.00,VWS V14.01,2013-12-18 18:09:00,
2013-12-18 13:10:00,48.8,18.0,30.11,West,263,2.0,4.0,29,0.00,,,0.00,536.00,VWS V14.01,2013-12-18 18:10:00,
2013-12-18 13:11:00,48.8,18.0,30.11,West,262,5.0,10.0,29,0.00,,,0.00,534.00,VWS V14.01,2013-12-18 18:11:00,
2013-12-18 13:12:00,48.9,18.9,30.11,West,259,0.0,5.0,30,0.00,,,0.00,533.00,VWS V14.01,2013-12-18 18:12:00,
2013-12-18 13:13:00,48.9,18.1,30.11,NNE,24,7.0,7.0,29,0.00,,,0.00,531.00,VWS V14.01,2013-12-18 18:13:00,
2013-12-18 13:14:00,49.1,19.0,30.11,NW,323,4.0,9.0,30,0.00,,,0.00,531.00,VWS V14.01,2013-12-18 18:14:00,
2013-12-18 13:15:00,49.1,19.0,30.11,North,11,4.0,4.0,30,0.00,,,0.00,531.00,VWS V14.01,2013-12-18 18:15:00,
2013-12-18 13:16:00,49.1,17.4,30.11,North,1,2.0,7.0,28,0.00,,,0.00,531.00,VWS V14.01,2013-12-18 18:16:00,
2013-12-18 13:17:00,49.2,18.3,30.11,NW,323,0.0,4.0,29,0.00,,,0.00,529.00,VWS V14.01,2013-12-18 18:17:00,
2013-12-18 13:18:00,49.2,20.6,30.11,NE,41,1.0,2.0,32,0.00,,,0.00,527.00,VWS V14.01,2013-12-18 18:18:00,
2013-12-18 13:19:00,49.4,19.3,30.11,NNE,31,0.0,1.0,30,0.00,,,0.00,527.00,VWS V14.01,2013-12-18 18:19:00,
2013-12-18 13:20:00,49.4,17.7,30.11,North,0,1.0,6.0,28,0.00,,,0.00,527.00,VWS V14.01,2013-12-18 18:20:00,
2013-12-18 13:21:00,49.5,16.9,30.11,NNW,346,12.0,12.0,27,0.00,,,0.00,527.00,VWS V14.01,2013-12-18 18:21:00,
2013-12-18 13:22:00,49.5,17.8,30.11,North,354,5.0,12.0,28,0.00,,,0.00,526.00,VWS V14.01,2013-12-18 18:22:00,
2013-12-18 13:23:00,49.5,18.6,30.11,NW,307,3.0,7.0,29,0.00,,,0.00,522.00,VWS V14.01,2013-12-18 18:23:00,
2013-12-18 13:24:00,49.5,17.8,30.11,West,274,13.0,13.0,28,0.00,,,0.00,520.00,VWS V14.01,2013-12-18 18:24:00,
2013-12-18 13:25:00,49.5,16.9,30.11,WNW,294,7.0,9.0,27,0.00,,,0.00,520.00,VWS V14.01,2013-12-18 18:25:00,
2013-12-18 13:26:00,49.5,18.6,30.11,West,271,8.0,10.0,29,0.00,,,0.00,520.00,VWS V14.01,2013-12-18 18:26:00,
2013-12-18 13:27:00,49.5,17.8,30.11,West,264,3.0,8.0,28,0.00,,,0.00,519.00,VWS V14.01,2013-12-18 18:27:00,
2013-12-18 13:28:00,49.5,17.8,30.11,West,273,6.0,7.0,28,0.00,,,0.00,515.00,VWS V14.01,2013-12-18 18:28:00,
2013-12-18 13:29:00,49.5,17.8,30.11,West,277,6.0,6.0,28,0.00,,,0.00,515.00,VWS V14.01,2013-12-18 18:29:00,
2013-12-18 13:30:00,49.5,16.9,30.11,West,266,0.0,6.0,27,0.00,,,0.00,512.00,VWS V14.01,2013-12-18 18:30:00,
2013-12-18 13:31:00,49.5,17.8,30.11,West,270,2.0,3.0,28,0.00,,,0.00,512.00,VWS V14.01,2013-12-18 18:31:00,
2013-12-18 13:32:00,49.5,17.8,30.11,WNW,290,0.0,4.0,28,0.00,,,0.00,510.00,VWS V14.01,2013-12-18 18:32:00,
2013-12-18 13:33:00,49.6,18.7,30.11,WSW,256,4.0,10.0,29,0.00,,,0.00,508.00,VWS V14.01,2013-12-18 18:33:00,
2013-12-18 13:34:00,49.6,17.0,30.11,NW,315,9.0,13.0,27,0.00,,,0.00,506.00,VWS V14.01,2013-12-18 18:34:00,
2013-12-18 13:35:00,49.6,17.0,30.11,NW,326,9.0,9.0,27,0.00,,,0.00,504.00,VWS V14.01,2013-12-18 18:35:00,
2013-12-18 13:36:00,49.6,17.0,30.11,NW,314,5.0,10.0,27,0.00,,,0.00,503.00,VWS V14.01,2013-12-18 18:36:00,
2013-12-18 13:37:00,49.6,17.9,30.11,NNW,348,0.0,4.0,28,0.00,,,0.00,501.00,VWS V14.01,2013-12-18 18:37:00,
2013-12-18 13:38:00,49.8,18.0,30.11,SW,218,0.0,4.0,28,0.00,,,0.00,501.00,VWS V14.01,2013-12-18 18:38:00,
2013-12-18 13:39:00,49.8,17.2,30.11,SW,218,0.0,0.0,27,0.00,,,0.00,497.00,VWS V14.01,2013-12-18 18:39:00,
2013-12-18 13:40:00,49.8,18.0,30.11,WNW,290,3.0,4.0,28,0.00,,,0.00,497.00,VWS V14.01,2013-12-18 18:40:00,
2013-12-18 13:41:00,49.9,17.3,30.11,WNW,283,5.0,6.0,27,0.00,,,0.00,496.00,VWS V14.01,2013-12-18 18:41:00,
2013-12-18 13:42:00,49.9,17.3,30.11,WSW,243,6.0,12.0,27,0.00,,,0.00,496.00,VWS V14.01,2013-12-18 18:42:00,
2013-12-18 13:43:00,49.9,17.3,30.11,West,270,5.0,7.0,27,0.00,,,0.00,494.00,VWS V14.01,2013-12-18 18:43:00,
2013-12-18 13:44:00,49.9,17.3,30.11,West,280,4.0,4.0,27,0.00,,,0.00,492.00,VWS V14.01,2013-12-18 18:44:00,
2013-12-18 13:45:00,50.1,17.4,30.12,WSW,253,0.0,4.0,27,0.00,,,0.00,490.00,VWS V14.01,2013-12-18 18:45:00,
2013-12-18 13:46:00,50.1,18.3,30.12,WNW,293,4.0,5.0,28,0.00,,,0.00,487.00,VWS V14.01,2013-12-18 18:46:00,
2013-12-18 13:47:00,50.1,18.3,30.12,WNW,303,9.0,9.0,28,0.00,,,0.00,485.00,VWS V14.01,2013-12-18 18:47:00,
2013-12-18 13:48:00,50.2,18.4,30.12,North,0,1.0,7.0,28,0.00,,,0.00,483.00,VWS V14.01,2013-12-18 18:48:00,
2013-12-18 13:49:00,50.2,18.4,30.12,WNW,300,4.0,7.0,28,0.00,,,0.00,483.00,VWS V14.01,2013-12-18 18:49:00,
2013-12-18 13:50:00,50.2,18.4,30.12,West,273,0.0,6.0,28,0.00,,,0.00,483.00,VWS V14.01,2013-12-18 18:50:00,
2013-12-18 13:51:00,50.4,17.7,30.12,West,260,4.0,4.0,27,0.00,,,0.00,480.00,VWS V14.01,2013-12-18 18:51:00,
2013-12-18 13:52:00,50.4,17.7,30.12,WNW,293,7.0,11.0,27,0.00,,,0.00,478.00,VWS V14.01,2013-12-18 18:52:00,
2013-12-18 13:53:00,50.4,18.5,30.12,WNW,290,6.0,9.0,28,0.00,,,0.00,476.00,VWS V14.01,2013-12-18 18:53:00,
2013-12-18 13:54:00,50.4,17.7,30.12,West,271,7.0,9.0,27,0.00,,,0.00,475.00,VWS V14.01,2013-12-18 18:54:00,
2013-12-18 13:55:00,50.4,17.7,30.12,WNW,290,7.0,7.0,27,0.00,,,0.00,475.00,VWS V14.01,2013-12-18 18:55:00,
2013-12-18 13:56:00,50.4,18.5,30.12,WNW,288,12.0,12.0,28,0.00,,,0.00,471.00,VWS V14.01,2013-12-18 18:56:00,
2013-12-18 13:57:00,50.4,18.5,30.12,NW,309,6.0,11.0,28,0.00,,,0.00,469.00,VWS V14.01,2013-12-18 18:57:00,
2013-12-18 13:58:00,50.4,18.5,30.12,North,0,7.0,9.0,28,0.00,,,0.00,468.00,VWS V14.01,2013-12-18 18:58:00,
2013-12-18 13:59:00,50.4,18.5,30.12,North,0,7.0,7.0,28,0.00,,,0.00,468.00,VWS V14.01,2013-12-18 18:59:00,
2013-12-18 14:00:00,50.4,18.5,30.12,North,0,7.0,7.0,28,0.00,,,0.00,468.00,VWS V14.01,2013-12-18 19:00:00,
2013-12-18 14:01:00,50.2,18.4,30.12,NNW,338,3.0,8.0,28,0.00,,,0.00,462.00,VWS V14.01,2013-12-18 19:01:00,
2013-12-18 14:02:00,50.2,18.4,30.12,NNW,340,6.0,6.0,28,0.00,,,0.00,461.00,VWS V14.01,2013-12-18 19:02:00,
2013-12-18 14:03:00,50.2,18.4,30.12,NNW,346,5.0,6.0,28,0.00,,,0.00,459.00,VWS V14.01,2013-12-18 19:03:00,
2013-12-18 14:04:00,50.2,18.4,30.12,NNW,337,4.0,10.0,28,0.00,,,0.00,457.00,VWS V14.01,2013-12-18 19:04:00,
2013-12-18 14:05:00,50.2,18.4,30.12,West,276,9.0,11.0,28,0.00,,,0.00,455.00,VWS V14.01,2013-12-18 19:05:00,
2013-12-18 14:06:00,50.1,17.4,30.12,West,260,12.0,12.0,27,0.00,,,0.00,454.00,VWS V14.01,2013-12-18 19:06:00,
2013-12-18 14:07:00,50.1,17.4,30.12,West,261,4.0,11.0,27,0.00,,,0.00,450.00,VWS V14.01,2013-12-18 19:07:00,
2013-12-18 14:08:00,50.1,17.4,30.12,West,270,11.0,11.0,27,0.00,,,0.00,448.00,VWS V14.01,2013-12-18 19:08:00,
2013-12-18 14:09:00,50.1,17.4,30.12,West,270,11.0,11.0,27,0.00,,,0.00,448.00,VWS V14.01,2013-12-18 19:09:00,
2013-12-18 14:10:00,49.9,17.3,30.12,West,273,6.0,11.0,27,0.00,,,0.00,443.00,VWS V14.01,2013-12-18 19:10:00,
2013-12-18 14:11:00,49.9,18.1,30.12,WSW,251,5.0,9.0,28,0.00,,,0.00,441.00,VWS V14.01,2013-12-18 19:11:00,
2013-12-18 14:12:00,49.8,18.0,30.12,West,277,2.0,6.0,28,0.00,,,0.00,438.00,VWS V14.01,2013-12-18 19:12:00,
2013-12-18 14:13:00,49.8,18.0,30.12,West,274,0.0,3.0,28,0.00,,,0.00,436.00,VWS V14.01,2013-12-18 19:13:00,
2013-12-18 14:14:00,49.6,17.0,30.12,NW,307,2.0,9.0,27,0.00,,,0.00,434.00,VWS V14.01,2013-12-18 19:14:00,
2013-12-18 14:15:00,49.6,17.0,30.12,WNW,302,11.0,12.0,27,0.00,,,0.00,431.00,VWS V14.01,2013-12-18 19:15:00,
2013-12-18 14:16:00,49.6,17.0,30.12,NW,311,7.0,11.0,27,0.00,,,0.00,431.00,VWS V14.01,2013-12-18 19:16:00,
2013-12-18 14:17:00,49.5,16.9,30.12,WNW,298,10.0,13.0,27,0.00,,,0.00,429.00,VWS V14.01,2013-12-18 19:17:00,
2013-12-18 14:18:00,49.5,16.9,30.12,WNW,296,10.0,10.0,27,0.00,,,0.00,429.00,VWS V14.01,2013-12-18 19:18:00,
2013-12-18 14:19:00,49.5,16.9,30.12,WNW,296,10.0,10.0,27,0.00,,,0.00,429.00,VWS V14.01,2013-12-18 19:19:00,
2013-12-18 14:20:00,49.4,17.7,30.12,WNW,285,4.0,12.0,28,0.00,,,0.00,429.00,VWS V14.01,2013-12-18 19:20:00,
2013-12-18 14:21:00,49.4,16.8,30.12,West,281,4.0,7.0,27,0.00,,,0.00,429.00,VWS V14.01,2013-12-18 19:21:00,
2013-12-18 14:22:00,49.2,16.7,30.12,WNW,297,7.0,15.0,27,0.00,,,0.00,417.00,VWS V14.01,2013-12-18 19:22:00,
2013-12-18 14:23:00,49.2,16.7,30.12,West,279,4.0,7.0,27,0.00,,,0.00,415.00,VWS V14.01,2013-12-18 19:23:00,
2013-12-18 14:24:00,49.1,16.6,30.12,WSW,252,7.0,10.0,27,0.00,,,0.00,413.00,VWS V14.01,2013-12-18 19:24:00,
2013-12-18 14:25:00,49.1,17.4,30.12,WNW,283,11.0,11.0,28,0.00,,,0.00,411.00,VWS V14.01,2013-12-18 19:25:00,
2013-12-18 14:26:00,48.9,17.2,30.12,NW,309,6.0,10.0,28,0.00,,,0.00,410.00,VWS V14.01,2013-12-18 19:26:00,
2013-12-18 14:27:00,48.9,17.2,30.12,West,277,11.0,11.0,28,0.00,,,0.00,408.00,VWS V14.01,2013-12-18 19:27:00,
2013-12-18 14:28:00,48.9,17.2,30.12,WNW,293,4.0,15.0,28,0.00,,,0.00,383.00,VWS V14.01,2013-12-18 19:28:00,
2013-12-18 14:29:00,48.8,17.2,30.12,WNW,302,6.0,6.0,28,0.00,,,0.00,318.00,VWS V14.01,2013-12-18 19:29:00,
2013-12-18 14:30:00,48.8,17.2,30.13,WNW,294,4.0,6.0,28,0.00,,,0.00,272.00,VWS V14.01,2013-12-18 19:30:00,
2013-12-18 14:31:00,48.8,16.3,30.13,West,274,6.0,6.0,27,0.00,,,0.00,257.00,VWS V14.01,2013-12-18 19:31:00,
2013-12-18 14:32:00,48.8,17.2,30.13,West,272,2.0,6.0,28,0.00,,,0.00,183.00,VWS V14.01,2013-12-18 19:32:00,
2013-12-18 14:33:00,48.8,17.2,30.13,West,277,5.0,7.0,28,0.00,,,0.00,49.00,VWS V14.01,2013-12-18 19:33:00,
2013-12-18 14:34:00,48.8,17.2,30.13,NW,316,6.0,7.0,28,0.00,,,0.00,49.00,VWS V14.01,2013-12-18 19:34:00,
2013-12-18 14:35:00,48.8,16.3,30.13,WNW,300,0.0,7.0,27,0.00,,,0.00,49.00,VWS V14.01,2013-12-18 19:35:00,
2013-12-18 14:36:00,48.8,17.2,30.13,NNW,330,5.0,9.0,28,0.00,,,0.00,90.00,VWS V14.01,2013-12-18 19:36:00,
2013-12-18 14:37:00,48.8,17.2,30.13,WNW,290,0.0,5.0,28,0.00,,,0.00,84.00,VWS V14.01,2013-12-18 19:37:00,
2013-12-18 14:38:00,48.8,16.3,30.13,WNW,296,3.0,3.0,27,0.00,,,0.00,62.00,VWS V14.01,2013-12-18 19:38:00,
2013-12-18 14:39:00,48.8,17.2,30.13,NW,323,2.0,10.0,28,0.00,,,0.00,47.00,VWS V14.01,2013-12-18 19:39:00,
2013-12-18 14:40:00,48.6,16.1,30.13,North,350,9.0,9.0,27,0.00,,,0.00,47.00,VWS V14.01,2013-12-18 19:40:00,
2013-12-18 14:41:00,48.6,17.0,30.13,WNW,300,5.0,9.0,28,0.00,,,0.00,47.00,VWS V14.01,2013-12-18 19:41:00,
2013-12-18 14:42:00,48.6,17.0,30.13,NW,321,5.0,7.0,28,0.00,,,0.00,47.00,VWS V14.01,2013-12-18 19:42:00,
2013-12-18 14:43:00,48.6,17.0,30.13,WNW,292,9.0,12.0,28,0.00,,,0.00,47.00,VWS V14.01,2013-12-18 19:43:00,
2013-12-18 14:44:00,48.6,16.1,30.13,WNW,290,8.0,13.0,27,0.00,,,0.00,47.00,VWS V14.01,2013-12-18 19:44:00,
2013-12-18 14:45:00,48.6,16.1,30.13,WNW,285,3.0,13.0,27,0.00,,,0.00,47.00,VWS V14.01,2013-12-18 19:45:00,
2013-12-18 14:46:00,48.6,17.0,30.13,WNW,289,4.0,9.0,28,0.00,,,0.00,47.00,VWS V14.01,2013-12-18 19:46:00,
2013-12-18 14:47:00,48.6,17.0,30.13,WSW,252,7.0,12.0,28,0.00,,,0.00,47.00,VWS V14.01,2013-12-18 19:47:00,
2013-12-18 14:48:00,48.6,17.0,30.13,WNW,295,11.0,14.0,28,0.00,,,0.00,47.00,VWS V14.01,2013-12-18 19:48:00,
2013-12-18 14:49:00,48.5,16.9,30.13,WNW,301,11.0,12.0,28,0.00,,,0.00,47.00,VWS V14.01,2013-12-18 19:49:00,
2013-12-18 14:50:00,48.5,16.9,30.13,WNW,297,5.0,12.0,28,0.00,,,0.00,47.00,VWS V14.01,2013-12-18 19:50:00,
2013-12-18 14:51:00,48.5,16.1,30.13,NW,326,5.0,10.0,27,0.00,,,0.00,46.00,VWS V14.01,2013-12-18 19:51:00,
2013-12-18 14:52:00,48.5,16.9,30.13,North,349,2.0,5.0,28,0.00,,,0.00,46.00,VWS V14.01,2013-12-18 19:52:00,
2013-12-18 14:53:00,48.5,16.1,30.13,WNW,299,4.0,4.0,27,0.00,,,0.00,46.00,VWS V14.01,2013-12-18 19:53:00,
2013-12-18 14:54:00,48.5,16.9,30.13,North,0,9.0,10.0,28,0.00,,,0.00,46.00,VWS V14.01,2013-12-18 19:54:00,
2013-12-18 14:55:00,48.5,16.1,30.13,North,0,10.0,13.0,27,0.00,,,0.00,46.00,VWS V14.01,2013-12-18 19:55:00,
2013-12-18 14:56:00,48.5,16.1,30.13,NW,310,13.0,13.0,27,0.00,,,0.00,46.00,VWS V14.01,2013-12-18 19:56:00,
2013-12-18 14:57:00,48.5,16.1,30.13,NNW,347,9.0,13.0,27,0.00,,,0.00,46.00,VWS V14.01,2013-12-18 19:57:00,
2013-12-18 14:58:00,48.5,16.1,30.13,NNW,330,4.0,11.0,27,0.00,,,0.00,46.00,VWS V14.01,2013-12-18 19:58:00,
2013-12-18 14:59:00,48.3,15.9,30.13,NNW,335,3.0,9.0,27,0.00,,,0.00,46.00,VWS V14.01,2013-12-18 19:59:00,
2013-12-18 15:00:00,48.3,15.9,30.13,NW,307,0.0,4.0,27,0.00,,,0.00,46.00,VWS V14.01,2013-12-18 20:00:00,
2013-12-18 15:01:00,48.3,15.9,30.13,WSW,257,6.0,6.0,27,0.00,,,0.00,46.00,VWS V14.01,2013-12-18 20:01:00,
2013-12-18 15:02:00,48.3,15.9,30.13,NW,323,1.0,3.0,27,0.00,,,0.00,46.00,VWS V14.01,2013-12-18 20:02:00,
2013-12-18 15:03:00,48.3,16.7,30.13,West,281,4.0,9.0,28,0.00,,,0.00,44.00,VWS V14.01,2013-12-18 20:03:00,
2013-12-18 15:04:00,48.3,16.7,30.13,NNW,342,7.0,7.0,28,0.00,,,0.00,44.00,VWS V14.01,2013-12-18 20:04:00,
2013-12-18 15:05:00,48.3,16.7,30.13,NNW,348,6.0,7.0,28,0.00,,,0.00,44.00,VWS V14.01,2013-12-18 20:05:00,
2013-12-18 15:06:00,48.3,15.9,30.13,NW,311,5.0,6.0,27,0.00,,,0.00,44.00,VWS V14.01,2013-12-18 20:06:00,
2013-12-18 15:07:00,48.3,16.7,30.13,NNW,340,5.0,9.0,28,0.00,,,0.00,44.00,VWS V14.01,2013-12-18 20:07:00,
2013-12-18 15:08:00,48.3,15.9,30.13,NNW,336,0.0,5.0,27,0.00,,,0.00,44.00,VWS V14.01,2013-12-18 20:08:00,
2013-12-18 15:09:00,48.3,15.9,30.13,NNW,335,0.0,0.0,27,0.00,,,0.00,44.00,VWS V14.01,2013-12-18 20:09:00,
2013-12-18 15:10:00,48.3,15.9,30.13,North,358,4.0,5.0,27,0.00,,,0.00,44.00,VWS V14.01,2013-12-18 20:10:00,
2013-12-18 15:11:00,48.3,15.9,30.13,NW,320,0.0,5.0,27,0.00,,,0.00,44.00,VWS V14.01,2013-12-18 20:11:00,
2013-12-18 15:12:00,48.3,16.7,30.13,NW,314,1.0,2.0,28,0.00,,,0.00,44.00,VWS V14.01,2013-12-18 20:12:00,
2013-12-18 15:13:00,48.2,15.8,30.13,NW,314,1.0,1.0,27,0.00,,,0.00,44.00,VWS V14.01,2013-12-18 20:13:00,
2013-12-18 15:14:00,48.2,15.8,30.13,NNW,334,0.0,9.0,27,0.00,,,0.00,44.00,VWS V14.01,2013-12-18 20:14:00,
2013-12-18 15:15:00,48.2,15.8,30.14,NNW,334,2.0,2.0,27,0.00,,,0.00,44.00,VWS V14.01,2013-12-18 20:15:00,
2013-12-18 15:16:00,48.2,15.8,30.14,NNW,334,0.0,4.0,27,0.00,,,0.00,44.00,VWS V14.01,2013-12-18 20:16:00,
2013-12-18 15:17:00,48.2,15.8,30.14,NNW,334,0.0,0.0,27,0.00,,,0.00,42.00,VWS V14.01,2013-12-18 20:17:00,
2013-12-18 15:18:00,48.2,15.8,30.14,WNW,297,9.0,9.0,27,0.00,,,0.00,42.00,VWS V14.01,2013-12-18 20:18:00,
2013-12-18 15:19:00,48.2,15.8,30.14,North,352,5.0,7.0,27,0.00,,,0.00,42.00,VWS V14.01,2013-12-18 20:19:00,
2013-12-18 15:20:00,48.2,15.8,30.14,NW,314,10.0,11.0,27,0.00,,,0.00,42.00,VWS V14.01,2013-12-18 20:20:00,
2013-12-18 15:21:00,48.2,15.8,30.14,NW,309,3.0,12.0,27,0.00,,,0.00,42.00,VWS V14.01,2013-12-18 20:21:00,
2013-12-18 15:22:00,48.0,15.6,30.14,NW,326,4.0,9.0,27,0.00,,,0.00,42.00,VWS V14.01,2013-12-18 20:22:00,
2013-12-18 15:23:00,48.0,15.6,30.14,NW,307,6.0,6.0,27,0.00,,,0.00,42.00,VWS V14.01,2013-12-18 20:23:00,
2013-12-18 15:24:00,48.0,16.5,30.14,NW,311,3.0,6.0,28,0.00,,,0.00,42.00,VWS V14.01,2013-12-18 20:24:00,
2013-12-18 15:25:00,48.0,15.6,30.14,NW,306,0.0,3.0,27,0.00,,,0.00,42.00,VWS V14.01,2013-12-18 20:25:00,
2013-12-18 15:26:00,48.0,15.6,30.14,NW,305,2.0,2.0,27,0.00,,,0.00,40.00,VWS V14.01,2013-12-18 20:26:00,
2013-12-18 15:27:00,48.0,16.5,30.14,NW,309,4.0,4.0,28,0.00,,,0.00,40.00,VWS V14.01,2013-12-18 20:27:00,
2013-12-18 15:28:00,48.0,15.6,30.14,North,355,5.0,11.0,27,0.00,,,0.00,40.00,VWS V14.01,2013-12-18 20:28:00,
2013-12-18 15:29:00,48.0,16.5,30.14,NW,309,4.0,6.0,28,0.00,,,0.00,40.00,VWS V14.01,2013-12-18 20:29:00,
2013-12-18 15:30:00,48.0,16.5,30.14,WNW,300,7.0,7.0,28,0.00,,,0.00,40.00,VWS V14.01,2013-12-18 20:30:00,
2013-12-18 15:31:00,47.9,16.4,30.14,WNW,286,0.0,5.0,28,0.00,,,0.00,39.00,VWS V14.01,2013-12-18 20:31:00,
2013-12-18 15:32:00,47.9,16.4,30.14,WNW,300,0.0,5.0,28,0.00,,,0.00,39.00,VWS V14.01,2013-12-18 20:32:00,
2013-12-18 15:33:00,47.9,16.4,30.14,WNW,300,0.0,0.0,28,0.00,,,0.00,39.00,VWS V14.01,2013-12-18 20:33:00,
2013-12-18 15:34:00,47.9,15.6,30.14,WNW,300,0.0,0.0,27,0.00,,,0.00,39.00,VWS V14.01,2013-12-18 20:34:00,
2013-12-18 15:35:00,47.9,15.6,30.14,NW,326,0.0,2.0,27,0.00,,,0.00,39.00,VWS V14.01,2013-12-18 20:35:00,
2013-12-18 15:36:00,47.7,15.4,30.14,WNW,303,0.0,3.0,27,0.00,,,0.00,39.00,VWS V14.01,2013-12-18 20:36:00,
2013-12-18 15:37:00,47.7,15.4,30.14,WSW,257,5.0,6.0,27,0.00,,,0.00,37.00,VWS V14.01,2013-12-18 20:37:00,
2013-12-18 15:38:00,47.7,16.2,30.14,West,262,1.0,7.0,28,0.00,,,0.00,37.00,VWS V14.01,2013-12-18 20:38:00,
2013-12-18 15:39:00,47.7,16.2,30.14,West,262,1.0,1.0,28,0.00,,,0.00,37.00,VWS V14.01,2013-12-18 20:39:00,
2013-12-18 15:40:00,47.6,15.3,30.14,West,264,0.0,0.0,27,0.00,,,0.00,37.00,VWS V14.01,2013-12-18 20:40:00,
2013-12-18 15:41:00,47.6,16.1,30.14,WNW,288,0.0,6.0,28,0.00,,,0.00,35.00,VWS V14.01,2013-12-18 20:41:00,
2013-12-18 15:42:00,47.6,15.3,30.14,WNW,295,1.0,7.0,27,0.00,,,0.00,35.00,VWS V14.01,2013-12-18 20:42:00,
2013-12-18 15:43:00,47.6,15.3,30.14,WNW,283,2.0,6.0,27,0.00,,,0.00,35.00,VWS V14.01,2013-12-18 20:43:00,
2013-12-18 15:44:00,47.6,15.3,30.14,NNW,335,3.0,3.0,27,0.00,,,0.00,33.00,VWS V14.01,2013-12-18 20:44:00,
2013-12-18 15:45:00,47.6,16.1,30.14,North,5,4.0,5.0,28,0.00,,,0.00,33.00,VWS V14.01,2013-12-18 20:45:00,
2013-12-18 15:46:00,47.4,15.9,30.14,North,357,3.0,4.0,28,0.00,,,0.00,33.00,VWS V14.01,2013-12-18 20:46:00,
2013-12-18 15:47:00,47.4,15.9,30.14,North,357,0.0,3.0,28,0.00,,,0.00,33.00,VWS V14.01,2013-12-18 20:47:00,
2013-12-18 15:48:00,47.4,15.9,30.14,West,269,5.0,6.0,28,0.00,,,0.00,32.00,VWS V14.01,2013-12-18 20:48:00,
2013-12-18 15:49:00,47.4,15.9,30.14,West,262,1.0,5.0,28,0.00,,,0.00,32.00,VWS V14.01,2013-12-18 20:49:00,
2013-12-18 15:50:00,47.3,15.0,30.14,West,275,4.0,5.0,27,0.00,,,0.00,30.00,VWS V14.01,2013-12-18 20:50:00,
2013-12-18 15:51:00,47.3,15.0,30.14,WNW,298,3.0,4.0,27,0.00,,,0.00,30.00,VWS V14.01,2013-12-18 20:51:00,
2013-12-18 15:52:00,47.3,15.0,30.14,WNW,300,0.0,3.0,27,0.00,,,0.00,30.00,VWS V14.01,2013-12-18 20:52:00,
2013-12-18 15:53:00,47.3,15.0,30.14,WNW,300,0.0,0.0,27,0.00,,,0.00,30.00,VWS V14.01,2013-12-18 20:53:00,
2013-12-18 15:54:00,47.3,15.0,30.14,WNW,300,0.0,0.0,27,0.00,,,0.00,28.00,VWS V14.01,2013-12-18 20:54:00,
2013-12-18 15:55:00,47.3,15.9,30.14,WNW,301,0.0,4.0,28,0.00,,,0.00,28.00,VWS V14.01,2013-12-18 20:55:00,
2013-12-18 15:56:00,47.1,16.5,30.14,NNW,330,5.0,5.0,29,0.00,,,0.00,26.00,VWS V14.01,2013-12-18 20:56:00,
2013-12-18 15:57:00,47.1,15.7,30.14,NNW,328,0.0,5.0,28,0.00,,,0.00,26.00,VWS V14.01,2013-12-18 20:57:00,
2013-12-18 15:58:00,47.1,16.5,30.14,NNW,335,2.0,3.0,29,0.00,,,0.00,26.00,VWS V14.01,2013-12-18 20:58:00,
2013-12-18 15:59:00,47.1,15.7,30.14,NNW,334,0.0,4.0,28,0.00,,,0.00,25.00,VWS V14.01,2013-12-18 20:59:00,
2013-12-18 16:00:00,47.0,15.6,30.14,NNW,328,4.0,4.0,28,0.00,,,0.00,25.00,VWS V14.01,2013-12-18 21:00:00,
2013-12-18 16:01:00,47.0,15.6,30.14,NW,319,5.0,6.0,28,0.00,,,0.00,23.00,VWS V14.01,2013-12-18 21:01:00,
2013-12-18 16:02:00,47.0,15.6,30.14,NNW,330,3.0,5.0,28,0.00,,,0.00,21.00,VWS V14.01,2013-12-18 21:02:00,
2013-12-18 16:03:00,46.8,16.2,30.14,WNW,300,0.0,6.0,29,0.00,,,0.00,21.00,VWS V14.01,2013-12-18 21:03:00,
2013-12-18 16:04:00,46.8,16.2,30.14,WNW,300,0.0,0.0,29,0.00,,,0.00,21.00,VWS V14.01,2013-12-18 21:04:00,
2013-12-18 16:05:00,46.8,16.2,30.14,WNW,300,0.0,0.0,29,0.00,,,0.00,19.00,VWS V14.01,2013-12-18 21:05:00,
2013-12-18 16:06:00,46.8,16.2,30.14,WNW,300,0.0,0.0,29,0.00,,,0.00,19.00,VWS V14.01,2013-12-18 21:06:00,
2013-12-18 16:07:00,46.7,16.9,30.14,WNW,301,1.0,3.0,30,0.00,,,0.00,19.00,VWS V14.01,2013-12-18 21:07:00,
2013-12-18 16:08:00,46.7,17.7,30.14,WNW,301,0.0,1.0,31,0.00,,,0.00,18.00,VWS V14.01,2013-12-18 21:08:00,
2013-12-18 16:09:00,46.7,16.9,30.14,WNW,301,0.0,1.0,30,0.00,,,0.00,18.00,VWS V14.01,2013-12-18 21:09:00,
2013-12-18 16:10:00,46.5,16.8,30.14,WNW,301,0.0,0.0,30,0.00,,,0.00,18.00,VWS V14.01,2013-12-18 21:10:00,
2013-12-18 16:11:00,46.5,16.8,30.14,WNW,301,0.0,0.0,30,0.00,,,0.00,18.00,VWS V14.01,2013-12-18 21:11:00,
2013-12-18 16:12:00,46.4,15.9,30.14,WNW,301,0.0,0.0,29,0.00,,,0.00,16.00,VWS V14.01,2013-12-18 21:12:00,
2013-12-18 16:13:00,46.4,16.7,30.14,WNW,301,0.0,0.0,30,0.00,,,0.00,16.00,VWS V14.01,2013-12-18 21:13:00,
2013-12-18 16:14:00,46.2,18.0,30.14,WNW,301,0.0,0.0,32,0.00,,,0.00,16.00,VWS V14.01,2013-12-18 21:14:00,
2013-12-18 16:15:00,46.2,18.7,30.14,WNW,301,0.0,0.0,33,0.00,,,0.00,16.00,VWS V14.01,2013-12-18 21:15:00,
2013-12-18 16:16:00,46.2,18.7,30.14,WNW,301,0.0,0.0,33,0.00,,,0.00,14.00,VWS V14.01,2013-12-18 21:16:00,
2013-12-18 16:17:00,46.1,19.3,30.14,WNW,301,0.0,0.0,34,0.00,,,0.00,14.00,VWS V14.01,2013-12-18 21:17:00,
2013-12-18 16:18:00,46.0,18.5,30.14,WNW,301,2.0,2.0,33,0.00,,,0.00,14.00,VWS V14.01,2013-12-18 21:18:00,
2013-12-18 16:19:00,46.0,19.2,30.14,WNW,301,0.0,1.0,34,0.00,,,0.00,14.00,VWS V14.01,2013-12-18 21:19:00,
2013-12-18 16:20:00,45.8,19.0,30.14,WNW,301,0.0,0.0,34,0.00,,,0.00,14.00,VWS V14.01,2013-12-18 21:20:00,
2013-12-18 16:21:00,45.7,18.3,30.14,WNW,301,0.0,0.0,33,0.00,,,0.00,14.00,VWS V14.01,2013-12-18 21:21:00,
2013-12-18 16:22:00,45.7,18.3,30.14,WNW,301,0.0,0.0,33,0.00,,,0.00,14.00,VWS V14.01,2013-12-18 21:22:00,
2013-12-18 16:23:00,45.5,18.1,30.14,WNW,301,0.0,0.0,33,0.00,,,0.00,12.00,VWS V14.01,2013-12-18 21:23:00,
2013-12-18 16:24:00,45.4,16.5,30.14,WNW,301,0.0,0.0,31,0.00,,,0.00,12.00,VWS V14.01,2013-12-18 21:24:00,
2013-12-18 16:25:00,45.4,17.3,30.14,WNW,301,0.0,0.0,32,0.00,,,0.00,12.00,VWS V14.01,2013-12-18 21:25:00,
2013-12-18 16:26:00,45.2,16.4,30.14,WNW,301,0.0,0.0,31,0.00,,,0.00,12.00,VWS V14.01,2013-12-18 21:26:00,
2013-12-18 16:27:00,45.1,17.7,30.14,WNW,301,0.0,0.0,33,0.00,,,0.00,12.00,VWS V14.01,2013-12-18 21:27:00,
2013-12-18 16:28:00,45.1,17.7,30.14,WNW,301,0.0,0.0,33,0.00,,,0.00,12.00,VWS V14.01,2013-12-18 21:28:00,
2013-12-18 16:29:00,44.9,18.2,30.14,WNW,301,0.0,0.0,34,0.00,,,0.00,12.00,VWS V14.01,2013-12-18 21:29:00,
2013-12-18 16:30:00,44.9,18.2,30.14,WNW,301,0.0,0.0,34,0.00,,,0.00,11.00,VWS V14.01,2013-12-18 21:30:00,
2013-12-18 16:31:00,44.8,18.8,30.14,WNW,301,0.0,0.0,35,0.00,,,0.00,11.00,VWS V14.01,2013-12-18 21:31:00,
2013-12-18 16:32:00,44.6,18.7,30.14,WNW,301,0.0,0.0,35,0.00,,,0.00,11.00,VWS V14.01,2013-12-18 21:32:00,
2013-12-18 16:33:00,44.6,18.7,30.14,WNW,301,0.0,0.0,35,0.00,,,0.00,11.00,VWS V14.01,2013-12-18 21:33:00,
2013-12-18 16:34:00,44.5,19.2,30.14,WNW,301,0.0,0.0,36,0.00,,,0.00,11.00,VWS V14.01,2013-12-18 21:34:00,
2013-12-18 16:35:00,44.3,18.4,30.14,WNW,301,0.0,0.0,35,0.00,,,0.00,11.00,VWS V14.01,2013-12-18 21:35:00,
2013-12-18 16:36:00,44.3,18.4,30.14,WNW,301,0.0,0.0,35,0.00,,,0.00,9.00,VWS V14.01,2013-12-18 21:36:00,
2013-12-18 16:37:00,44.2,18.3,30.14,WNW,301,0.0,0.0,35,0.00,,,0.00,9.00,VWS V14.01,2013-12-18 21:37:00,
2013-12-18 16:38:00,44.1,18.9,30.14,WNW,301,0.0,0.0,36,0.00,,,0.00,9.00,VWS V14.01,2013-12-18 21:38:00,
2013-12-18 16:39:00,44.1,19.5,30.14,WNW,301,0.0,0.0,37,0.00,,,0.00,9.00,VWS V14.01,2013-12-18 21:39:00,
2013-12-18 16:40:00,43.9,19.3,30.14,WNW,301,0.0,0.0,37,0.00,,,0.00,9.00,VWS V14.01,2013-12-18 21:40:00,
2013-12-18 16:41:00,43.8,19.2,30.14,WNW,301,0.0,0.0,37,0.00,,,0.00,9.00,VWS V14.01,2013-12-18 21:41:00,
2013-12-18 16:42:00,43.8,19.2,30.14,WNW,301,0.0,0.0,37,0.00,,,0.00,7.00,VWS V14.01,2013-12-18 21:42:00,
2013-12-18 16:43:00,43.6,19.7,30.14,WNW,301,0.0,0.0,38,0.00,,,0.00,7.00,VWS V14.01,2013-12-18 21:43:00,
2013-12-18 16:44:00,43.5,20.2,30.14,WNW,301,0.0,0.0,39,0.00,,,0.00,7.00,VWS V14.01,2013-12-18 21:44:00,
2013-12-18 16:45:00,43.3,20.0,30.15,WNW,301,0.0,0.0,39,0.00,,,0.00,7.00,VWS V14.01,2013-12-18 21:45:00,
2013-12-18 16:46:00,43.3,20.6,30.15,WNW,301,0.0,0.0,40,0.00,,,0.00,7.00,VWS V14.01,2013-12-18 21:46:00,
2013-12-18 16:47:00,43.2,20.5,30.15,WNW,301,0.0,0.0,40,0.00,,,0.00,7.00,VWS V14.01,2013-12-18 21:47:00,
2013-12-18 16:48:00,43.1,20.4,30.15,WNW,301,0.0,0.0,40,0.00,,,0.00,5.00,VWS V14.01,2013-12-18 21:48:00,
2013-12-18 16:49:00,42.9,20.8,30.15,WNW,301,0.0,0.0,41,0.00,,,0.00,5.00,VWS V14.01,2013-12-18 21:49:00,
2013-12-18 16:50:00,42.9,20.3,30.15,WNW,301,0.0,0.0,40,0.00,,,0.00,5.00,VWS V14.01,2013-12-18 21:50:00,
2013-12-18 16:51:00,42.8,20.8,30.15,WNW,301,0.0,0.0,41,0.00,,,0.00,5.00,VWS V14.01,2013-12-18 21:51:00,
2013-12-18 16:52:00,42.6,21.1,30.15,WNW,301,0.0,0.0,42,0.00,,,0.00,5.00,VWS V14.01,2013-12-18 21:52:00,
2013-12-18 16:53:00,42.5,20.5,30.15,WNW,301,0.0,0.0,41,0.00,,,0.00,0.00,VWS V14.01,2013-12-18 21:53:00,
2013-12-18 16:54:00,42.5,20.5,30.15,WNW,301,0.0,0.0,41,0.00,,,0.00,0.00,VWS V14.01,2013-12-18 21:54:00,
2013-12-18 16:55:00,42.3,20.9,30.15,WNW,301,0.0,0.0,42,0.00,,,0.00,0.00,VWS V14.01,2013-12-18 21:55:00,
2013-12-18 16:56:00,42.2,20.8,30.15,WNW,301,0.0,0.0,42,0.00,,,0.00,0.00,VWS V14.01,2013-12-18 21:56:00,
2013-12-18 16:57:00,42.1,20.7,30.15,WNW,301,0.0,0.0,42,0.00,,,0.00,0.00,VWS V14.01,2013-12-18 21:57:00,
2013-12-18 16:58:00,41.9,21.0,30.15,WNW,301,0.0,0.0,43,0.00,,,0.00,0.00,VWS V14.01,2013-12-18 21:58:00,
2013-12-18 16:59:00,41.9,21.0,30.15,WNW,301,0.0,0.0,43,0.00,,,0.00,0.00,VWS V14.01,2013-12-18 21:59:00,
2013-12-18 17:00:00,41.8,21.0,30.15,WNW,301,0.0,0.0,43,0.00,,,0.00,0.00,VWS V14.01,2013-12-18 22:00:00,
2013-12-18 17:01:00,41.6,20.8,30.15,WNW,301,0.0,0.0,43,0.00,,,0.00,0.00,VWS V14.01,2013-12-18 22:01:00,
2013-12-18 17:02:00,41.5,20.7,30.15,WNW,301,0.0,0.0,43,0.00,,,0.00,0.00,VWS V14.01,2013-12-18 22:02:00,
2013-12-18 17:03:00,41.3,21.0,30.15,WNW,301,0.0,0.0,44,0.00,,,0.00,0.00,VWS V14.01,2013-12-18 22:03:00,
2013-12-18 17:04:00,41.2,21.5,30.15,WNW,301,0.0,0.0,45,0.00,,,0.00,0.00,VWS V14.01,2013-12-18 22:04:00,
2013-12-18 17:05:00,41.1,21.4,30.15,WNW,301,0.0,0.0,45,0.00,,,0.00,0.00,VWS V14.01,2013-12-18 22:05:00,
2013-12-18 17:06:00,41.1,21.9,30.15,WNW,301,0.0,0.0,46,0.00,,,0.00,0.00,VWS V14.01,2013-12-18 22:06:00,
2013-12-18 17:07:00,40.9,21.7,30.15,WNW,301,0.0,0.0,46,0.00,,,0.00,0.00,VWS V14.01,2013-12-18 22:07:00,
2013-12-18 17:08:00,40.8,21.6,30.15,WNW,301,0.0,0.0,46,0.00,,,0.00,0.00,VWS V14.01,2013-12-18 22:08:00,
2013-12-18 17:09:00,40.6,21.5,30.15,WNW,301,0.0,0.0,46,0.00,,,0.00,0.00,VWS V14.01,2013-12-18 22:09:00,
2013-12-18 17:10:00,40.5,21.9,30.15,WNW,301,0.0,0.0,47,0.00,,,0.00,0.00,VWS V14.01,2013-12-18 22:10:00,
2013-12-18 17:11:00,40.3,21.7,30.15,WNW,301,0.0,0.0,47,0.00,,,0.00,0.00,VWS V14.01,2013-12-18 22:11:00,
2013-12-18 17:12:00,40.3,21.7,30.15,WNW,301,0.0,0.0,47,0.00,,,0.00,0.00,VWS V14.01,2013-12-18 22:12:00,
2013-12-18 17:13:00,40.2,22.1,30.15,WNW,301,0.0,0.0,48,0.00,,,0.00,0.00,VWS V14.01,2013-12-18 22:13:00,
2013-12-18 17:14:00,40.1,22.0,30.15,WNW,301,0.0,0.0,48,0.00,,,0.00,0.00,VWS V14.01,2013-12-18 22:14:00,
2013-12-18 17:15:00,39.9,21.8,30.15,WNW,301,0.0,0.0,48,0.00,,,0.00,0.00,VWS V14.01,2013-12-18 22:15:00,
2013-12-18 17:16:00,39.8,21.7,30.15,WNW,301,0.0,0.0,48,0.00,,,0.00,0.00,VWS V14.01,2013-12-18 22:16:00,
2013-12-18 17:17:00,39.8,21.7,30.15,WNW,301,0.0,0.0,48,0.00,,,0.00,0.00,VWS V14.01,2013-12-18 22:17:00,
2013-12-18 17:18:00,39.6,21.5,30.15,WNW,301,0.0,0.0,48,0.00,,,0.00,0.00,VWS V14.01,2013-12-18 22:18:00,
2013-12-18 17:19:00,39.5,21.9,30.15,WNW,301,0.0,0.0,49,0.00,,,0.00,0.00,VWS V14.01,2013-12-18 22:19:00,
2013-12-18 17:20:00,39.3,21.8,30.15,WNW,301,0.0,0.0,49,0.00,,,0.00,0.00,VWS V14.01,2013-12-18 22:20:00,
2013-12-18 17:21:00,39.3,21.8,30.15,WNW,301,0.0,0.0,49,0.00,,,0.00,0.00,VWS V14.01,2013-12-18 22:21:00,
2013-12-18 17:22:00,39.2,21.7,30.15,WNW,301,0.0,0.0,49,0.00,,,0.00,0.00,VWS V14.01,2013-12-18 22:22:00,
2013-12-18 17:23:00,39.1,21.6,30.15,WNW,301,0.0,0.0,49,0.00,,,0.00,0.00,VWS V14.01,2013-12-18 22:23:00,
2013-12-18 17:24:00,38.9,21.4,30.15,WNW,301,0.0,0.0,49,0.00,,,0.00,0.00,VWS V14.01,2013-12-18 22:24:00,
2013-12-18 17:25:00,38.9,21.4,30.15,WNW,301,0.0,0.0,49,0.00,,,0.00,0.00,VWS V14.01,2013-12-18 22:25:00,
2013-12-18 17:26:00,38.8,21.8,30.15,WNW,301,0.0,0.0,50,0.00,,,0.00,0.00,VWS V14.01,2013-12-18 22:26:00,
2013-12-18 17:27:00,38.6,21.6,30.15,WNW,301,0.0,0.0,50,0.00,,,0.00,0.00,VWS V14.01,2013-12-18 22:27:00,
2013-12-18 17:28:00,38.6,21.6,30.15,WNW,301,0.0,0.0,50,0.00,,,0.00,0.00,VWS V14.01,2013-12-18 22:28:00,
2013-12-18 17:29:00,38.5,22.0,30.15,WNW,301,0.0,0.0,51,0.00,,,0.00,0.00,VWS V14.01,2013-12-18 22:29:00,
2013-12-18 17:30:00,38.3,21.8,30.16,WNW,301,0.0,0.0,51,0.00,,,0.00,0.00,VWS V14.01,2013-12-18 22:30:00,
2013-12-18 17:31:00,38.3,21.8,30.16,WNW,301,0.0,0.0,51,0.00,,,0.00,0.00,VWS V14.01,2013-12-18 22:31:00,
2013-12-18 17:32:00,38.2,22.1,30.16,WNW,301,0.0,0.0,52,0.00,,,0.00,0.00,VWS V14.01,2013-12-18 22:32:00,
2013-12-18 17:33:00,38.0,22.0,30.16,WNW,301,0.0,0.0,52,0.00,,,0.00,0.00,VWS V14.01,2013-12-18 22:33:00,
2013-12-18 17:34:00,38.0,22.4,30.16,WNW,301,0.0,0.0,53,0.00,,,0.00,0.00,VWS V14.01,2013-12-18 22:34:00,
2013-12-18 17:35:00,37.9,22.8,30.16,WNW,301,0.0,0.0,54,0.00,,,0.00,0.00,VWS V14.01,2013-12-18 22:35:00,
2013-12-18 17:36:00,37.8,23.1,30.16,WNW,301,0.0,0.0,55,0.00,,,0.00,0.00,VWS V14.01,2013-12-18 22:36:00,
2013-12-18 17:37:00,37.8,23.1,30.16,WNW,301,0.0,0.0,55,0.00,,,0.00,0.00,VWS V14.01,2013-12-18 22:37:00,
2013-12-18 17:38:00,37.8,23.1,30.16,WNW,301,0.0,0.0,55,0.00,,,0.00,0.00,VWS V14.01,2013-12-18 22:38:00,
2013-12-18 17:39:00,37.6,22.9,30.16,WNW,301,0.0,0.0,55,0.00,,,0.00,0.00,VWS V14.01,2013-12-18 22:39:00,
2013-12-18 17:40:00,37.6,22.9,30.16,WNW,301,0.0,0.0,55,0.00,,,0.00,0.00,VWS V14.01,2013-12-18 22:40:00,
2013-12-18 17:41:00,37.5,22.8,30.16,WNW,301,0.0,0.0,55,0.00,,,0.00,0.00,VWS V14.01,2013-12-18 22:41:00,
2013-12-18 17:42:00,37.3,22.6,30.16,WNW,301,0.0,0.0,55,0.00,,,0.00,0.00,VWS V14.01,2013-12-18 22:42:00,
2013-12-18 17:43:00,37.3,22.6,30.16,WNW,301,0.0,0.0,55,0.00,,,0.00,0.00,VWS V14.01,2013-12-18 22:43:00,
2013-12-18 17:44:00,37.2,22.5,30.16,WNW,301,0.0,0.0,55,0.00,,,0.00,0.00,VWS V14.01,2013-12-18 22:44:00,
2013-12-18 17:45:00,37.2,22.5,30.16,WNW,301,0.0,0.0,55,0.00,,,0.00,0.00,VWS V14.01,2013-12-18 22:45:00,
2013-12-18 17:46:00,37.0,22.4,30.16,WNW,301,0.0,0.0,55,0.00,,,0.00,0.00,VWS V14.01,2013-12-18 22:46:00,
2013-12-18 17:47:00,37.0,22.4,30.16,WNW,301,0.0,0.0,55,0.00,,,0.00,0.00,VWS V14.01,2013-12-18 22:47:00,
2013-12-18 17:48:00,37.0,22.4,30.16,WNW,301,0.0,0.0,55,0.00,,,0.00,0.00,VWS V14.01,2013-12-18 22:48:00,
2013-12-18 17:49:00,36.9,22.7,30.16,WNW,301,0.0,0.0,56,0.00,,,0.00,0.00,VWS V14.01,2013-12-18 22:49:00,
2013-12-18 17:50:00,36.9,22.7,30.16,WNW,301,0.0,0.0,56,0.00,,,0.00,0.00,VWS V14.01,2013-12-18 22:50:00,
2013-12-18 17:51:00,36.8,22.6,30.16,WNW,301,0.0,0.0,56,0.00,,,0.00,0.00,VWS V14.01,2013-12-18 22:51:00,
2013-12-18 17:52:00,36.8,22.6,30.16,WNW,301,0.0,0.0,56,0.00,,,0.00,0.00,VWS V14.01,2013-12-18 22:52:00,
2013-12-18 17:53:00,36.6,22.4,30.16,WNW,301,0.0,0.0,56,0.00,,,0.00,0.00,VWS V14.01,2013-12-18 22:53:00,
2013-12-18 17:54:00,36.6,22.4,30.16,WNW,301,0.0,0.0,56,0.00,,,0.00,0.00,VWS V14.01,2013-12-18 22:54:00,
2013-12-18 17:55:00,36.5,22.3,30.16,WNW,301,0.0,0.0,56,0.00,,,0.00,0.00,VWS V14.01,2013-12-18 22:55:00,
2013-12-18 17:56:00,36.5,22.3,30.16,WNW,301,0.0,0.0,56,0.00,,,0.00,0.00,VWS V14.01,2013-12-18 22:56:00,
2013-12-18 17:57:00,36.5,22.3,30.16,WNW,301,0.0,0.0,56,0.00,,,0.00,0.00,VWS V14.01,2013-12-18 22:57:00,
2013-12-18 17:58:00,36.5,22.3,30.16,WNW,301,0.0,0.0,56,0.00,,,0.00,0.00,VWS V14.01,2013-12-18 22:58:00,
2013-12-18 17:59:00,36.2,23.3,30.16,WNW,301,0.0,0.0,59,0.00,,,0.00,0.00,VWS V14.01,2013-12-18 22:59:00,
2013-12-18 18:00:00,36.2,23.7,30.16,WNW,301,0.0,0.0,60,0.00,,,0.00,0.00,VWS V14.01,2013-12-18 23:00:00,
2013-12-18 18:01:00,36.0,23.5,30.16,WNW,301,0.0,0.0,60,0.00,,,0.00,0.00,VWS V14.01,2013-12-18 23:01:00,
2013-12-18 18:02:00,36.0,23.5,30.16,WNW,301,0.0,0.0,60,0.00,,,0.00,0.00,VWS V14.01,2013-12-18 23:02:00,
2013-12-18 18:03:00,35.9,23.4,30.16,WNW,301,0.0,0.0,60,0.00,,,0.00,0.00,VWS V14.01,2013-12-18 23:03:00,
2013-12-18 18:04:00,35.9,23.4,30.16,WNW,301,0.0,0.0,60,0.00,,,0.00,0.00,VWS V14.01,2013-12-18 23:04:00,
2013-12-18 18:05:00,35.8,23.3,30.16,WNW,301,0.0,0.0,60,0.00,,,0.00,0.00,VWS V14.01,2013-12-18 23:05:00,
2013-12-18 18:06:00,35.8,23.3,30.16,WNW,301,0.0,0.0,60,0.00,,,0.00,0.00,VWS V14.01,2013-12-18 23:06:00,
2013-12-18 18:07:00,35.6,23.1,30.16,WNW,301,0.0,0.0,60,0.00,,,0.00,0.00,VWS V14.01,2013-12-18 23:07:00,
2013-12-18 18:08:00,35.5,23.0,30.16,WNW,301,0.0,0.0,60,0.00,,,0.00,0.00,VWS V14.01,2013-12-18 23:08:00,
2013-12-18 18:09:00,35.5,23.0,30.16,WNW,301,0.0,0.0,60,0.00,,,0.00,0.00,VWS V14.01,2013-12-18 23:09:00,
2013-12-18 18:10:00,35.3,22.8,30.16,WNW,301,0.0,0.0,60,0.00,,,0.00,0.00,VWS V14.01,2013-12-18 23:10:00,
2013-12-18 18:11:00,35.3,22.8,30.16,WNW,301,0.0,0.0,60,0.00,,,0.00,0.00,VWS V14.01,2013-12-18 23:11:00,
2013-12-18 18:12:00,35.2,22.7,30.16,WNW,301,0.0,0.0,60,0.00,,,0.00,0.00,VWS V14.01,2013-12-18 23:12:00,
2013-12-18 18:13:00,35.2,22.7,30.16,WNW,301,0.0,0.0,60,0.00,,,0.00,0.00,VWS V14.01,2013-12-18 23:13:00,
2013-12-18 18:14:00,35.0,22.5,30.16,WNW,301,0.0,0.0,60,0.00,,,0.00,0.00,VWS V14.01,2013-12-18 23:14:00,
2013-12-18 18:15:00,34.9,22.4,30.16,WNW,301,0.0,0.0,60,0.00,,,0.00,0.00,VWS V14.01,2013-12-18 23:15:00,
2013-12-18 18:16:00,34.9,22.4,30.16,WNW,301,0.0,0.0,60,0.00,,,0.00,0.00,VWS V14.01,2013-12-18 23:16:00,
2013-12-18 18:17:00,34.9,22.8,30.16,WNW,301,0.0,0.0,61,0.00,,,0.00,0.00,VWS V14.01,2013-12-18 23:17:00,
2013-12-18 18:18:00,34.7,22.6,30.16,WNW,301,0.0,0.0,61,0.00,,,0.00,0.00,VWS V14.01,2013-12-18 23:18:00,
2013-12-18 18:19:00,34.6,22.5,30.16,WNW,301,0.0,0.0,61,0.00,,,0.00,0.00,VWS V14.01,2013-12-18 23:19:00,
2013-12-18 18:20:00,34.6,22.5,30.16,WNW,301,0.0,0.0,61,0.00,,,0.00,0.00,VWS V14.01,2013-12-18 23:20:00,
2013-12-18 18:21:00,34.4,22.4,30.16,WNW,301,0.0,0.0,61,0.00,,,0.00,0.00,VWS V14.01,2013-12-18 23:21:00,
2013-12-18 18:22:00,34.4,22.7,30.16,WNW,301,0.0,0.0,62,0.00,,,0.00,0.00,VWS V14.01,2013-12-18 23:22:00,
2013-12-18 18:23:00,34.3,22.6,30.16,WNW,301,0.0,0.0,62,0.00,,,0.00,0.00,VWS V14.01,2013-12-18 23:23:00,
2013-12-18 18:24:00,34.3,23.0,30.16,WNW,301,0.0,0.0,63,0.00,,,0.00,0.00,VWS V14.01,2013-12-18 23:24:00,
2013-12-18 18:25:00,34.1,22.8,30.16,WNW,301,0.0,0.0,63,0.00,,,0.00,0.00,VWS V14.01,2013-12-18 23:25:00,
2013-12-18 18:26:00,34.1,23.2,30.16,WNW,301,0.0,0.0,64,0.00,,,0.00,0.00,VWS V14.01,2013-12-18 23:26:00,
2013-12-18 18:27:00,34.1,23.2,30.16,WNW,301,0.0,0.0,64,0.00,,,0.00,0.00,VWS V14.01,2013-12-18 23:27:00,
2013-12-18 18:28:00,34.0,23.5,30.16,WNW,301,0.0,0.0,65,0.00,,,0.00,0.00,VWS V14.01,2013-12-18 23:28:00,
2013-12-18 18:29:00,34.0,23.9,30.16,WNW,301,0.0,0.0,66,0.00,,,0.00,0.00,VWS V14.01,2013-12-18 23:29:00,
2013-12-18 18:30:00,33.8,23.7,30.16,WNW,301,0.0,0.0,66,0.00,,,0.00,0.00,VWS V14.01,2013-12-18 23:30:00,
2013-12-18 18:31:00,33.8,24.0,30.16,WNW,301,0.0,0.0,67,0.00,,,0.00,0.00,VWS V14.01,2013-12-18 23:31:00,
2013-12-18 18:32:00,33.8,24.0,30.16,WNW,301,0.0,0.0,67,0.00,,,0.00,0.00,VWS V14.01,2013-12-18 23:32:00,
2013-12-18 18:33:00,33.7,23.9,30.16,WNW,301,0.0,0.0,67,0.00,,,0.00,0.00,VWS V14.01,2013-12-18 23:33:00,
2013-12-18 18:34:00,33.7,23.9,30.16,WNW,301,0.0,0.0,67,0.00,,,0.00,0.00,VWS V14.01,2013-12-18 23:34:00,
2013-12-18 18:35:00,33.5,23.7,30.16,WNW,301,0.0,0.0,67,0.00,,,0.00,0.00,VWS V14.01,2013-12-18 23:35:00,
2013-12-18 18:36:00,33.5,23.7,30.16,WNW,301,0.0,0.0,67,0.00,,,0.00,0.00,VWS V14.01,2013-12-18 23:36:00,
2013-12-18 18:37:00,33.5,23.7,30.16,WNW,301,0.0,0.0,67,0.00,,,0.00,0.00,VWS V14.01,2013-12-18 23:37:00,
2013-12-18 18:38:00,33.4,23.6,30.16,WNW,301,0.0,0.0,67,0.00,,,0.00,0.00,VWS V14.01,2013-12-18 23:38:00,
2013-12-18 18:39:00,33.4,23.6,30.16,WNW,301,0.0,0.0,67,0.00,,,0.00,0.00,VWS V14.01,2013-12-18 23:39:00,
2013-12-18 18:40:00,33.4,23.6,30.16,WNW,301,0.0,0.0,67,0.00,,,0.00,0.00,VWS V14.01,2013-12-18 23:40:00,
2013-12-18 18:41:00,33.2,23.5,30.16,WNW,301,0.0,0.0,67,0.00,,,0.00,0.00,VWS V14.01,2013-12-18 23:41:00,
2013-12-18 18:42:00,33.2,23.5,30.16,WNW,301,0.0,0.0,67,0.00,,,0.00,0.00,VWS V14.01,2013-12-18 23:42:00,
2013-12-18 18:43:00,33.2,23.8,30.16,WNW,301,0.0,0.0,68,0.00,,,0.00,0.00,VWS V14.01,2013-12-18 23:43:00,
2013-12-18 18:44:00,33.1,23.7,30.16,WNW,301,0.0,0.0,68,0.00,,,0.00,0.00,VWS V14.01,2013-12-18 23:44:00,
2013-12-18 18:45:00,33.1,24.0,30.17,WNW,301,0.0,0.0,69,0.00,,,0.00,0.00,VWS V14.01,2013-12-18 23:45:00,
2013-12-18 18:46:00,33.1,23.7,30.17,WNW,301,0.0,0.0,68,0.00,,,0.00,0.00,VWS V14.01,2013-12-18 23:46:00,
2013-12-18 18:47:00,32.9,23.5,30.17,WNW,301,0.0,0.0,68,0.00,,,0.00,0.00,VWS V14.01,2013-12-18 23:47:00,
2013-12-18 18:48:00,32.9,23.5,30.17,WNW,301,0.0,0.0,68,0.00,,,0.00,0.00,VWS V14.01,2013-12-18 23:48:00,
2013-12-18 18:49:00,32.8,23.4,30.17,WNW,301,0.0,0.0,68,0.00,,,0.00,0.00,VWS V14.01,2013-12-18 23:49:00,
2013-12-18 18:50:00,32.8,23.4,30.17,WNW,301,0.0,0.0,68,0.00,,,0.00,0.00,VWS V14.01,2013-12-18 23:50:00,
2013-12-18 18:51:00,32.8,23.4,30.17,WNW,301,0.0,0.0,68,0.00,,,0.00,0.00,VWS V14.01,2013-12-18 23:51:00,
2013-12-18 18:52:00,32.7,23.3,30.17,WNW,301,0.0,0.0,68,0.00,,,0.00,0.00,VWS V14.01,2013-12-18 23:52:00,
2013-12-18 18:53:00,32.7,23.7,30.17,WNW,301,0.0,0.0,69,0.00,,,0.00,0.00,VWS V14.01,2013-12-18 23:53:00,
2013-12-18 18:54:00,32.7,23.7,30.17,WNW,301,0.0,0.0,69,0.00,,,0.00,0.00,VWS V14.01,2013-12-18 23:54:00,
2013-12-18 18:55:00,32.5,23.5,30.17,WNW,301,0.0,0.0,69,0.00,,,0.00,0.00,VWS V14.01,2013-12-18 23:55:00,
2013-12-18 18:56:00,32.5,23.5,30.17,WNW,301,0.0,0.0,69,0.00,,,0.00,0.00,VWS V14.01,2013-12-18 23:56:00,
2013-12-18 18:57:00,32.4,23.4,30.17,WNW,301,0.0,0.0,69,0.00,,,0.00,0.00,VWS V14.01,2013-12-18 23:57:00,
2013-12-18 18:58:00,32.4,23.4,30.17,WNW,301,0.0,0.0,69,0.00,,,0.00,0.00,VWS V14.01,2013-12-18 23:58:00,
2013-12-18 18:59:00,32.4,23.4,30.17,WNW,301,0.0,0.0,69,0.00,,,0.00,0.00,VWS V14.01,2013-12-18 23:59:00,
2013-12-18 19:00:00,32.2,22.8,30.17,WNW,301,0.0,0.0,68,0.00,,,0.00,0.00,VWS V14.01,2013-12-19 00:00:00,
2013-12-18 19:01:00,32.2,23.5,30.17,WNW,301,0.0,0.0,70,0.00,,,0.00,0.00,VWS V14.01,2013-12-19 00:01:00,
2013-12-18 19:02:00,32.2,23.5,30.17,WNW,301,0.0,0.0,70,0.00,,,0.00,0.00,VWS V14.01,2013-12-19 00:02:00,
2013-12-18 19:03:00,32.2,23.9,30.17,WNW,301,0.0,0.0,71,0.00,,,0.00,0.00,VWS V14.01,2013-12-19 00:03:00,
2013-12-18 19:04:00,32.2,23.9,30.17,WNW,301,0.0,0.0,71,0.00,,,0.00,0.00,VWS V14.01,2013-12-19 00:04:00,
2013-12-18 19:05:00,32.2,24.2,30.17,WNW,301,0.0,0.0,72,0.00,,,0.00,0.00,VWS V14.01,2013-12-19 00:05:00,
2013-12-18 19:06:00,32.1,24.1,30.17,WNW,301,0.0,0.0,72,0.00,,,0.00,0.00,VWS V14.01,2013-12-19 00:06:00,
2013-12-18 19:07:00,32.1,24.1,30.17,WNW,301,0.0,0.0,72,0.00,,,0.00,0.00,VWS V14.01,2013-12-19 00:07:00,
2013-12-18 19:08:00,32.1,24.1,30.17,WNW,301,0.0,0.0,72,0.00,,,0.00,0.00,VWS V14.01,2013-12-19 00:08:00,
2013-12-18 19:09:00,32.1,24.1,30.17,WNW,301,0.0,0.0,72,0.00,,,0.00,0.00,VWS V14.01,2013-12-19 00:09:00,
2013-12-18 19:10:00,31.9,24.2,30.17,WNW,301,0.0,0.0,73,0.00,,,0.00,0.00,VWS V14.01,2013-12-19 00:10:00,
2013-12-18 19:11:00,31.9,24.2,30.17,WNW,301,0.0,0.0,73,0.00,,,0.00,0.00,VWS V14.01,2013-12-19 00:11:00,
2013-12-18 19:12:00,31.9,24.2,30.17,WNW,301,0.0,0.0,73,0.00,,,0.00,0.00,VWS V14.01,2013-12-19 00:12:00,
2013-12-18 19:13:00,31.9,24.2,30.17,WNW,301,0.0,0.0,73,0.00,,,0.00,0.00,VWS V14.01,2013-12-19 00:13:00,
2013-12-18 19:14:00,31.8,24.1,30.17,WNW,301,0.0,0.0,73,0.00,,,0.00,0.00,VWS V14.01,2013-12-19 00:14:00,
2013-12-18 19:15:00,31.8,24.1,30.18,WNW,301,0.0,0.0,73,0.00,,,0.00,0.00,VWS V14.01,2013-12-19 00:15:00,
2013-12-18 19:16:00,31.8,24.1,30.18,WNW,301,0.0,0.0,73,0.00,,,0.00,0.00,VWS V14.01,2013-12-19 00:16:00,
2013-12-18 19:17:00,31.8,24.1,30.18,WNW,301,0.0,0.0,73,0.00,,,0.00,0.00,VWS V14.01,2013-12-19 00:17:00,
2013-12-18 19:18:00,31.8,24.5,30.18,WNW,301,0.0,0.0,74,0.00,,,0.00,0.00,VWS V14.01,2013-12-19 00:18:00,
2013-12-18 19:19:00,31.8,24.5,30.18,WNW,301,0.0,0.0,74,0.00,,,0.00,0.00,VWS V14.01,2013-12-19 00:19:00,
2013-12-18 19:20:00,31.8,24.5,30.18,WNW,301,0.0,0.0,74,0.00,,,0.00,0.00,VWS V14.01,2013-12-19 00:20:00,
2013-12-18 19:21:00,31.8,24.5,30.18,WNW,301,0.0,0.0,74,0.00,,,0.00,0.00,VWS V14.01,2013-12-19 00:21:00,
2013-12-18 19:22:00,31.8,24.5,30.18,WNW,301,0.0,0.0,74,0.00,,,0.00,0.00,VWS V14.01,2013-12-19 00:22:00,
2013-12-18 19:23:00,31.6,24.3,30.18,WNW,301,0.0,0.0,74,0.00,,,0.00,0.00,VWS V14.01,2013-12-19 00:23:00,
2013-12-18 19:24:00,31.6,24.3,30.18,WNW,301,0.0,0.0,74,0.00,,,0.00,0.00,VWS V14.01,2013-12-19 00:24:00,
2013-12-18 19:25:00,31.6,24.6,30.18,WNW,301,0.0,0.0,75,0.00,,,0.00,0.00,VWS V14.01,2013-12-19 00:25:00,
2013-12-18 19:26:00,31.6,24.6,30.18,WNW,301,0.0,0.0,75,0.00,,,0.00,0.00,VWS V14.01,2013-12-19 00:26:00,
2013-12-18 19:27:00,31.6,24.6,30.18,WNW,301,0.0,0.0,75,0.00,,,0.00,0.00,VWS V14.01,2013-12-19 00:27:00,
2013-12-18 19:28:00,31.6,24.6,30.18,WNW,301,0.0,0.0,75,0.00,,,0.00,0.00,VWS V14.01,2013-12-19 00:28:00,
2013-12-18 19:29:00,31.5,24.5,30.18,WNW,301,0.0,0.0,75,0.00,,,0.00,0.00,VWS V14.01,2013-12-19 00:29:00,
2013-12-18 19:30:00,31.5,24.5,30.18,WNW,301,0.0,0.0,75,0.00,,,0.00,0.00,VWS V14.01,2013-12-19 00:30:00,
2013-12-18 19:31:00,31.5,24.5,30.18,WNW,301,0.0,0.0,75,0.00,,,0.00,0.00,VWS V14.01,2013-12-19 00:31:00,
2013-12-18 19:32:00,31.5,24.5,30.18,WNW,301,0.0,0.0,75,0.00,,,0.00,0.00,VWS V14.01,2013-12-19 00:32:00,
2013-12-18 19:33:00,31.3,24.3,30.18,WNW,301,0.0,0.0,75,0.00,,,0.00,0.00,VWS V14.01,2013-12-19 00:33:00,
2013-12-18 19:34:00,31.3,24.3,30.18,WNW,301,0.0,0.0,75,0.00,,,0.00,0.00,VWS V14.01,2013-12-19 00:34:00,
2013-12-18 19:35:00,31.3,24.3,30.18,WNW,301,0.0,0.0,75,0.00,,,0.00,0.00,VWS V14.01,2013-12-19 00:35:00,
2013-12-18 19:36:00,31.2,24.2,30.18,WNW,301,0.0,0.0,75,0.00,,,0.00,0.00,VWS V14.01,2013-12-19 00:36:00,
2013-12-18 19:37:00,31.2,24.2,30.18,WNW,301,0.0,0.0,75,0.00,,,0.00,0.00,VWS V14.01,2013-12-19 00:37:00,
2013-12-18 19:38:00,31.2,23.9,30.18,WNW,301,0.0,0.0,74,0.00,,,0.00,0.00,VWS V14.01,2013-12-19 00:38:00,
2013-12-18 19:39:00,31.0,23.7,30.18,WNW,301,0.0,0.0,74,0.00,,,0.00,0.00,VWS V14.01,2013-12-19 00:39:00,
2013-12-18 19:40:00,31.0,23.7,30.18,WNW,301,0.0,0.0,74,0.00,,,0.00,0.00,VWS V14.01,2013-12-19 00:40:00,
2013-12-18 19:41:00,31.0,23.7,30.18,WNW,301,0.0,0.0,74,0.00,,,0.00,0.00,VWS V14.01,2013-12-19 00:41:00,
2013-12-18 19:42:00,31.0,23.7,30.18,WNW,301,0.0,0.0,74,0.00,,,0.00,0.00,VWS V14.01,2013-12-19 00:42:00,
2013-12-18 19:43:00,30.9,23.6,30.18,WNW,301,0.0,0.0,74,0.00,,,0.00,0.00,VWS V14.01,2013-12-19 00:43:00,
2013-12-18 19:44:00,30.9,23.6,30.18,WNW,301,0.0,0.0,74,0.00,,,0.00,0.00,VWS V14.01,2013-12-19 00:44:00,
2013-12-18 19:45:00,30.9,23.6,30.18,WNW,301,0.0,0.0,74,0.00,,,0.00,0.00,VWS V14.01,2013-12-19 00:45:00,
2013-12-18 19:46:00,30.7,23.4,30.18,WNW,301,0.0,0.0,74,0.00,,,0.00,0.00,VWS V14.01,2013-12-19 00:46:00,
2013-12-18 19:47:00,30.7,23.4,30.18,WNW,301,0.0,0.0,74,0.00,,,0.00,0.00,VWS V14.01,2013-12-19 00:47:00,
2013-12-18 19:48:00,30.7,23.4,30.18,WNW,301,0.0,0.0,74,0.00,,,0.00,0.00,VWS V14.01,2013-12-19 00:48:00,
2013-12-18 19:49:00,30.6,23.3,30.18,WNW,301,0.0,0.0,74,0.00,,,0.00,0.00,VWS V14.01,2013-12-19 00:49:00,
2013-12-18 19:50:00,30.6,23.6,30.18,WNW,301,0.0,0.0,75,0.00,,,0.00,0.00,VWS V14.01,2013-12-19 00:50:00,
2013-12-18 19:51:00,30.6,23.6,30.18,WNW,301,0.0,0.0,75,0.00,,,0.00,0.00,VWS V14.01,2013-12-19 00:51:00,
2013-12-18 19:52:00,30.6,23.6,30.18,WNW,301,0.0,0.0,75,0.00,,,0.00,0.00,VWS V14.01,2013-12-19 00:52:00,
2013-12-18 19:53:00,30.4,23.4,30.18,WNW,301,0.0,0.0,75,0.00,,,0.00,0.00,VWS V14.01,2013-12-19 00:53:00,
2013-12-18 19:54:00,30.4,23.4,30.18,WNW,301,0.0,0.0,75,0.00,,,0.00,0.00,VWS V14.01,2013-12-19 00:54:00,
2013-12-18 19:55:00,30.4,23.4,30.18,WNW,301,0.0,0.0,75,0.00,,,0.00,0.00,VWS V14.01,2013-12-19 00:55:00,
2013-12-18 19:56:00,30.3,23.3,30.18,WNW,301,0.0,0.0,75,0.00,,,0.00,0.00,VWS V14.01,2013-12-19 00:56:00,
2013-12-18 19:57:00,30.3,23.7,30.18,WNW,301,0.0,0.0,76,0.00,,,0.00,0.00,VWS V14.01,2013-12-19 00:57:00,
2013-12-18 19:58:00,30.3,23.7,30.18,WNW,301,0.0,0.0,76,0.00,,,0.00,0.00,VWS V14.01,2013-12-19 00:58:00,
2013-12-18 19:59:00,30.3,23.7,30.18,WNW,301,0.0,0.0,76,0.00,,,0.00,0.00,VWS V14.01,2013-12-19 00:59:00,
2013-12-18 20:00:00,30.1,23.5,30.18,WNW,301,0.0,0.0,76,0.00,,,0.00,0.00,VWS V14.01,2013-12-19 01:00:00,
2013-12-18 20:01:00,30.1,23.5,30.18,WNW,301,0.0,0.0,76,0.00,,,0.00,0.00,VWS V14.01,2013-12-19 01:01:00,
2013-12-18 20:02:00,30.1,23.5,30.18,WNW,301,0.0,0.0,76,0.00,,,0.00,0.00,VWS V14.01,2013-12-19 01:02:00,
2013-12-18 20:03:00,30.1,23.5,30.18,WNW,301,0.0,0.0,76,0.00,,,0.00,0.00,VWS V14.01,2013-12-19 01:03:00,
2013-12-18 20:04:00,30.0,23.4,30.18,WNW,301,0.0,0.0,76,0.00,,,0.00,0.00,VWS V14.01,2013-12-19 01:04:00,
2013-12-18 20:05:00,30.0,23.4,30.18,WNW,301,0.0,0.0,76,0.00,,,0.00,0.00,VWS V14.01,2013-12-19 01:05:00,
2013-12-18 20:06:00,30.0,23.4,30.18,WNW,301,0.0,0.0,76,0.00,,,0.00,0.00,VWS V14.01,2013-12-19 01:06:00,
2013-12-18 20:07:00,29.8,23.2,30.18,WNW,301,0.0,0.0,76,0.00,,,0.00,0.00,VWS V14.01,2013-12-19 01:07:00,
2013-12-18 20:08:00,29.8,23.2,30.18,WNW,301,0.0,0.0,76,0.00,,,0.00,0.00,VWS V14.01,2013-12-19 01:08:00,
2013-12-18 20:09:00,29.8,23.2,30.18,WNW,301,0.0,0.0,76,0.00,,,0.00,0.00,VWS V14.01,2013-12-19 01:09:00,
2013-12-18 20:10:00,29.8,23.2,30.18,WNW,301,0.0,0.0,76,0.00,,,0.00,0.00,VWS V14.01,2013-12-19 01:10:00,
2013-12-18 20:11:00,29.7,23.1,30.18,WNW,301,0.0,0.0,76,0.00,,,0.00,0.00,VWS V14.01,2013-12-19 01:11:00,
2013-12-18 20:12:00,29.7,23.1,30.18,WNW,301,0.0,0.0,76,0.00,,,0.00,0.00,VWS V14.01,2013-12-19 01:12:00,
2013-12-18 20:13:00,29.7,23.1,30.18,WNW,301,0.0,0.0,76,0.00,,,0.00,0.00,VWS V14.01,2013-12-19 01:13:00,
2013-12-18 20:14:00,29.5,22.9,30.18,WNW,301,0.0,0.0,76,0.00,,,0.00,0.00,VWS V14.01,2013-12-19 01:14:00,
2013-12-18 20:15:00,29.5,22.9,30.18,WNW,301,0.0,0.0,76,0.00,,,0.00,0.00,VWS V14.01,2013-12-19 01:15:00,
2013-12-18 20:16:00,29.5,23.2,30.18,WNW,301,0.0,0.0,77,0.00,,,0.00,0.00,VWS V14.01,2013-12-19 01:16:00,
2013-12-18 20:17:00,29.5,23.2,30.18,WNW,301,0.0,0.0,77,0.00,,,0.00,0.00,VWS V14.01,2013-12-19 01:17:00,
2013-12-18 20:18:00,29.5,23.2,30.18,WNW,301,0.0,0.0,77,0.00,,,0.00,0.00,VWS V14.01,2013-12-19 01:18:00,
2013-12-18 20:19:00,29.5,23.2,30.18,WNW,301,0.0,0.0,77,0.00,,,0.00,0.00,VWS V14.01,2013-12-19 01:19:00,
2013-12-18 20:20:00,29.5,23.2,30.18,WNW,301,0.0,0.0,77,0.00,,,0.00,0.00,VWS V14.01,2013-12-19 01:20:00,
2013-12-18 20:21:00,29.5,23.2,30.18,WNW,301,0.0,0.0,77,0.00,,,0.00,0.00,VWS V14.01,2013-12-19 01:21:00,
2013-12-18 20:22:00,29.4,23.1,30.18,WNW,301,0.0,0.0,77,0.00,,,0.00,0.00,VWS V14.01,2013-12-19 01:22:00,
2013-12-18 20:23:00,29.4,23.4,30.18,WNW,301,0.0,0.0,78,0.00,,,0.00,0.00,VWS V14.01,2013-12-19 01:23:00,
2013-12-18 20:24:00,29.4,23.4,30.18,WNW,301,0.0,0.0,78,0.00,,,0.00,0.00,VWS V14.01,2013-12-19 01:24:00,
2013-12-18 20:25:00,29.4,23.4,30.18,WNW,301,0.0,0.0,78,0.00,,,0.00,0.00,VWS V14.01,2013-12-19 01:25:00,
2013-12-18 20:26:00,29.4,23.4,30.18,WNW,301,0.0,0.0,78,0.00,,,0.00,0.00,VWS V14.01,2013-12-19 01:26:00,
2013-12-18 20:27:00,29.4,23.4,30.18,WNW,301,0.0,0.0,78,0.00,,,0.00,0.00,VWS V14.01,2013-12-19 01:27:00,
2013-12-18 20:28:00,29.3,23.6,30.18,WNW,301,0.0,0.0,79,0.00,,,0.00,0.00,VWS V14.01,2013-12-19 01:28:00,
2013-12-18 20:29:00,29.3,23.6,30.18,WNW,301,0.0,0.0,79,0.00,,,0.00,0.00,VWS V14.01,2013-12-19 01:29:00,
2013-12-18 20:30:00,29.3,23.6,30.18,WNW,301,0.0,0.0,79,0.00,,,0.00,0.00,VWS V14.01,2013-12-19 01:30:00,
2013-12-18 20:31:00,29.3,23.6,30.18,WNW,301,0.0,0.0,79,0.00,,,0.00,0.00,VWS V14.01,2013-12-19 01:31:00,
2013-12-18 20:32:00,29.3,23.6,30.18,WNW,301,0.0,0.0,79,0.00,,,0.00,0.00,VWS V14.01,2013-12-19 01:32:00,
2013-12-18 20:33:00,29.3,23.6,30.18,WNW,301,0.0,0.0,79,0.00,,,0.00,0.00,VWS V14.01,2013-12-19 01:33:00,
2013-12-18 20:34:00,29.1,23.4,30.18,WNW,301,0.0,0.0,79,0.00,,,0.00,0.00,VWS V14.01,2013-12-19 01:34:00,
2013-12-18 20:35:00,29.1,23.4,30.18,WNW,301,0.0,0.0,79,0.00,,,0.00,0.00,VWS V14.01,2013-12-19 01:35:00,
2013-12-18 20:36:00,29.1,23.4,30.18,WNW,301,0.0,0.0,79,0.00,,,0.00,0.00,VWS V14.01,2013-12-19 01:36:00,
2013-12-18 20:37:00,29.0,23.3,30.18,WNW,301,0.0,0.0,79,0.00,,,0.00,0.00,VWS V14.01,2013-12-19 01:37:00,
2013-12-18 20:38:00,29.0,23.3,30.18,WNW,301,0.0,0.0,79,0.00,,,0.00,0.00,VWS V14.01,2013-12-19 01:38:00,
2013-12-18 20:39:00,29.0,23.3,30.18,WNW,301,0.0,0.0,79,0.00,,,0.00,0.00,VWS V14.01,2013-12-19 01:39:00,
2013-12-18 20:40:00,29.0,23.3,30.18,WNW,301,0.0,0.0,79,0.00,,,0.00,0.00,VWS V14.01,2013-12-19 01:40:00,
2013-12-18 20:41:00,28.8,23.1,30.18,WNW,301,0.0,0.0,79,0.00,,,0.00,0.00,VWS V14.01,2013-12-19 01:41:00,
2013-12-18 20:42:00,28.8,23.1,30.18,WNW,301,0.0,0.0,79,0.00,,,0.00,0.00,VWS V14.01,2013-12-19 01:42:00,
2013-12-18 20:43:00,28.8,23.1,30.18,WNW,301,0.0,1.0,79,0.00,,,0.00,0.00,VWS V14.01,2013-12-19 01:43:00,
2013-12-18 20:44:00,28.8,23.1,30.18,WNW,301,0.0,0.0,79,0.00,,,0.00,0.00,VWS V14.01,2013-12-19 01:44:00,
2013-12-18 20:45:00,28.8,23.4,30.18,WNW,301,0.0,0.0,80,0.00,,,0.00,0.00,VWS V14.01,2013-12-19 01:45:00,
2013-12-18 20:46:00,28.8,23.4,30.18,WNW,301,0.0,0.0,80,0.00,,,0.00,0.00,VWS V14.01,2013-12-19 01:46:00,
2013-12-18 20:47:00,28.8,23.4,30.18,WNW,301,0.0,0.0,80,0.00,,,0.00,0.00,VWS V14.01,2013-12-19 01:47:00,
2013-12-18 20:48:00,28.8,23.4,30.18,WNW,301,0.0,0.0,80,0.00,,,0.00,0.00,VWS V14.01,2013-12-19 01:48:00,
2013-12-18 20:49:00,28.8,23.4,30.18,WNW,301,0.0,0.0,80,0.00,,,0.00,0.00,VWS V14.01,2013-12-19 01:49:00,
2013-12-18 20:50:00,28.8,23.4,30.18,WNW,301,0.0,0.0,80,0.00,,,0.00,0.00,VWS V14.01,2013-12-19 01:50:00,
2013-12-18 20:51:00,28.8,23.4,30.18,WNW,301,0.0,0.0,80,0.00,,,0.00,0.00,VWS V14.01,2013-12-19 01:51:00,
2013-12-18 20:52:00,28.8,23.4,30.18,WNW,301,0.0,0.0,80,0.00,,,0.00,0.00,VWS V14.01,2013-12-19 01:52:00,
2013-12-18 20:53:00,28.8,23.4,30.18,WNW,301,0.0,0.0,80,0.00,,,0.00,0.00,VWS V14.01,2013-12-19 01:53:00,
2013-12-18 20:54:00,28.8,23.4,30.18,WNW,301,0.0,0.0,80,0.00,,,0.00,0.00,VWS V14.01,2013-12-19 01:54:00,
2013-12-18 20:55:00,28.8,23.4,30.18,WNW,301,0.0,0.0,80,0.00,,,0.00,0.00,VWS V14.01,2013-12-19 01:55:00,
2013-12-18 20:56:00,28.8,23.7,30.18,WNW,301,0.0,0.0,81,0.00,,,0.00,0.00,VWS V14.01,2013-12-19 01:56:00,
2013-12-18 20:57:00,28.8,23.7,30.18,WNW,301,0.0,0.0,81,0.00,,,0.00,0.00,VWS V14.01,2013-12-19 01:57:00,
2013-12-18 20:58:00,28.8,23.7,30.18,WNW,301,0.0,0.0,81,0.00,,,0.00,0.00,VWS V14.01,2013-12-19 01:58:00,
2013-12-18 20:59:00,28.8,23.7,30.18,WNW,301,0.0,0.0,81,0.00,,,0.00,0.00,VWS V14.01,2013-12-19 01:59:00,
2013-12-18 21:00:00,28.7,23.6,30.18,WNW,301,0.0,0.0,81,0.00,,,0.00,0.00,VWS V14.01,2013-12-19 02:00:00,
2013-12-18 21:01:00,28.7,23.6,30.18,WNW,301,0.0,0.0,81,0.00,,,0.00,0.00,VWS V14.01,2013-12-19 02:01:00,
2013-12-18 21:02:00,28.7,23.6,30.18,WNW,301,0.0,0.0,81,0.00,,,0.00,0.00,VWS V14.01,2013-12-19 02:02:00,
2013-12-18 21:03:00,28.7,23.6,30.18,WNW,301,0.0,0.0,81,0.00,,,0.00,0.00,VWS V14.01,2013-12-19 02:03:00,
2013-12-18 21:04:00,28.7,23.6,30.18,WNW,301,0.0,0.0,81,0.00,,,0.00,0.00,VWS V14.01,2013-12-19 02:04:00,
2013-12-18 21:05:00,28.7,23.6,30.18,WNW,301,0.0,0.0,81,0.00,,,0.00,0.00,VWS V14.01,2013-12-19 02:05:00,
2013-12-18 21:06:00,28.7,23.6,30.18,WNW,301,0.0,0.0,81,0.00,,,0.00,0.00,VWS V14.01,2013-12-19 02:06:00,
2013-12-18 21:07:00,28.7,23.6,30.18,WNW,301,0.0,0.0,81,0.00,,,0.00,0.00,VWS V14.01,2013-12-19 02:07:00,
2013-12-18 21:08:00,28.5,23.4,30.18,WNW,301,0.0,0.0,81,0.00,,,0.00,0.00,VWS V14.01,2013-12-19 02:08:00,
2013-12-18 21:09:00,28.5,23.4,30.18,WNW,301,0.0,0.0,81,0.00,,,0.00,0.00,VWS V14.01,2013-12-19 02:09:00,
2013-12-18 21:10:00,28.5,23.4,30.18,WNW,301,0.0,0.0,81,0.00,,,0.00,0.00,VWS V14.01,2013-12-19 02:10:00,
2013-12-18 21:11:00,28.5,23.4,30.18,WNW,301,0.0,0.0,81,0.00,,,0.00,0.00,VWS V14.01,2013-12-19 02:11:00,
2013-12-18 21:12:00,28.5,23.4,30.18,WNW,301,0.0,0.0,81,0.00,,,0.00,0.00,VWS V14.01,2013-12-19 02:12:00,
2013-12-18 21:13:00,28.4,23.3,30.18,WNW,301,0.0,0.0,81,0.00,,,0.00,0.00,VWS V14.01,2013-12-19 02:13:00,
2013-12-18 21:14:00,28.4,23.3,30.18,WNW,301,0.0,0.0,81,0.00,,,0.00,0.00,VWS V14.01,2013-12-19 02:14:00,
2013-12-18 21:15:00,28.4,23.3,30.18,WNW,301,0.0,0.0,81,0.00,,,0.00,0.00,VWS V14.01,2013-12-19 02:15:00,
2013-12-18 21:16:00,28.4,23.3,30.18,WNW,301,0.0,0.0,81,0.00,,,0.00,0.00,VWS V14.01,2013-12-19 02:16:00,
2013-12-18 21:17:00,28.4,23.3,30.18,WNW,301,0.0,0.0,81,0.00,,,0.00,0.00,VWS V14.01,2013-12-19 02:17:00,
2013-12-18 21:18:00,28.4,23.3,30.18,WNW,301,0.0,0.0,81,0.00,,,0.00,0.00,VWS V14.01,2013-12-19 02:18:00,
2013-12-18 21:19:00,28.2,23.1,30.18,WNW,301,0.0,0.0,81,0.00,,,0.00,0.00,VWS V14.01,2013-12-19 02:19:00,
2013-12-18 21:20:00,28.2,23.1,30.18,WNW,301,0.0,0.0,81,0.00,,,0.00,0.00,VWS V14.01,2013-12-19 02:20:00,
2013-12-18 21:21:00,28.2,23.1,30.18,WNW,301,0.0,0.0,81,0.00,,,0.00,0.00,VWS V14.01,2013-12-19 02:21:00,
2013-12-18 21:22:00,28.2,23.1,30.18,WNW,301,0.0,0.0,81,0.00,,,0.00,0.00,VWS V14.01,2013-12-19 02:22:00,
2013-12-18 21:23:00,28.2,23.1,30.18,WNW,301,0.0,0.0,81,0.00,,,0.00,0.00,VWS V14.01,2013-12-19 02:23:00,
2013-12-18 21:24:00,28.2,23.1,30.18,WNW,301,0.0,0.0,81,0.00,,,0.00,0.00,VWS V14.01,2013-12-19 02:24:00,
2013-12-18 21:25:00,28.1,23.0,30.18,WNW,301,0.0,0.0,81,0.00,,,0.00,0.00,VWS V14.01,2013-12-19 02:25:00,
2013-12-18 21:26:00,28.1,23.0,30.18,WNW,301,0.0,0.0,81,0.00,,,0.00,0.00,VWS V14.01,2013-12-19 02:26:00,
2013-12-18 21:27:00,28.1,23.0,30.18,WNW,301,0.0,0.0,81,0.00,,,0.00,0.00,VWS V14.01,2013-12-19 02:27:00,
2013-12-18 21:28:00,27.9,22.8,30.18,WNW,301,0.0,0.0,81,0.00,,,0.00,0.00,VWS V14.01,2013-12-19 02:28:00,
2013-12-18 21:29:00,27.9,22.8,30.18,WNW,301,0.0,0.0,81,0.00,,,0.00,0.00,VWS V14.01,2013-12-19 02:29:00,
2013-12-18 21:30:00,27.9,22.8,30.18,WNW,301,0.0,0.0,81,0.00,,,0.00,0.00,VWS V14.01,2013-12-19 02:30:00,
2013-12-18 21:31:00,27.9,22.8,30.18,WNW,301,0.0,0.0,81,0.00,,,0.00,0.00,VWS V14.01,2013-12-19 02:31:00,
2013-12-18 21:32:00,27.8,22.7,30.18,WNW,301,0.0,0.0,81,0.00,,,0.00,0.00,VWS V14.01,2013-12-19 02:32:00,
2013-12-18 21:33:00,27.8,22.7,30.18,WNW,301,0.0,0.0,81,0.00,,,0.00,0.00,VWS V14.01,2013-12-19 02:33:00,
2013-12-18 21:34:00,27.8,23.0,30.18,WNW,301,0.0,0.0,82,0.00,,,0.00,0.00,VWS V14.01,2013-12-19 02:34:00,
2013-12-18 21:35:00,27.8,23.0,30.18,WNW,301,0.0,0.0,82,0.00,,,0.00,0.00,VWS V14.01,2013-12-19 02:35:00,
2013-12-18 21:36:00,27.8,23.0,30.18,WNW,301,0.0,0.0,82,0.00,,,0.00,0.00,VWS V14.01,2013-12-19 02:36:00,
2013-12-18 21:37:00,27.8,23.3,30.18,WNW,301,0.0,0.0,83,0.00,,,0.00,0.00,VWS V14.01,2013-12-19 02:37:00,
2013-12-18 21:38:00,27.9,23.4,30.18,WNW,301,0.0,0.0,83,0.00,,,0.00,0.00,VWS V14.01,2013-12-19 02:38:00,
2013-12-18 21:39:00,27.9,23.4,30.18,WNW,301,0.0,0.0,83,0.00,,,0.00,0.00,VWS V14.01,2013-12-19 02:39:00,
2013-12-18 21:40:00,27.9,23.4,30.18,WNW,301,0.0,0.0,83,0.00,,,0.00,0.00,VWS V14.01,2013-12-19 02:40:00,
2013-12-18 21:41:00,27.9,23.4,30.18,WNW,301,0.0,0.0,83,0.00,,,0.00,0.00,VWS V14.01,2013-12-19 02:41:00,
2013-12-18 21:42:00,27.9,23.4,30.18,WNW,301,0.0,0.0,83,0.00,,,0.00,0.00,VWS V14.01,2013-12-19 02:42:00,
2013-12-18 21:43:00,27.9,23.4,30.18,WNW,301,0.0,0.0,83,0.00,,,0.00,0.00,VWS V14.01,2013-12-19 02:43:00,
2013-12-18 21:44:00,27.9,23.4,30.18,WNW,301,0.0,0.0,83,0.00,,,0.00,0.00,VWS V14.01,2013-12-19 02:44:00,
2013-12-18 21:45:00,27.9,23.4,30.19,WNW,301,0.0,0.0,83,0.00,,,0.00,0.00,VWS V14.01,2013-12-19 02:45:00,
2013-12-18 21:46:00,27.8,23.3,30.19,WNW,301,0.0,0.0,83,0.00,,,0.00,0.00,VWS V14.01,2013-12-19 02:46:00,
2013-12-18 21:47:00,27.8,23.3,30.19,WNW,301,0.0,0.0,83,0.00,,,0.00,0.00,VWS V14.01,2013-12-19 02:47:00,
2013-12-18 21:48:00,27.8,23.3,30.19,WNW,301,0.0,0.0,83,0.00,,,0.00,0.00,VWS V14.01,2013-12-19 02:48:00,
2013-12-18 21:49:00,27.8,23.3,30.19,WNW,301,0.0,0.0,83,0.00,,,0.00,0.00,VWS V14.01,2013-12-19 02:49:00,
2013-12-18 21:50:00,27.8,23.3,30.19,WNW,301,0.0,0.0,83,0.00,,,0.00,0.00,VWS V14.01,2013-12-19 02:50:00,
2013-12-18 21:51:00,27.8,23.3,30.19,WNW,301,0.0,0.0,83,0.00,,,0.00,0.00,VWS V14.01,2013-12-19 02:51:00,
2013-12-18 21:52:00,27.8,23.6,30.19,WNW,301,0.0,0.0,84,0.00,,,0.00,0.00,VWS V14.01,2013-12-19 02:52:00,
2013-12-18 21:53:00,27.8,23.6,30.19,WNW,301,0.0,0.0,84,0.00,,,0.00,0.00,VWS V14.01,2013-12-19 02:53:00,
2013-12-18 21:54:00,27.8,23.6,30.19,WNW,301,0.0,0.0,84,0.00,,,0.00,0.00,VWS V14.01,2013-12-19 02:54:00,
2013-12-18 21:55:00,27.8,23.6,30.19,WNW,301,0.0,0.0,84,0.00,,,0.00,0.00,VWS V14.01,2013-12-19 02:55:00,
2013-12-18 21:56:00,27.8,23.6,30.19,WNW,301,0.0,0.0,84,0.00,,,0.00,0.00,VWS V14.01,2013-12-19 02:56:00,
2013-12-18 21:57:00,27.8,23.6,30.19,WNW,301,0.0,0.0,84,0.00,,,0.00,0.00,VWS V14.01,2013-12-19 02:57:00,
2013-12-18 21:58:00,27.8,23.6,30.19,WNW,301,0.0,0.0,84,0.00,,,0.00,0.00,VWS V14.01,2013-12-19 02:58:00,
2013-12-18 21:59:00,27.8,23.6,30.19,WNW,301,0.0,0.0,84,0.00,,,0.00,0.00,VWS V14.01,2013-12-19 02:59:00,
2013-12-18 22:00:00,27.8,23.6,30.19,WNW,301,0.0,0.0,84,0.00,,,0.00,0.00,VWS V14.01,2013-12-19 03:00:00,
2013-12-18 22:01:00,27.8,23.6,30.19,WNW,301,0.0,0.0,84,0.00,,,0.00,0.00,VWS V14.01,2013-12-19 03:01:00,
2013-12-18 22:02:00,27.8,23.6,30.19,WNW,301,0.0,0.0,84,0.00,,,0.00,0.00,VWS V14.01,2013-12-19 03:02:00,
2013-12-18 22:03:00,27.8,23.6,30.19,WNW,301,0.0,0.0,84,0.00,,,0.00,0.00,VWS V14.01,2013-12-19 03:03:00,
2013-12-18 22:04:00,27.8,23.6,30.19,WNW,301,0.0,0.0,84,0.00,,,0.00,0.00,VWS V14.01,2013-12-19 03:04:00,
2013-12-18 22:05:00,27.8,23.6,30.19,WNW,301,0.0,0.0,84,0.00,,,0.00,0.00,VWS V14.01,2013-12-19 03:05:00,
2013-12-18 22:06:00,27.8,23.6,30.19,WNW,301,0.0,0.0,84,0.00,,,0.00,0.00,VWS V14.01,2013-12-19 03:06:00,
2013-12-18 22:07:00,27.8,23.6,30.19,WNW,301,0.0,0.0,84,0.00,,,0.00,0.00,VWS V14.01,2013-12-19 03:07:00,
2013-12-18 22:08:00,27.8,23.6,30.19,WNW,301,0.0,0.0,84,0.00,,,0.00,0.00,VWS V14.01,2013-12-19 03:08:00,
2013-12-18 22:09:00,27.8,23.6,30.19,WNW,301,0.0,0.0,84,0.00,,,0.00,0.00,VWS V14.01,2013-12-19 03:09:00,
2013-12-18 22:10:00,27.8,23.6,30.19,WNW,301,0.0,0.0,84,0.00,,,0.00,0.00,VWS V14.01,2013-12-19 03:10:00,
2013-12-18 22:11:00,27.8,23.6,30.19,WNW,301,0.0,0.0,84,0.00,,,0.00,0.00,VWS V14.01,2013-12-19 03:11:00,
2013-12-18 22:12:00,27.8,23.6,30.19,WNW,301,0.0,0.0,84,0.00,,,0.00,0.00,VWS V14.01,2013-12-19 03:12:00,
2013-12-18 22:13:00,27.8,23.6,30.19,WNW,301,0.0,0.0,84,0.00,,,0.00,0.00,VWS V14.01,2013-12-19 03:13:00,
2013-12-18 22:14:00,27.8,23.6,30.19,WNW,301,0.0,0.0,84,0.00,,,0.00,0.00,VWS V14.01,2013-12-19 03:14:00,
2013-12-18 22:15:00,27.6,23.4,30.19,WNW,301,0.0,0.0,84,0.00,,,0.00,0.00,VWS V14.01,2013-12-19 03:15:00,
2013-12-18 22:16:00,27.6,23.4,30.19,WNW,301,0.0,0.0,84,0.00,,,0.00,0.00,VWS V14.01,2013-12-19 03:16:00,
2013-12-18 22:17:00,27.6,23.4,30.19,WNW,301,0.0,0.0,84,0.00,,,0.00,0.00,VWS V14.01,2013-12-19 03:17:00,
2013-12-18 22:18:00,27.6,23.4,30.19,WNW,301,0.0,0.0,84,0.00,,,0.00,0.00,VWS V14.01,2013-12-19 03:18:00,
2013-12-18 22:19:00,27.6,23.4,30.19,WNW,301,0.0,0.0,84,0.00,,,0.00,0.00,VWS V14.01,2013-12-19 03:19:00,
2013-12-18 22:20:00,27.6,23.4,30.19,WNW,301,0.0,0.0,84,0.00,,,0.00,0.00,VWS V14.01,2013-12-19 03:20:00,
2013-12-18 22:21:00,27.5,23.3,30.19,WNW,301,0.0,0.0,84,0.00,,,0.00,0.00,VWS V14.01,2013-12-19 03:21:00,
2013-12-18 22:22:00,27.5,23.3,30.19,WNW,301,0.0,0.0,84,0.00,,,0.00,0.00,VWS V14.01,2013-12-19 03:22:00,
2013-12-18 22:23:00,27.5,23.3,30.19,WNW,301,0.0,0.0,84,0.00,,,0.00,0.00,VWS V14.01,2013-12-19 03:23:00,
2013-12-18 22:24:00,27.5,23.3,30.19,WNW,301,0.0,0.0,84,0.00,,,0.00,0.00,VWS V14.01,2013-12-19 03:24:00,
2013-12-18 22:25:00,27.5,23.3,30.19,WNW,301,0.0,0.0,84,0.00,,,0.00,0.00,VWS V14.01,2013-12-19 03:25:00,
2013-12-18 22:26:00,27.3,23.1,30.19,WNW,301,0.0,0.0,84,0.00,,,0.00,0.00,VWS V14.01,2013-12-19 03:26:00,
2013-12-18 22:27:00,27.3,23.1,30.19,WNW,301,0.0,0.0,84,0.00,,,0.00,0.00,VWS V14.01,2013-12-19 03:27:00,
2013-12-18 22:28:00,27.3,23.1,30.19,WNW,301,0.0,0.0,84,0.00,,,0.00,0.00,VWS V14.01,2013-12-19 03:28:00,
2013-12-18 22:29:00,27.3,23.1,30.19,WNW,301,0.0,0.0,84,0.00,,,0.00,0.00,VWS V14.01,2013-12-19 03:29:00,
2013-12-18 22:30:00,27.3,23.1,30.20,WNW,301,0.0,0.0,84,0.00,,,0.00,0.00,VWS V14.01,2013-12-19 03:30:00,
2013-12-18 22:31:00,27.3,23.1,30.20,WNW,301,0.0,0.0,84,0.00,,,0.00,0.00,VWS V14.01,2013-12-19 03:31:00,
2013-12-18 22:32:00,27.3,23.1,30.20,WNW,301,0.0,0.0,84,0.00,,,0.00,0.00,VWS V14.01,2013-12-19 03:32:00,
2013-12-18 22:33:00,27.3,23.1,30.20,WNW,301,0.0,0.0,84,0.00,,,0.00,0.00,VWS V14.01,2013-12-19 03:33:00,
2013-12-18 22:34:00,27.2,23.0,30.20,WNW,301,0.0,0.0,84,0.00,,,0.00,0.00,VWS V14.01,2013-12-19 03:34:00,
2013-12-18 22:35:00,27.2,23.0,30.20,WNW,301,0.0,0.0,84,0.00,,,0.00,0.00,VWS V14.01,2013-12-19 03:35:00,
2013-12-18 22:36:00,27.2,23.0,30.20,WNW,301,0.0,0.0,84,0.00,,,0.00,0.00,VWS V14.01,2013-12-19 03:36:00,
2013-12-18 22:37:00,27.2,23.0,30.20,WNW,301,0.0,0.0,84,0.00,,,0.00,0.00,VWS V14.01,2013-12-19 03:37:00,
2013-12-18 22:38:00,27.2,23.0,30.20,WNW,301,0.0,0.0,84,0.00,,,0.00,0.00,VWS V14.01,2013-12-19 03:38:00,
2013-12-18 22:39:00,27.2,23.0,30.20,WNW,301,0.0,0.0,84,0.00,,,0.00,0.00,VWS V14.01,2013-12-19 03:39:00,
2013-12-18 22:40:00,27.0,22.8,30.20,WNW,301,0.0,0.0,84,0.00,,,0.00,0.00,VWS V14.01,2013-12-19 03:40:00,
2013-12-18 22:41:00,27.0,22.8,30.20,WNW,301,0.0,0.0,84,0.00,,,0.00,0.00,VWS V14.01,2013-12-19 03:41:00,
2013-12-18 22:42:00,27.0,22.8,30.20,WNW,301,0.0,0.0,84,0.00,,,0.00,0.00,VWS V14.01,2013-12-19 03:42:00,
2013-12-18 22:43:00,27.0,22.8,30.20,WNW,301,0.0,0.0,84,0.00,,,0.00,0.00,VWS V14.01,2013-12-19 03:43:00,
2013-12-18 22:44:00,27.2,23.3,30.20,WNW,301,0.0,0.0,85,0.00,,,0.00,0.00,VWS V14.01,2013-12-19 03:44:00,
2013-12-18 22:45:00,27.0,22.8,30.21,WNW,301,0.0,0.0,84,0.00,,,0.00,0.00,VWS V14.01,2013-12-19 03:45:00,
2013-12-18 22:46:00,27.0,23.1,30.21,WNW,301,0.0,0.0,85,0.00,,,0.00,0.00,VWS V14.01,2013-12-19 03:46:00,
2013-12-18 22:47:00,27.0,23.1,30.21,WNW,301,0.0,0.0,85,0.00,,,0.00,0.00,VWS V14.01,2013-12-19 03:47:00,
2013-12-18 22:48:00,27.0,23.1,30.21,WNW,301,0.0,0.0,85,0.00,,,0.00,0.00,VWS V14.01,2013-12-19 03:48:00,
2013-12-18 22:49:00,27.0,22.8,30.21,WNW,301,0.0,0.0,84,0.00,,,0.00,0.00,VWS V14.01,2013-12-19 03:49:00,
2013-12-18 22:50:00,27.0,23.1,30.21,WNW,301,0.0,0.0,85,0.00,,,0.00,0.00,VWS V14.01,2013-12-19 03:50:00,
2013-12-18 22:51:00,27.0,23.1,30.21,WNW,301,0.0,0.0,85,0.00,,,0.00,0.00,VWS V14.01,2013-12-19 03:51:00,
2013-12-18 22:52:00,26.9,23.0,30.21,WNW,301,0.0,0.0,85,0.00,,,0.00,0.00,VWS V14.01,2013-12-19 03:52:00,
2013-12-18 22:53:00,26.9,22.7,30.21,WNW,301,0.0,0.0,84,0.00,,,0.00,0.00,VWS V14.01,2013-12-19 03:53:00,
2013-12-18 22:54:00,26.9,22.7,30.21,WNW,301,0.0,0.0,84,0.00,,,0.00,0.00,VWS V14.01,2013-12-19 03:54:00,
2013-12-18 22:55:00,26.9,22.7,30.21,WNW,301,0.0,0.0,84,0.00,,,0.00,0.00,VWS V14.01,2013-12-19 03:55:00,
2013-12-18 22:56:00,26.9,23.0,30.21,WNW,301,0.0,0.0,85,0.00,,,0.00,0.00,VWS V14.01,2013-12-19 03:56:00,
2013-12-18 22:57:00,26.7,22.8,30.21,WNW,301,0.0,0.0,85,0.00,,,0.00,0.00,VWS V14.01,2013-12-19 03:57:00,
2013-12-18 22:58:00,26.7,22.8,30.21,WNW,301,0.0,0.0,85,0.00,,,0.00,0.00,VWS V14.01,2013-12-19 03:58:00,
2013-12-18 22:59:00,26.7,22.8,30.21,WNW,301,0.0,0.0,85,0.00,,,0.00,0.00,VWS V14.01,2013-12-19 03:59:00,
2013-12-18 23:00:00,26.7,22.8,30.21,WNW,301,0.0,0.0,85,0.00,,,0.00,0.00,VWS V14.01,2013-12-19 04:00:00,
2013-12-18 23:01:00,26.9,23.0,30.21,WNW,301,0.0,0.0,85,0.00,,,0.00,0.00,VWS V14.01,2013-12-19 04:01:00,
2013-12-18 23:02:00,26.9,23.0,30.21,WNW,301,0.0,0.0,85,0.00,,,0.00,0.00,VWS V14.01,2013-12-19 04:02:00,
2013-12-18 23:03:00,26.9,23.0,30.21,WNW,301,0.0,0.0,85,0.00,,,0.00,0.00,VWS V14.01,2013-12-19 04:03:00,
2013-12-18 23:04:00,26.9,23.0,30.21,WNW,301,0.0,0.0,85,0.00,,,0.00,0.00,VWS V14.01,2013-12-19 04:04:00,
2013-12-18 23:05:00,26.9,23.0,30.21,WNW,301,0.0,0.0,85,0.00,,,0.00,0.00,VWS V14.01,2013-12-19 04:05:00,
2013-12-18 23:06:00,26.9,23.0,30.21,WNW,301,0.0,0.0,85,0.00,,,0.00,0.00,VWS V14.01,2013-12-19 04:06:00,
2013-12-18 23:07:00,26.9,23.0,30.21,WNW,301,0.0,0.0,85,0.00,,,0.00,0.00,VWS V14.01,2013-12-19 04:07:00,
2013-12-18 23:08:00,26.9,23.0,30.21,WNW,301,0.0,0.0,85,0.00,,,0.00,0.00,VWS V14.01,2013-12-19 04:08:00,
2013-12-18 23:09:00,26.9,23.0,30.21,WNW,301,0.0,0.0,85,0.00,,,0.00,0.00,VWS V14.01,2013-12-19 04:09:00,
2013-12-18 23:10:00,26.9,23.0,30.21,WNW,301,0.0,0.0,85,0.00,,,0.00,0.00,VWS V14.01,2013-12-19 04:10:00,
2013-12-18 23:11:00,26.9,23.0,30.21,WNW,301,0.0,0.0,85,0.00,,,0.00,0.00,VWS V14.01,2013-12-19 04:11:00,
2013-12-18 23:12:00,26.9,23.3,30.21,WNW,301,0.0,0.0,86,0.00,,,0.00,0.00,VWS V14.01,2013-12-19 04:12:00,
2013-12-18 23:13:00,26.9,23.3,30.21,WNW,301,0.0,0.0,86,0.00,,,0.00,0.00,VWS V14.01,2013-12-19 04:13:00,
2013-12-18 23:14:00,26.9,23.3,30.21,WNW,301,0.0,0.0,86,0.00,,,0.00,0.00,VWS V14.01,2013-12-19 04:14:00,
2013-12-18 23:15:00,26.9,23.0,30.20,WNW,301,0.0,0.0,85,0.00,,,0.00,0.00,VWS V14.01,2013-12-19 04:15:00,
2013-12-18 23:16:00,26.9,23.0,30.20,WNW,301,0.0,0.0,85,0.00,,,0.00,0.00,VWS V14.01,2013-12-19 04:16:00,
2013-12-18 23:17:00,26.9,23.0,30.20,WNW,301,0.0,0.0,85,0.00,,,0.00,0.00,VWS V14.01,2013-12-19 04:17:00,
2013-12-18 23:18:00,26.7,23.1,30.20,WNW,301,0.0,0.0,86,0.00,,,0.00,0.00,VWS V14.01,2013-12-19 04:18:00,
2013-12-18 23:19:00,26.7,22.8,30.20,WNW,301,0.0,0.0,85,0.00,,,0.00,0.00,VWS V14.01,2013-12-19 04:19:00,
2013-12-18 23:20:00,26.7,22.8,30.20,WNW,301,0.0,0.0,85,0.00,,,0.00,0.00,VWS V14.01,2013-12-19 04:20:00,
2013-12-18 23:21:00,26.7,23.1,30.20,WNW,301,0.0,0.0,86,0.00,,,0.00,0.00,VWS V14.01,2013-12-19 04:21:00,
2013-12-18 23:22:00,26.7,23.1,30.20,WNW,301,0.0,0.0,86,0.00,,,0.00,0.00,VWS V14.01,2013-12-19 04:22:00,
2013-12-18 23:23:00,26.6,23.0,30.20,WNW,301,0.0,0.0,86,0.00,,,0.00,0.00,VWS V14.01,2013-12-19 04:23:00,
2013-12-18 23:24:00,26.6,23.0,30.20,WNW,301,0.0,0.0,86,0.00,,,0.00,0.00,VWS V14.01,2013-12-19 04:24:00,
2013-12-18 23:25:00,26.6,23.0,30.20,WNW,301,0.0,0.0,86,0.00,,,0.00,0.00,VWS V14.01,2013-12-19 04:25:00,
2013-12-18 23:26:00,26.6,23.0,30.20,WNW,301,0.0,0.0,86,0.00,,,0.00,0.00,VWS V14.01,2013-12-19 04:26:00,
2013-12-18 23:27:00,26.6,23.0,30.20,WNW,301,0.0,0.0,86,0.00,,,0.00,0.00,VWS V14.01,2013-12-19 04:27:00,
2013-12-18 23:28:00,26.6,23.0,30.20,WNW,301,0.0,0.0,86,0.00,,,0.00,0.00,VWS V14.01,2013-12-19 04:28:00,
2013-12-18 23:29:00,26.7,23.1,30.20,WNW,301,0.0,0.0,86,0.00,,,0.00,0.00,VWS V14.01,2013-12-19 04:29:00,
2013-12-18 23:30:00,26.7,23.1,30.20,WNW,301,0.0,0.0,86,0.00,,,0.00,0.00,VWS V14.01,2013-12-19 04:30:00,
2013-12-18 23:31:00,26.7,23.1,30.20,WNW,301,0.0,0.0,86,0.00,,,0.00,0.00,VWS V14.01,2013-12-19 04:31:00,
2013-12-18 23:32:00,26.7,23.1,30.20,WNW,301,0.0,0.0,86,0.00,,,0.00,0.00,VWS V14.01,2013-12-19 04:32:00,
2013-12-18 23:33:00,26.7,23.1,30.20,WNW,301,0.0,0.0,86,0.00,,,0.00,0.00,VWS V14.01,2013-12-19 04:33:00,
2013-12-18 23:34:00,26.6,23.0,30.20,WNW,301,0.0,0.0,86,0.00,,,0.00,0.00,VWS V14.01,2013-12-19 04:34:00,
2013-12-18 23:35:00,26.6,23.0,30.20,WNW,301,0.0,0.0,86,0.00,,,0.00,0.00,VWS V14.01,2013-12-19 04:35:00,
2013-12-18 23:36:00,26.6,23.0,30.20,WNW,301,0.0,0.0,86,0.00,,,0.00,0.00,VWS V14.01,2013-12-19 04:36:00,
2013-12-18 23:37:00,26.6,23.0,30.20,WNW,301,0.0,0.0,86,0.00,,,0.00,0.00,VWS V14.01,2013-12-19 04:37:00,
2013-12-18 23:38:00,26.6,23.0,30.20,WNW,301,0.0,0.0,86,0.00,,,0.00,0.00,VWS V14.01,2013-12-19 04:38:00,
2013-12-18 23:39:00,26.6,23.0,30.20,WNW,301,0.0,0.0,86,0.00,,,0.00,0.00,VWS V14.01,2013-12-19 04:39:00,
2013-12-18 23:40:00,26.6,23.0,30.20,WNW,301,0.0,0.0,86,0.00,,,0.00,0.00,VWS V14.01,2013-12-19 04:40:00,
2013-12-18 23:41:00,26.6,23.0,30.20,WNW,301,0.0,0.0,86,0.00,,,0.00,0.00,VWS V14.01,2013-12-19 04:41:00,
2013-12-18 23:42:00,26.6,23.0,30.20,WNW,301,0.0,0.0,86,0.00,,,0.00,0.00,VWS V14.01,2013-12-19 04:42:00,
2013-12-18 23:43:00,26.6,23.0,30.20,WNW,301,0.0,0.0,86,0.00,,,0.00,0.00,VWS V14.01,2013-12-19 04:43:00,
2013-12-18 23:44:00,26.6,23.0,30.20,WNW,301,0.0,0.0,86,0.00,,,0.00,0.00,VWS V14.01,2013-12-19 04:44:00,
2013-12-18 23:45:00,26.6,23.0,30.20,WNW,301,0.0,0.0,86,0.00,,,0.00,0.00,VWS V14.01,2013-12-19 04:45:00,
2013-12-18 23:46:00,26.6,23.0,30.20,WNW,301,0.0,0.0,86,0.00,,,0.00,0.00,VWS V14.01,2013-12-19 04:46:00,
2013-12-18 23:47:00,26.6,23.0,30.20,WNW,301,0.0,0.0,86,0.00,,,0.00,0.00,VWS V14.01,2013-12-19 04:47:00,
2013-12-18 23:48:00,26.6,23.0,30.20,WNW,301,0.0,0.0,86,0.00,,,0.00,0.00,VWS V14.01,2013-12-19 04:48:00,
2013-12-18 23:49:00,26.6,23.0,30.20,WNW,301,0.0,0.0,86,0.00,,,0.00,0.00,VWS V14.01,2013-12-19 04:49:00,
2013-12-18 23:50:00,26.6,23.0,30.20,WNW,301,0.0,0.0,86,0.00,,,0.00,0.00,VWS V14.01,2013-12-19 04:50:00,
2013-12-18 23:51:00,26.6,23.0,30.20,WNW,301,0.0,0.0,86,0.00,,,0.00,0.00,VWS V14.01,2013-12-19 04:51:00,
2013-12-18 23:52:00,26.6,23.0,30.20,WNW,301,0.0,0.0,86,0.00,,,0.00,0.00,VWS V14.01,2013-12-19 04:52:00,
2013-12-18 23:53:00,26.6,23.0,30.20,WNW,301,0.0,0.0,86,0.00,,,0.00,0.00,VWS V14.01,2013-12-19 04:53:00,
2013-12-18 23:54:00,26.6,23.0,30.20,WNW,301,0.0,0.0,86,0.00,,,0.00,0.00,VWS V14.01,2013-12-19 04:54:00,
2013-12-18 23:55:00,26.6,23.3,30.20,WNW,301,0.0,0.0,87,0.00,,,0.00,0.00,VWS V14.01,2013-12-19 04:55:00,
2013-12-18 23:56:00,26.6,23.3,30.20,WNW,301,0.0,0.0,87,0.00,,,0.00,0.00,VWS V14.01,2013-12-19 04:56:00,
2013-12-18 23:57:00,26.6,23.3,30.20,WNW,301,0.0,0.0,87,0.00,,,0.00,0.00,VWS V14.01,2013-12-19 04:57:00,
2013-12-18 23:58:00,26.6,23.3,30.20,WNW,301,0.0,0.0,87,0.00,,,0.00,0.00,VWS V14.01,2013-12-19 04:58:00,
2013-12-18 23:59:00,26.4,23.1,30.20,WNW,301,0.0,0.0,87,0.00,,,0.00,0.00,VWS V14.01,2013-12-19 04:59:00,